[[{"header":{"parameterUnit":"m.s-1","parameterCategory":1,"la1":31.0,"la2":29.5877,"lo1":-88.7671,"lo2":-86.6584,"dy":0.0162,"dx":0.0185,"nx":115,"ny":88,"refTime":"2024-02-16T06:00:00:Z","depth":0,"parameterNumber":2,"parameterNumberName":"U-component_of_WINDS"},"data":[0.0,0.0,0.0,0.0,0.0,0.0,0.0,0.0,0.0,0.0,0.0,0.0,0.0,0.0,0.0,0.0,0.0,0.0,0.0,0.0,0.0,0.0,0.0,0.0,0.0,0.0,0.0,0.0,0.0,0.0,0.0,0.0,0.0,0.0,0.0,0.0,0.0,0.0,0.0,0.0,0.0,0.0,0.0,0.0,0.0,0.0,0.0,0.0,0.0,0.0,0.0,0.0,0.0,0.0,0.0,0.0,0.0,0.0,0.0,0.0,0.0,0.0,0.0,0.0,0.0,0.0,0.0,0.0,0.0,0.0,0.0,0.0,0.0,0.0,0.0,0.0,0.0,0.0,0.0,0.0,0.0,0.0,0.0,0.0,0.0,0.0,0.0,0.0,0.0,0.0,0.0,0.0,0.0,0.0,0.0,0.0,0.0,0.0,0.0,0.0,0.0,0.0,0.0,0.0,0.0,0.0,0.0,0.0,0.0,0.0,0.0,0.0,0.0,0.0,0.0,0.0,0.0,0.0,0.0,0.0,0.0,0.0,0.0,0.0,0.0,0.0,0.0,0.0,0.0,0.0,0.0,0.0,0.0,0.0,0.0,0.0,0.0,0.0,0.0,0.0,0.0,0.0,0.0,0.0,0.0,0.0,0.0,0.0,0.0,0.0,0.0,0.0,0.0,0.0,0.0,0.0,0.0,0.0,0.0,0.0,0.0,0.0,0.0,0.0,0.0,0.0,0.0,0.0,0.0,0.0,0.0,0.0,0.0,0.0,0.0,0.0,0.0,0.0,0.0,0.0,0.0,0.0,0.0,0.0,0.0,0.0,0.0,0.0,0.0,0.0,0.0,0.0,0.0,0.0,0.0,0.0,0.0,0.0,0.0,0.0,0.0,0.0,0.0,0.0,0.0,0.0,0.0,0.0,0.0,0.0,0.0,0.0,0.0,0.0,0.0,0.0,0.0,0.0,0.0,0.0,0.0,0.0,0.0,0.0,0.0,0.0,0.0,0.0,0.0,0.0,0.0,0.0,0.0,0.0,0.0,0.0,0.0,0.0,0.0,0.0,0.0,0.0,0.0,0.0,0.0,0.0,0.0,0.0,0.0,0.0,0.0,0.0,0.0,0.0,0.0,0.0,0.0,0.0,0.0,0.0,0.0,0.0,0.0,0.0,0.0,0.0,0.0,0.0,0.0,0.0,0.0,0.0,0.0,0.0,0.0,0.0,0.0,0.0,0.0,0.0,0.0,0.0,0.0,0.0,0.0,0.0,0.0,0.0,0.0,0.0,0.0,0.0,0.0,0.0,0.0,0.0,0.0,0.0,0.0,0.0,0.0,0.0,0.0,0.0,0.0,0.0,0.0,0.0,0.0,0.0,0.0,0.0,0.0,0.0,0.0,0.0,0.0,0.0,0.0,0.0,0.0,0.0,0.0,0.0,0.0,0.0,0.0,0.0,0.0,0.0,0.0,0.0,0.0,0.0,0.0,0.0,0.0,0.0,0.0,0.0,0.0,0.0,0.0,0.0,0.0,0.0,0.0,0.0,0.0,0.0,0.0,0.0,0.0,0.0,0.0,0.0,0.0,0.0,0.0,0.0,0.0,0.0,0.0,0.0,0.0,0.0,0.0,0.0,0.0,0.0,0.0,0.0,0.0,0.0,0.0,0.0,0.0,0.0,0.0,0.0,0.0,0.0,0.0,0.0,0.0,0.0,0.0,0.0,0.0,0.0,0.0,0.0,0.0,0.0,0.0,0.0,0.0,0.0,0.0,0.0,0.0,0.0,0.0,0.0,0.0,0.0,0.0,0.0,0.0,0.0,0.0,0.0,0.0,0.0,0.0,0.0,0.0,0.0,0.0,0.0,0.0,0.0,0.0,0.0,0.0,0.0,0.0,0.0,0.0,0.0,0.0,0.0,0.0,0.0,0.0,0.0,0.0,0.0,0.0,0.0,0.0,0.0,0.0,0.0,0.0,0.0,0.0,0.0,0.0,0.0,0.0,0.0,0.0,0.0,0.0,0.0,0.0,0.0,0.0,0.0,0.0,0.0,0.0,0.0,0.0,0.0,0.0,0.0,0.0,0.0,0.0,0.0,0.0,0.0,0.0,0.0,0.0,0.0,0.0,0.0,0.0,0.0,0.0,0.0,0.0,0.0,0.0,0.0,0.0,0.0,0.0,0.0,0.0,0.0,0.0,0.0,0.0,0.0,0.0,0.0,0.0,0.0,0.0,0.0,0.0,0.0,0.0,0.0,0.0,0.0,0.0,0.0,0.0,0.0,0.0,0.0,0.0,0.0,0.0,0.0,0.0,0.0,0.0,0.0,0.0,0.0,0.0,0.0,0.0,0.0,0.0,0.0,0.0,0.0,0.0,0.0,0.0,0.0,0.0,0.0,0.0,0.0,0.0,0.0,0.0,0.0,0.0,0.0,0.0,0.0,0.0,0.0,0.0,0.0,0.0,0.0,0.0,0.0,0.0,0.0,0.0,0.0,0.0,0.0,0.0,0.0,0.0,0.0,0.0,0.0,0.0,0.0,0.0,0.0,0.0,0.0,0.0,0.0,0.0,0.0,0.0,0.0,0.0,0.0,0.0,0.0,0.0,0.0,0.0,0.0,0.0,0.0,0.0,0.0,0.0,0.0,0.0,0.0,0.0,0.0,0.0,0.0,0.0,0.0,0.0,0.0,0.0,0.0,0.0,0.0,0.0,0.0,0.0,0.0,0.0,0.0,0.0,0.0,0.0,0.0,0.0,0.0,0.0,0.0,0.0,0.0,0.0,0.0,0.0,0.0,0.0,0.0,0.0,0.0,0.0,0.0,0.0,0.0,0.0,0.0,0.0,0.0,0.0,0.0,0.0,0.0,0.0,0.0,0.0,0.0,0.0,0.0,0.0,0.0,0.0,0.0,0.0,0.0,0.0,0.0,0.0,0.0,0.0,0.0,0.0,0.0,0.0,0.0,0.0,0.0,0.0,0.0,0.0,0.0,0.0,0.0,0.0,0.0,0.0,0.0,0.0,0.0,0.0,0.0,0.0,0.0,0.0,0.0,0.0,0.0,0.0,0.0,0.0,0.0,0.0,0.0,0.0,0.0,0.0,0.0,0.0,0.0,0.0,0.0,0.0,0.0,0.0,0.0,0.0,0.0,0.0,0.0,0.0,0.0,0.0,0.0,0.0,0.0,0.0,0.0,0.0,0.0,0.0,0.0,0.0,0.0,0.0,0.0,0.0,0.0,0.0,0.0,0.0,0.0,0.0,0.0,0.0,0.0,0.0,0.0,0.0,0.0,0.0,0.0,0.0,0.0,0.0,0.0,0.0,0.0,0.0,0.0,0.0,0.0,0.0,0.0,0.0,0.0,0.0,0.0,0.0,0.0,0.0,0.0,0.0,0.0,0.0,0.0,0.0,0.0,0.0,0.0,0.0,0.0,0.0,0.0,0.0,0.0,0.0,0.0,0.0,0.0,0.0,0.0,0.0,0.0,0.0,0.0,0.0,0.0,0.0,0.0,0.0,0.0,0.0,0.0,0.0,0.0,0.0,0.0,0.0,0.0,0.0,0.0,0.0,0.0,0.0,0.0,0.0,0.0,0.0,0.0,0.0,0.0,0.0,0.0,0.0,0.0,0.0,0.0,0.0,0.0,0.0,0.0,0.0,0.0,0.0,0.0,0.0,0.0,0.0,0.0,0.0,0.0,0.0,0.0,0.0,0.0,0.0,0.0,0.0,0.0,0.0,0.0,0.0,0.0,0.0,0.0,0.0,0.0,0.0,0.0,0.0,0.0,0.0,0.0,0.0,0.0,0.0,0.0,0.0,0.0,0.0,0.0,0.0,0.0,0.0,0.0,0.0,0.0,0.0,0.0,0.0,0.0,0.0,0.0,0.0,0.0,0.0,0.0,0.0,0.0,0.0,0.0,0.0,0.0,0.0,0.0,0.0,0.0,0.0,0.0,0.0,0.0,0.0,0.0,0.0,0.0,0.0,0.0,0.0,0.0,0.0,0.0,0.0,0.0,0.0,0.0,0.0,0.0,0.0,0.0,0.0,0.0,0.0,0.0,0.0,0.0,0.0,0.0,0.0,0.0,0.0,0.0,0.0,0.0,0.0,0.0,0.0,0.0,0.0,0.0,0.0,0.0,0.0,0.0,0.0,0.0,0.0,0.0,0.0,0.0,0.0,0.0,0.0,0.0,0.0,0.0,0.0,0.0,0.0,0.0,0.0,0.0,0.0,0.0,0.0,0.0,0.0,0.0,0.0,0.0,0.0,0.0,0.0,0.0,5.7751,0.0,0.0,0.0,0.0,0.0,0.0,0.0,0.0,0.0,0.0,0.0,0.0,0.0,0.0,0.0,0.0,0.0,0.0,0.0,0.0,0.0,0.0,0.0,0.0,0.0,0.0,0.0,0.0,0.0,0.0,0.0,0.0,0.0,0.0,0.0,0.0,0.0,0.0,0.0,0.0,0.0,0.0,0.0,0.0,0.0,0.0,0.0,0.0,0.0,0.0,0.0,0.0,0.0,0.0,0.0,0.0,0.0,0.0,0.0,0.0,0.0,0.0,0.0,0.0,0.0,0.0,0.0,0.0,0.0,0.0,0.0,0.0,0.0,0.0,0.0,0.0,0.0,0.0,0.0,0.0,0.0,0.0,0.0,0.0,0.0,0.0,0.0,0.0,0.0,0.0,0.0,0.0,0.0,0.0,0.0,0.0,0.0,0.0,0.0,0.0,0.0,0.0,0.0,0.0,0.0,0.0,0.0,0.0,0.0,0.0,6.1414,6.1024,6.0179,5.9517,5.9115,0.0,0.0,0.0,0.0,0.0,0.0,0.0,0.0,0.0,0.0,0.0,0.0,0.0,0.0,0.0,0.0,0.0,0.0,0.0,0.0,0.0,0.0,0.0,0.0,0.0,0.0,0.0,0.0,0.0,0.0,0.0,0.0,0.0,0.0,0.0,0.0,0.0,0.0,0.0,0.0,0.0,0.0,0.0,0.0,0.0,0.0,0.0,0.0,0.0,0.0,0.0,0.0,0.0,0.0,0.0,0.0,0.0,0.0,0.0,0.0,0.0,0.0,0.0,0.0,0.0,0.0,0.0,0.0,0.0,0.0,0.0,0.0,0.0,0.0,0.0,0.0,0.0,0.0,0.0,0.0,0.0,0.0,0.0,0.0,0.0,0.0,0.0,0.0,0.0,0.0,0.0,0.0,0.0,0.0,0.0,0.0,0.0,0.0,0.0,0.0,0.0,0.0,0.0,0.0,0.0,0.0,0.0,0.0,0.0,0.0,0.0,0.0,6.2015,6.1276,6.0869,0.0,0.0,0.0,0.0,0.0,0.0,0.0,0.0,0.0,0.0,0.0,0.0,0.0,0.0,0.0,0.0,0.0,0.0,0.0,0.0,0.0,0.0,0.0,0.0,0.0,0.0,0.0,0.0,0.0,0.0,0.0,0.0,0.0,0.0,0.0,0.0,0.0,0.0,0.0,0.0,0.0,0.0,0.0,0.0,0.0,0.0,0.0,0.0,0.0,0.0,0.0,0.0,0.0,0.0,0.0,0.0,0.0,0.0,0.0,0.0,0.0,0.0,0.0,0.0,0.0,0.0,0.0,0.0,0.0,0.0,0.0,0.0,0.0,0.0,0.0,0.0,0.0,0.0,0.0,0.0,0.0,0.0,0.0,0.0,0.0,0.0,0.0,0.0,0.0,0.0,0.0,0.0,0.0,0.0,0.0,0.0,0.0,0.0,0.0,0.0,0.0,0.0,0.0,0.0,0.0,0.0,0.0,0.0,0.0,0.0,6.3438,6.7254,6.5777,0.0,6.2662,0.0,0.0,0.0,0.0,0.0,0.0,0.0,0.0,0.0,0.0,0.0,0.0,0.0,0.0,0.0,0.0,0.0,0.0,0.0,0.0,0.0,0.0,0.0,0.0,0.0,0.0,0.0,0.0,0.0,0.0,0.0,0.0,0.0,0.0,0.0,0.0,0.0,0.0,0.0,0.0,0.0,0.0,0.0,0.0,0.0,0.0,0.0,0.0,0.0,0.0,0.0,0.0,0.0,0.0,0.0,0.0,0.0,0.0,0.0,0.0,0.0,0.0,0.0,0.0,0.0,0.0,0.0,0.0,0.0,0.0,0.0,0.0,0.0,0.0,0.0,0.0,0.0,0.0,0.0,0.0,0.0,0.0,0.0,0.0,0.0,0.0,0.0,0.0,0.0,0.0,0.0,0.0,0.0,0.0,0.0,0.0,0.0,0.0,0.0,0.0,0.0,0.0,0.0,0.0,0.0,0.0,0.0,0.0,0.0,0.0,6.4645,6.7917,6.6826,6.4918,0.0,0.0,0.0,0.0,0.0,0.0,0.0,0.0,0.0,0.0,0.0,0.0,0.0,0.0,0.0,0.0,0.0,0.0,0.0,0.0,0.0,0.0,0.0,0.0,0.0,0.0,0.0,0.0,0.0,0.0,0.0,0.0,0.0,0.0,0.0,0.0,0.0,0.0,0.0,0.0,0.0,0.0,0.0,0.0,0.0,0.0,0.0,0.0,0.0,0.0,0.0,0.0,0.0,0.0,0.0,0.0,0.0,0.0,0.0,0.0,0.0,0.0,0.0,0.0,0.0,0.0,0.0,0.0,0.0,0.0,0.0,0.0,0.0,0.0,0.0,0.0,0.0,0.0,0.0,0.0,0.0,0.0,0.0,0.0,0.0,0.0,0.0,0.0,0.0,0.0,0.0,0.0,0.0,0.0,0.0,0.0,0.0,0.0,0.0,0.0,0.0,0.0,0.0,0.0,0.0,0.0,0.0,0.0,0.0,0.0,6.5045,6.6534,6.9149,6.7199,6.486,6.2367,0.0,0.0,0.0,0.0,0.0,0.0,0.0,0.0,0.0,0.0,0.0,0.0,0.0,0.0,0.0,0.0,0.0,0.0,0.0,0.0,0.0,0.0,0.0,0.0,0.0,0.0,0.0,0.0,0.0,0.0,0.0,0.0,0.0,0.0,0.0,0.0,0.0,0.0,0.0,0.0,0.0,0.0,0.0,0.0,0.0,0.0,0.0,0.0,0.0,0.0,0.0,0.0,0.0,0.0,0.0,0.0,0.0,0.0,0.0,0.0,0.0,0.0,0.0,0.0,0.0,0.0,0.0,0.0,0.0,0.0,0.0,0.0,0.0,0.0,0.0,0.0,0.0,0.0,0.0,0.0,0.0,0.0,0.0,0.0,0.0,0.0,0.0,0.0,0.0,0.0,0.0,0.0,0.0,0.0,0.0,0.0,0.0,0.0,0.0,0.0,0.0,0.0,0.0,0.0,0.0,0.0,0.0,0.0,7.1936,6.9354,6.9457,7.2631,6.7364,6.4242,0.0,0.0,0.0,0.0,0.0,0.0,0.0,0.0,0.0,0.0,0.0,0.0,0.0,0.0,0.0,0.0,0.0,0.0,0.0,0.0,0.0,0.0,0.0,0.0,0.0,0.0,0.0,0.0,0.0,0.0,0.0,0.0,0.0,0.0,0.0,0.0,0.0,0.0,0.0,0.0,0.0,0.0,0.0,0.0,0.0,0.0,0.0,0.0,0.0,0.0,0.0,0.0,0.0,0.0,0.0,0.0,0.0,0.0,0.0,0.0,0.0,0.0,0.0,0.0,0.0,0.0,0.0,0.0,0.0,0.0,0.0,0.0,0.0,0.0,0.0,0.0,0.0,0.0,0.0,0.0,0.0,0.0,0.0,0.0,0.0,0.0,0.0,0.0,0.0,0.0,0.0,0.0,0.0,0.0,0.0,0.0,0.0,0.0,0.0,0.0,0.0,0.0,0.0,0.0,0.0,0.0,0.0,0.0,0.0,6.5644,6.7227,6.9419,7.2064,6.7592,6.529,0.0,0.0,0.0,0.0,0.0,0.0,0.0,0.0,0.0,0.0,0.0,0.0,0.0,0.0,0.0,0.0,0.0,0.0,0.0,0.0,0.0,0.0,0.0,0.0,0.0,0.0,0.0,0.0,0.0,0.0,0.0,0.0,0.0,0.0,0.0,0.0,0.0,0.0,0.0,0.0,0.0,0.0,0.0,0.0,0.0,0.0,0.0,0.0,0.0,0.0,0.0,0.0,0.0,0.0,0.0,0.0,0.0,0.0,0.0,0.0,0.0,0.0,0.0,0.0,0.0,0.0,0.0,0.0,0.0,0.0,0.0,0.0,0.0,0.0,0.0,0.0,0.0,0.0,0.0,0.0,0.0,0.0,0.0,0.0,0.0,0.0,0.0,0.0,0.0,0.0,0.0,0.0,0.0,0.0,0.0,0.0,0.0,0.0,0.0,0.0,0.0,0.0,0.0,0.0,0.0,0.0,0.0,0.0,0.0,6.533,0.0,7.1137,7.2122,6.791,6.5101,0.0,0.0,0.0,0.0,0.0,0.0,0.0,0.0,0.0,0.0,0.0,0.0,0.0,0.0,0.0,0.0,0.0,0.0,0.0,0.0,0.0,0.0,0.0,0.0,0.0,0.0,0.0,0.0,0.0,0.0,0.0,0.0,0.0,0.0,0.0,0.0,0.0,0.0,0.0,0.0,0.0,0.0,0.0,0.0,0.0,0.0,0.0,0.0,0.0,0.0,0.0,0.0,0.0,0.0,0.0,0.0,0.0,0.0,0.0,0.0,0.0,0.0,0.0,0.0,0.0,0.0,0.0,0.0,0.0,0.0,0.0,0.0,0.0,0.0,0.0,0.0,0.0,0.0,0.0,0.0,0.0,0.0,0.0,0.0,0.0,0.0,0.0,0.0,0.0,0.0,0.0,0.0,0.0,0.0,0.0,0.0,0.0,0.0,0.0,0.0,0.0,0.0,0.0,0.0,0.0,0.0,0.0,0.0,6.5408,7.2586,7.4491,7.4654,7.3309,6.8284,6.3598,0.0,0.0,0.0,0.0,0.0,0.0,0.0,0.0,0.0,0.0,0.0,0.0,0.0,0.0,0.0,0.0,0.0,0.0,0.0,0.0,0.0,0.0,0.0,0.0,0.0,0.0,0.0,0.0,0.0,0.0,0.0,0.0,0.0,0.0,0.0,0.0,0.0,0.0,0.0,0.0,0.0,0.0,0.0,0.0,0.0,0.0,0.0,0.0,0.0,0.0,0.0,0.0,0.0,0.0,0.0,0.0,0.0,0.0,0.0,0.0,0.0,0.0,0.0,0.0,0.0,0.0,0.0,0.0,0.0,0.0,0.0,0.0,0.0,0.0,0.0,0.0,0.0,0.0,0.0,0.0,0.0,0.0,0.0,0.0,0.0,0.0,0.0,0.0,0.0,0.0,0.0,0.0,0.0,0.0,0.0,0.0,0.0,0.0,0.0,0.0,0.0,0.0,0.0,0.0,0.0,0.0,0.0,0.0,0.0,6.7086,7.0982,7.4541,7.718,6.9141,6.622,0.0,0.0,0.0,0.0,0.0,0.0,0.0,0.0,0.0,0.0,0.0,0.0,0.0,0.0,0.0,0.0,0.0,0.0,0.0,0.0,0.0,0.0,0.0,0.0,0.0,0.0,0.0,0.0,0.0,0.0,0.0,0.0,0.0,0.0,0.0,0.0,0.0,0.0,0.0,0.0,0.0,0.0,0.0,0.0,0.0,0.0,0.0,0.0,0.0,0.0,0.0,0.0,0.0,0.0,0.0,0.0,0.0,0.0,0.0,0.0,0.0,0.0,0.0,0.0,0.0,0.0,0.0,0.0,0.0,0.0,0.0,0.0,0.0,0.0,0.0,0.0,0.0,0.0,0.0,0.0,0.0,0.0,0.0,0.0,0.0,0.0,0.0,0.0,0.0,0.0,0.0,0.0,0.0,0.0,0.0,0.0,0.0,0.0,0.0,0.0,0.0,0.0,0.0,0.0,0.0,0.0,0.0,0.0,0.0,7.0765,7.4823,7.7916,7.9577,7.1782,6.8358,6.9929,0.0,0.0,0.0,0.0,0.0,0.0,0.0,0.0,0.0,0.0,0.0,0.0,0.0,0.0,0.0,0.0,0.0,0.0,0.0,0.0,0.0,0.0,0.0,0.0,0.0,0.0,0.0,0.0,0.0,0.0,0.0,0.0,0.0,0.0,0.0,0.0,0.0,0.0,0.0,0.0,0.0,0.0,0.0,0.0,0.0,0.0,0.0,0.0,0.0,0.0,0.0,0.0,0.0,0.0,0.0,0.0,0.0,0.0,0.0,0.0,0.0,0.0,0.0,0.0,0.0,0.0,0.0,0.0,0.0,0.0,0.0,0.0,0.0,0.0,0.0,0.0,0.0,0.0,0.0,0.0,0.0,0.0,0.0,0.0,0.0,0.0,0.0,0.0,0.0,0.0,0.0,0.0,0.0,0.0,0.0,0.0,0.0,0.0,0.0,0.0,0.0,0.0,0.0,0.0,0.0,0.0,0.0,0.0,8.1409,8.5082,8.5011,8.0766,7.6013,7.0445,0.0,0.0,0.0,0.0,0.0,0.0,0.0,0.0,0.0,0.0,0.0,0.0,0.0,0.0,0.0,0.0,0.0,0.0,0.0,0.0,0.0,0.0,0.0,0.0,0.0,0.0,0.0,0.0,0.0,0.0,0.0,0.0,0.0,0.0,0.0,0.0,0.0,0.0,0.0,0.0,0.0,0.0,0.0,0.0,0.0,0.0,0.0,0.0,0.0,0.0,0.0,0.0,0.0,0.0,0.0,0.0,0.0,0.0,0.0,0.0,0.0,0.0,0.0,0.0,0.0,0.0,0.0,0.0,0.0,0.0,0.0,0.0,0.0,0.0,0.0,0.0,0.0,0.0,0.0,0.0,0.0,0.0,0.0,0.0,0.0,0.0,0.0,0.0,0.0,0.0,0.0,0.0,0.0,0.0,0.0,0.0,0.0,0.0,0.0,0.0,0.0,0.0,0.0,0.0,0.0,0.0,0.0,0.0,0.0,8.755,9.5184,9.6812,9.1704,8.2128,7.6382,0.0,0.0,0.0,0.0,0.0,0.0,0.0,0.0,0.0,0.0,0.0,0.0,0.0,0.0,0.0,0.0,0.0,0.0,0.0,0.0,0.0,0.0,0.0,0.0,0.0,0.0,0.0,0.0,0.0,0.0,0.0,0.0,0.0,0.0,0.0,0.0,0.0,0.0,0.0,0.0,0.0,0.0,0.0,0.0,0.0,0.0,0.0,0.0,0.0,0.0,0.0,0.0,0.0,0.0,0.0,0.0,0.0,0.0,0.0,0.0,0.0,0.0,0.0,0.0,0.0,0.0,0.0,0.0,0.0,0.0,0.0,0.0,0.0,0.0,0.0,0.0,0.0,0.0,0.0,0.0,0.0,0.0,0.0,0.0,0.0,0.0,0.0,0.0,0.0,0.0,0.0,0.0,0.0,0.0,0.0,0.0,0.0,0.0,0.0,0.0,0.0,0.0,0.0,0.0,0.0,0.0,0.0,0.0,8.6916,9.4094,10.2663,10.5826,10.3027,9.2822,8.4267,0.0,0.0,0.0,0.0,0.0,0.0,0.0,0.0,0.0,0.0,0.0,0.0,0.0,0.0,0.0,0.0,0.0,0.0,0.0,0.0,0.0,0.0,0.0,0.0,0.0,0.0,0.0,0.0,0.0,0.0,0.0,0.0,0.0,0.0,0.0,0.0,0.0,0.0,0.0,0.0,0.0,0.0,0.0,0.0,0.0,0.0,0.0,0.0,0.0,0.0,0.0,0.0,0.0,0.0,0.0,0.0,0.0,0.0,0.0,0.0,0.0,0.0,0.0,0.0,0.0,0.0,0.0,0.0,0.0,0.0,0.0,0.0,0.0,0.0,0.0,0.0,0.0,0.0,0.0,0.0,0.0,0.0,0.0,0.0,0.0,0.0,0.0,0.0,0.0,0.0,0.0,0.0,0.0,0.0,0.0,0.0,0.0,0.0,0.0,0.0,0.0,0.0,0.0,0.0,0.0,0.0,0.0,0.0,9.2692,10.0504,10.8268,11.2524,11.2754,10.4239,9.2358,0.0,0.0,0.0,0.0,0.0,0.0,0.0,0.0,0.0,0.0,0.0,0.0,0.0,0.0,0.0,0.0,0.0,0.0,0.0,0.0,0.0,0.0,0.0,0.0,0.0,0.0,0.0,0.0,0.0,0.0,0.0,0.0,0.0,0.0,0.0,0.0,0.0,0.0,0.0,0.0,0.0,0.0,0.0,0.0,0.0,0.0,0.0,0.0,0.0,0.0,0.0,0.0,0.0,0.0,0.0,0.0,0.0,0.0,0.0,0.0,0.0,0.0,0.0,0.0,0.0,0.0,0.0,0.0,0.0,0.0,0.0,0.0,0.0,0.0,0.0,0.0,0.0,0.0,0.0,0.0,0.0,0.0,0.0,0.0,0.0,0.0,0.0,0.0,0.0,0.0,0.0,0.0,0.0,0.0,0.0,0.0,0.0,0.0,0.0,0.0,0.0,0.0,0.0,0.0,0.0,0.0,0.0,0.0,9.5028,10.397,11.2317,11.6381,11.5847,10.4086,9.3316,0.0,0.0,0.0,0.0,0.0,0.0,0.0,0.0,0.0,0.0,0.0,0.0,0.0,0.0,0.0,0.0,0.0,0.0,0.0,0.0,0.0,0.0,0.0,0.0,0.0,0.0,0.0,0.0,0.0,0.0,0.0,0.0,0.0,0.0,0.0,0.0,0.0,0.0,0.0,0.0,0.0,0.0,0.0,0.0,0.0,0.0,0.0,0.0,6.1406,0.0,0.0,0.0,0.0,0.0,0.0,0.0,0.0,0.0,0.0,0.0,0.0,0.0,0.0,0.0,0.0,0.0,0.0,0.0,0.0,0.0,0.0,0.0,0.0,0.0,0.0,0.0,0.0,0.0,0.0,0.0,0.0,0.0,0.0,0.0,0.0,0.0,0.0,0.0,0.0,0.0,0.0,0.0,0.0,0.0,0.0,0.0,0.0,0.0,0.0,0.0,0.0,0.0,0.0,0.0,0.0,0.0,0.0,0.0,9.8574,10.742,11.4805,11.8616,11.8223,10.8616,9.812,0.0,0.0,0.0,0.0,0.0,0.0,0.0,0.0,0.0,0.0,0.0,0.0,0.0,0.0,0.0,0.0,0.0,0.0,0.0,0.0,0.0,0.0,0.0,0.0,0.0,0.0,0.0,0.0,0.0,0.0,0.0,0.0,0.0,0.0,0.0,0.0,0.0,0.0,0.0,0.0,0.0,0.0,0.0,0.0,0.0,0.0,0.0,0.0,0.0,0.0,0.0,0.0,0.0,0.0,0.0,0.0,0.0,0.0,0.0,0.0,0.0,0.0,0.0,0.0,0.0,0.0,0.0,0.0,0.0,0.0,0.0,0.0,0.0,0.0,0.0,0.0,0.0,0.0,0.0,0.0,0.0,0.0,0.0,0.0,0.0,0.0,0.0,0.0,0.0,0.0,0.0,0.0,0.0,0.0,0.0,0.0,0.0,0.0,0.0,0.0,0.0,0.0,0.0,0.0,0.0,0.0,0.0,9.2189,10.164,11.0603,11.6504,11.9855,12.0416,11.393,10.3732,8.9908,0.0,0.0,0.0,0.0,0.0,0.0,0.0,0.0,0.0,0.0,0.0,0.0,0.0,0.0,0.0,0.0,0.0,0.0,0.0,0.0,0.0,0.0,0.0,0.0,0.0,0.0,0.0,0.0,0.0,0.0,0.0,0.0,0.0,0.0,0.0,0.0,0.0,0.0,5.7695,6.1094,0.0,0.0,0.0,0.0,0.0,0.0,0.0,0.0,6.4492,0.0,0.0,0.0,0.0,0.0,0.0,0.0,0.0,0.0,0.0,0.0,0.0,0.0,0.0,0.0,0.0,0.0,0.0,0.0,0.0,0.0,0.0,0.0,0.0,0.0,0.0,0.0,0.0,0.0,0.0,0.0,0.0,0.0,0.0,0.0,0.0,0.0,0.0,0.0,0.0,0.0,0.0,0.0,0.0,0.0,0.0,0.0,0.0,0.0,0.0,0.0,0.0,0.0,0.0,0.0,0.0,8.8905,9.3294,10.1205,11.2941,11.7896,12.035,12.0134,11.5018,10.5952,9.299,0.0,0.0,0.0,0.0,0.0,0.0,0.0,0.0,0.0,0.0,0.0,0.0,0.0,0.0,0.0,0.0,0.0,0.0,0.0,0.0,0.0,0.0,0.0,0.0,0.0,0.0,0.0,0.0,0.0,0.0,0.0,0.0,0.0,0.0,0.0,0.0,0.0,0.0,0.0,6.4726,6.6094,0.0,0.0,0.0,0.0,0.0,0.0,0.0,0.0,6.4101,0.0,0.0,0.0,0.0,0.0,0.0,0.0,0.0,0.0,0.0,0.0,0.0,0.0,0.0,0.0,0.0,0.0,0.0,0.0,0.0,0.0,0.0,0.0,0.0,0.0,0.0,0.0,0.0,0.0,0.0,0.0,0.0,0.0,0.0,0.0,0.0,0.0,0.0,0.0,0.0,0.0,0.0,0.0,0.0,0.0,0.0,0.0,0.0,0.0,0.0,0.0,0.0,0.0,0.0,0.0,9.0031,9.7105,10.5385,11.5002,11.8656,11.9977,11.893,11.1862,10.3134,0.0,0.0,0.0,0.0,0.0,0.0,0.0,0.0,0.0,0.0,0.0,0.0,0.0,0.0,0.0,0.0,0.0,0.0,0.0,0.0,0.0,0.0,0.0,0.0,0.0,0.0,0.0,0.0,0.0,0.0,0.0,0.0,0.0,0.0,0.0,0.0,0.0,0.0,0.0,0.0,6.7969,6.918,7.1797,0.0,0.0,0.0,0.0,0.0,0.0,6.789,6.6211,0.0,0.0,0.0,0.0,0.0,0.0,0.0,0.0,0.0,0.0,0.0,0.0,0.0,0.0,0.0,0.0,0.0,0.0,0.0,0.0,0.0,0.0,0.0,0.0,0.0,0.0,0.0,0.0,0.0,0.0,0.0,0.0,0.0,0.0,0.0,0.0,0.0,0.0,0.0,0.0,0.0,0.0,0.0,0.0,0.0,0.0,0.0,0.0,0.0,0.0,0.0,0.0,0.0,0.0,0.0,8.9524,9.9587,10.8528,11.6006,11.8637,11.9138,11.7456,10.9283,10.0818,0.0,0.0,0.0,0.0,0.0,0.0,0.0,0.0,0.0,0.0,0.0,0.0,0.0,0.0,0.0,0.0,0.0,0.0,0.0,0.0,0.0,0.0,0.0,0.0,0.0,0.0,0.0,0.0,0.0,0.0,0.0,0.0,0.0,0.0,0.0,0.0,0.0,0.0,0.0,0.0,0.0,7.1836,7.4219,7.2655,0.0,0.0,0.0,0.0,6.9999,6.9687,0.0,0.0,0.0,0.0,0.0,0.0,0.0,0.0,0.0,0.0,0.0,0.0,0.0,0.0,0.0,0.0,0.0,0.0,0.0,0.0,0.0,0.0,0.0,0.0,0.0,0.0,0.0,0.0,0.0,0.0,0.0,0.0,0.0,0.0,0.0,0.0,0.0,0.0,0.0,0.0,0.0,0.0,0.0,0.0,0.0,0.0,0.0,0.0,0.0,0.0,0.0,0.0,0.0,0.0,0.0,0.0,8.7984,9.6791,10.5668,11.4278,11.7396,11.7906,11.5968,11.1228,10.3186,0.0,0.0,0.0,0.0,0.0,0.0,0.0,0.0,0.0,0.0,0.0,0.0,0.0,0.0,0.0,0.0,0.0,0.0,0.0,0.0,0.0,0.0,0.0,0.0,0.0,0.0,0.0,0.0,0.0,0.0,0.0,0.0,0.0,0.0,0.0,0.0,0.0,0.0,0.0,0.0,0.0,7.25,7.4336,7.3698,7.293,0.0,0.0,7.2734,7.5618,7.2342,0.0,0.0,0.0,0.0,0.0,0.0,0.0,0.0,0.0,0.0,0.0,0.0,0.0,0.0,0.0,0.0,0.0,0.0,0.0,0.0,0.0,0.0,0.0,0.0,0.0,0.0,0.0,0.0,0.0,0.0,0.0,0.0,0.0,0.0,0.0,0.0,0.0,0.0,0.0,0.0,0.0,0.0,0.0,0.0,0.0,0.0,0.0,0.0,0.0,0.0,0.0,0.0,0.0,0.0,0.0,8.2996,8.9439,9.9443,10.814,11.5028,11.6822,11.6396,11.3763,10.6653,9.8169,0.0,0.0,0.0,0.0,0.0,0.0,0.0,0.0,0.0,0.0,0.0,0.0,0.0,0.0,0.0,0.0,0.0,0.0,0.0,0.0,0.0,0.0,0.0,0.0,0.0,0.0,0.0,0.0,0.0,0.0,0.0,0.0,0.0,0.0,0.0,0.0,0.0,0.0,0.0,0.0,0.0,0.0,7.5922,7.6138,0.0,0.0,0.0,7.6974,7.6496,0.0,0.0,0.0,0.0,0.0,0.0,0.0,0.0,0.0,0.0,0.0,0.0,0.0,0.0,0.0,0.0,0.0,0.0,0.0,0.0,0.0,0.0,0.0,0.0,0.0,0.0,0.0,0.0,0.0,0.0,0.0,0.0,0.0,0.0,0.0,0.0,0.0,0.0,0.0,0.0,0.0,0.0,0.0,0.0,0.0,0.0,0.0,0.0,0.0,0.0,0.0,0.0,0.0,0.0,0.0,0.0,0.0,9.0196,10.194,11.0427,11.5328,11.6153,11.5062,11.1979,10.3791,0.0,0.0,0.0,0.0,0.0,0.0,0.0,0.0,0.0,0.0,0.0,0.0,0.0,0.0,0.0,0.0,0.0,0.0,0.0,0.0,0.0,0.0,0.0,0.0,0.0,0.0,0.0,5.5078,0.0,0.0,0.0,0.0,0.0,0.0,0.0,0.0,0.0,0.0,0.0,0.0,0.0,0.0,7.753,7.7724,7.8698,7.936,0.0,0.0,8.0657,7.7959,7.8001,7.6572,0.0,0.0,0.0,0.0,0.0,0.0,0.0,0.0,0.0,0.0,0.0,0.0,0.0,0.0,0.0,0.0,0.0,0.0,0.0,0.0,0.0,0.0,0.0,0.0,0.0,0.0,0.0,0.0,0.0,0.0,0.0,0.0,0.0,0.0,0.0,0.0,0.0,0.0,0.0,0.0,0.0,0.0,0.0,0.0,0.0,0.0,0.0,0.0,0.0,0.0,0.0,0.0,0.0,0.0,8.6194,8.9328,10.2089,11.055,11.4016,11.4959,11.4184,11.1547,10.6299,9.8725,0.0,0.0,0.0,0.0,0.0,0.0,0.0,0.0,0.0,0.0,0.0,0.0,0.0,0.0,0.0,0.0,0.0,0.0,0.0,0.0,0.0,0.0,0.0,0.0,0.0,0.0,0.0,0.0,0.0,0.0,0.0,0.0,0.0,0.0,0.0,0.0,0.0,0.0,0.0,0.0,0.0,7.8584,7.9401,8.0962,8.2054,0.0,8.2761,8.2999,8.202,7.9877,7.7195,7.3581,0.0,0.0,0.0,0.0,0.0,0.0,0.0,0.0,0.0,0.0,0.0,0.0,0.0,0.0,0.0,0.0,0.0,0.0,0.0,0.0,0.0,0.0,0.0,0.0,0.0,0.0,0.0,0.0,0.0,0.0,0.0,0.0,0.0,0.0,0.0,0.0,0.0,0.0,0.0,0.0,0.0,0.0,0.0,0.0,0.0,0.0,0.0,0.0,0.0,0.0,0.0,0.0,0.0,8.6908,8.9621,10.1801,11.006,11.3794,11.3327,11.198,10.9942,10.4941,9.7286,0.0,0.0,0.0,0.0,0.0,0.0,0.0,0.0,0.0,0.0,0.0,0.0,0.0,0.0,0.0,0.0,0.0,0.0,0.0,0.0,0.0,0.0,0.0,0.0,0.0,0.0,0.0,0.0,5.812,5.8659,6.0534,0.0,0.0,0.0,0.0,0.0,0.0,0.0,0.0,0.0,0.0,8.0303,8.1116,8.2737,0.0,0.0,8.5009,8.5062,8.263,8.0965,7.8478,7.4031,7.0423,0.0,0.0,0.0,0.0,0.0,0.0,0.0,0.0,0.0,0.0,0.0,0.0,0.0,0.0,0.0,0.0,0.0,0.0,0.0,0.0,0.0,0.0,0.0,0.0,0.0,0.0,0.0,0.0,0.0,0.0,0.0,0.0,0.0,0.0,0.0,0.0,0.0,0.0,0.0,0.0,0.0,0.0,0.0,0.0,0.0,0.0,0.0,0.0,0.0,0.0,0.0,0.0,8.7013,8.9551,10.1286,10.9134,11.2794,11.1942,11.0557,10.8521,10.4095,9.686,0.0,0.0,0.0,0.0,0.0,0.0,0.0,0.0,0.0,0.0,0.0,0.0,0.0,0.0,0.0,0.0,0.0,0.0,0.0,0.0,0.0,0.0,0.0,0.0,0.0,0.0,0.0,0.0,5.9591,6.023,6.2283,0.0,0.0,0.0,0.0,0.0,0.0,0.0,0.0,0.0,0.0,8.1671,8.2482,8.4271,8.5556,8.5554,8.6808,8.6719,8.3826,8.2241,7.9598,7.4524,0.0,0.0,0.0,0.0,0.0,0.0,0.0,0.0,0.0,0.0,0.0,0.0,0.0,0.0,0.0,0.0,0.0,0.0,0.0,0.0,0.0,0.0,0.0,0.0,0.0,0.0,0.0,6.8431,0.0,0.0,6.8545,0.0,0.0,0.0,0.0,0.0,0.0,0.0,0.0,0.0,0.0,0.0,0.0,0.0,0.0,0.0,0.0,0.0,0.0,0.0,0.0,0.0,0.0,8.6247,8.8833,10.0442,10.7672,11.0257,11.1057,11.0247,10.7749,10.4364,9.8517,8.9893,0.0,0.0,0.0,0.0,0.0,0.0,0.0,0.0,0.0,0.0,0.0,0.0,0.0,0.0,0.0,0.0,0.0,0.0,0.0,0.0,0.0,0.0,0.0,0.0,0.0,0.0,6.3918,6.3401,6.3215,0.0,0.0,0.0,0.0,0.0,0.0,0.0,0.0,0.0,7.4412,7.8978,8.2491,8.3379,8.5646,8.7214,8.7213,8.7993,8.7957,8.6198,8.3821,8.0431,0.0,0.0,0.0,0.0,0.0,0.0,0.0,0.0,0.0,0.0,0.0,0.0,0.0,0.0,0.0,0.0,0.0,0.0,0.0,0.0,0.0,0.0,0.0,0.0,0.0,0.0,0.0,7.3474,7.3474,0.0,0.0,0.0,0.0,0.0,0.0,0.0,0.0,0.0,0.0,0.0,8.0248,8.1937,0.0,0.0,0.0,0.0,0.0,0.0,0.0,0.0,0.0,0.0,0.0,0.0,8.7246,9.0671,10.0368,10.7062,11.0068,10.9406,10.8285,10.6862,10.3515,9.6976,8.6895,0.0,0.0,0.0,0.0,0.0,0.0,0.0,0.0,0.0,0.0,0.0,0.0,0.0,0.0,0.0,0.0,0.0,0.0,0.0,0.0,0.0,0.0,0.0,0.0,0.0,6.5164,0.0,0.0,0.0,0.0,0.0,0.0,0.0,0.0,0.0,0.0,0.0,7.4137,7.7499,8.089,8.3564,8.4976,8.6881,8.8139,0.0,0.0,0.0,0.0,0.0,0.0,0.0,0.0,0.0,0.0,0.0,0.0,0.0,0.0,8.1799,7.382,7.1662,7.1226,7.1518,0.0,0.0,0.0,0.0,0.0,0.0,0.0,0.0,0.0,0.0,0.0,0.0,0.0,0.0,7.7707,0.0,7.7517,0.0,0.0,0.0,0.0,0.0,0.0,0.0,0.0,8.348,8.5442,8.5478,8.7401,8.7169,0.0,8.4132,8.1441,0.0,0.0,0.0,0.0,0.0,0.0,0.0,0.0,8.7357,9.0973,9.9942,10.6064,10.8677,10.8098,10.7018,10.5518,10.1366,9.5055,8.6515,8.1866,7.6993,0.0,0.0,0.0,0.0,0.0,0.0,0.0,0.0,0.0,0.0,0.0,0.0,0.0,0.0,0.0,0.0,0.0,0.0,0.0,0.0,0.0,0.0,0.0,6.7264,0.0,0.0,0.0,0.0,0.0,0.0,0.0,0.0,0.0,7.2811,7.3897,7.618,8.0384,8.2661,8.4644,8.6635,0.0,0.0,0.0,0.0,0.0,0.0,0.0,8.2651,8.1172,7.97,7.8919,7.9665,8.2165,8.3888,8.3189,0.0,0.0,7.7051,7.5065,7.4583,7.4842,7.5389,7.59,7.6092,7.7575,7.8582,0.0,0.0,0.0,0.0,0.0,0.0,0.0,0.0,7.9136,8.1404,0.0,8.0712,0.0,0.0,0.0,0.0,0.0,7.99,0.0,0.0,9.0137,9.2866,9.1592,9.2402,9.1864,9.0203,8.9327,8.7136,8.3638,7.8015,0.0,0.0,0.0,0.0,0.0,0.0,8.6664,9.0316,9.925,10.4715,10.6359,10.7172,10.6367,10.3792,9.8218,9.3179,8.891,8.5446,8.096,7.5213,7.4809,0.0,0.0,0.0,0.0,0.0,0.0,0.0,0.0,0.0,0.0,0.0,0.0,0.0,0.0,0.0,0.0,0.0,0.0,0.0,0.0,6.9447,0.0,0.0,0.0,0.0,0.0,0.0,0.0,0.0,0.0,0.0,7.4916,7.6357,7.8893,8.3138,0.0,0.0,0.0,0.0,8.7821,8.9659,8.9045,8.876,8.9709,8.8422,8.6475,8.4156,0.0,0.0,8.3522,8.3933,8.4237,8.326,8.4125,8.4589,8.524,8.2942,8.1143,8.0353,7.9242,7.8148,7.7531,7.9356,8.0323,9.1287,0.0,0.0,0.0,0.0,8.3362,8.5788,8.9331,8.9368,8.9363,8.9207,8.6211,0.0,0.0,0.0,0.0,0.0,0.0,8.4595,8.8746,9.2174,9.5061,9.7562,9.8363,9.7901,9.6211,9.4826,9.2364,8.8979,8.5478,8.1095,7.5903,0.0,0.0,0.0,0.0,8.8942,9.3636,10.0409,10.4407,10.5446,10.5715,10.4638,10.2092,9.8637,9.479,9.0633,8.7788,8.415,7.9489,7.6948,0.0,0.0,0.0,0.0,0.0,0.0,0.0,0.0,0.0,0.0,0.0,0.0,0.0,0.0,0.0,0.0,0.0,0.0,0.0,7.1039,7.0534,6.9913,0.0,0.0,0.0,0.0,0.0,0.0,0.0,0.0,0.0,8.1769,8.1794,8.2984,0.0,0.0,8.8396,8.975,9.0213,9.0805,9.1914,9.1846,0.0,9.1258,8.9799,8.8616,8.8507,8.9105,8.9274,8.8394,8.9258,8.9672,8.8373,8.9215,8.9652,8.788,8.4885,8.2611,8.2173,8.2707,8.3446,8.3905,8.5878,8.7557,10.1327,9.5444,8.9599,8.8096,8.9667,9.0361,9.2559,9.5715,9.5367,9.5405,9.5439,9.1597,8.8365,8.5632,8.2287,0.0,0.0,0.0,8.9017,9.3787,9.6136,9.8788,10.1563,10.2445,10.1943,10.025,9.8596,9.6559,9.417,9.1637,8.8019,8.3326,0.0,0.0,8.0637,8.6096,9.1095,9.5523,10.1022,10.4446,10.56,10.4987,10.3558,10.1361,9.9173,9.6326,9.2828,9.0594,8.7303,8.2789,7.9702,7.7034,0.0,0.0,0.0,0.0,0.0,0.0,0.0,0.0,0.0,0.0,0.0,6.7187,6.7305,0.0,0.0,0.0,6.9565,7.0344,7.0621,7.045,0.0,0.0,0.0,0.0,0.0,0.0,0.0,7.5344,7.8344,8.1714,8.5631,8.6654,8.8017,9.0829,9.0648,9.0774,9.2301,0.0,9.2249,9.3809,9.3395,9.3025,9.3239,9.1854,9.0923,9.1433,9.179,9.2018,9.1867,9.2477,9.2645,9.2014,9.238,9.2405,9.0552,8.8496,8.6642,8.5455,8.6327,8.7387,8.7568,8.9813,9.167,11.0101,10.8521,9.8329,9.4711,9.5819,9.7286,9.8404,9.9216,9.8481,9.9788,10.2133,9.6675,9.4484,9.4525,8.925,0.0,8.9331,9.183,9.4749,9.8019,10.1212,10.3212,10.4138,10.4871,10.4369,10.2751,10.1219,10.0029,9.8983,9.6718,9.4756,9.2984,8.6827,8.3907,8.4563,8.9094,9.3208,9.6709,10.1445,10.4677,10.6128,10.4636,10.2981,10.1245,9.9558,9.7524,9.5104,9.3366,9.023,8.5453,8.268,7.9436,7.5388,0.0,0.0,0.0,0.0,0.0,0.0,0.0,0.0,0.0,0.0,0.0,0.0,0.0,0.0,0.0,7.057,0.0,6.9086,6.9779,0.0,0.0,0.0,7.0422,7.2819,7.3673,7.4774,7.6491,0.0,0.0,8.7396,9.0662,9.3233,9.4385,9.3156,9.3019,9.5396,9.3595,9.2789,9.5378,9.4274,9.3742,9.5131,9.4147,9.3084,9.3038,9.2952,9.2938,9.3406,9.3583,9.3575,9.3255,9.3559,9.3357,9.2523,9.2683,9.2735,8.945,8.9791,9.0285,8.9718,9.1467,9.304,11.3986,11.3371,10.8865,10.4979,10.1789,10.152,10.2212,10.3563,10.3371,10.3061,10.2404,9.9755,9.687,9.3946,9.3217,9.3099,9.3629,9.6134,9.875,10.1402,10.2904,10.4366,10.5785,10.6015,10.5559,10.4523,10.4102,10.314,10.1712,10.1096,9.9947,9.8293,9.6641,9.4023,9.0635,9.2871,9.6095,10.0089,10.2599,10.4102,10.4443,10.3441,10.2099,10.0447,9.8714,9.6944,9.5066,9.3407,9.1064,8.7916,8.4751,8.1672,7.8736,7.5939,0.0,0.0,0.0,0.0,0.0,0.0,0.0,0.0,0.0,6.8796,6.8866,0.0,6.9268,0.0,7.0762,7.1114,7.0794,7.142,0.0,0.0,7.3822,7.5087,7.6106,7.703,7.8409,8.0587,8.31,8.6098,8.9834,9.2154,9.4289,9.6381,9.5869,9.5688,9.6834,9.5993,9.5607,9.6675,9.6109,9.565,9.5885,9.5273,9.4296,9.3647,9.302,9.2425,9.1939,9.2385,9.2561,9.203,9.2871,9.3,9.1847,9.2681,9.3145,9.1973,9.231,9.2815,9.2616,9.3752,9.4703,11.7333,11.6715,11.3827,11.0983,10.8293,10.7095,10.729,10.837,10.7293,10.6254,10.5249,10.2868,10.0063,9.7173,9.7596,9.8019,9.8473,9.9865,10.1484,10.3176,10.3676,10.4597,10.579,10.5826,10.5751,10.5674,10.5674,10.4984,10.3753,10.3715,10.3063,10.1796,10.1409,9.9791,9.7132,9.756,9.9175,10.1861,10.3943,10.4828,10.4407,10.3597,10.2366,10.0676,9.8596,9.6175,9.3405,9.1328,8.925,8.7087,8.4125,8.1699,7.9862,7.7314,7.4899,0.0,0.0,0.0,0.0,0.0,0.0,0.0,0.0,0.0,0.0,0.0,7.0139,7.1122,7.1506,7.1809,7.2299,7.3021,7.3765,7.4642,7.6007,7.7403,7.8824,7.9825,8.13,8.3719,8.5509,8.7893,9.1328,9.2905,9.4801,9.764,9.7694,9.7711,9.8399,9.7933,9.7587,9.7975,9.7393,9.6523,9.5887,9.4975,9.4265,9.3737,9.2726,9.1953,9.2231,9.2414,9.2436,9.2396,9.3095,9.3434,9.2561,9.3346,9.4079,9.3889,9.4269,9.4511,9.3868,9.4484,9.5161,11.9985,11.8943,11.5676,11.4409,11.4327,11.2557,11.2057,11.2214,10.9903,10.8906,10.8713,10.5831,10.3635,10.2128,10.2128,10.2402,10.2943,10.2902,10.3289,10.391,10.3984,10.4371,10.4948,10.5064,10.5446,10.6054,10.6092,10.5672,10.4951,10.4951,10.4605,10.3871,10.3135,10.2789,10.2712,10.213,10.2171,10.2943,10.521,10.5977,10.5105,10.4294,10.2981,10.1015,9.8401,9.5091,9.1054,8.875,8.6738,8.4946,8.2879,8.1214,8.0015,7.8382,7.6634,0.0,7.4047,0.0,0.0,0.0,0.0,0.0,0.0,0.0,0.0,7.0928,7.1622,7.2886,7.2997,7.3254,7.3932,7.4784,7.5724,7.6573,7.7509,7.9048,8.1298,8.2398,8.3787,8.6041,8.7859,8.9936,9.2133,9.3366,9.527,9.7955,9.8785,9.9055,9.9671,9.918,9.87,9.8799,9.7984,9.672,9.5534,9.4391,9.3728,9.3565,9.2348,9.173,9.2971,9.272,9.2513,9.3105,9.3196,9.333,9.3484,9.4181,9.4824,9.4864,9.5538,9.5713,9.4597,9.4699,9.5135,12.0837,11.9831,11.7144,11.6448,11.6866,11.4519,11.2445,11.0601,10.9406,10.8906,10.8867,10.8254,10.7408,10.6518,10.6477,10.5792,10.4641,10.4638,10.4371,10.3907,10.4561,10.4605,10.4179,10.4794,10.4835,10.4407,10.4366,10.4292,10.414,10.4102,10.4064,10.3907,10.3756,10.3674,10.3676,0.0,0.0,0.0,10.5785,10.5977,10.51,10.4333,10.2445,9.9329,9.6136,0.0,8.9408,8.8714,8.7348,8.5069,8.5049,0.0,0.0,0.0,0.0,0.0,0.0,0.0,0.0,0.0,0.0,0.0,7.7063,7.5791,7.3353,7.4803,7.5833,7.557,7.6581,7.7099,7.6639,7.7966,7.9207,8.008,8.1467,8.2897,8.4107,8.5496,8.6673,8.7109,8.9243,9.1129,9.2398,9.4403,9.622,9.7592,9.8978,9.9565,9.911,9.8937,9.8808,9.8675,9.7526,9.6482,9.6086,9.4747,9.3679,9.3493,9.2296,9.1435,9.1656,9.1611,9.1445,9.1721,9.1674,9.1945,9.2619,9.338,9.4206,9.4869,9.569,9.6209,9.5901,9.5937,9.6045,12.2106,12.0757,11.8641,11.8026,0.0,11.5715,11.3912,11.2601,11.0903,10.948,10.8364,10.8713,10.8211,10.7054,10.7054,10.6592,10.5672,10.4907,10.4525,10.4487,10.4064,10.41,10.4484,10.4525,10.4525,10.4487,10.41,10.41,10.4446,10.4061,10.433,10.5095,10.4328,10.41,10.4489,10.491,10.5331,10.5713,10.6169,10.621,10.5713,10.4523,10.2676,10.0058,9.6749,0.0,0.0,0.0,0.0,0.0,0.0,0.0,0.0,8.0871,0.0,7.8011,7.7857,7.8246,7.9015,7.9124,7.9462,8.0291,8.0758,7.959,7.6319,7.7185,7.7916,7.7989,7.8687,7.9337,7.976,8.0932,8.2016,8.2902,8.4095,8.5178,8.6012,8.6884,8.7724,8.8564,8.9739,9.1168,9.2903,9.4095,9.5708,9.725,9.8232,9.8875,9.888,9.9175,9.9231,9.831,9.7149,9.6324,9.6129,9.4826,9.3674,9.348,9.1968,9.0907,9.1119,9.0845,9.0649,9.1045,9.1203,9.1481,9.2314,9.3151,9.3973,9.4832,9.569,9.6245,9.6283,9.6283,9.6283,12.3024,12.1222,11.9757,11.902,11.8674,11.6448,11.5451,11.5143,0.0,0.0,0.0,10.8908,10.8364,10.7054,10.6628,10.6397,10.6285,10.4674,10.4256,10.4833,10.3638,10.3638,10.4641,10.4292,10.4292,10.4602,10.3984,10.41,10.4833,10.4059,10.4443,10.571,10.4561,10.4371,10.5254,10.5484,10.5905,10.6592,10.6477,10.6323,10.6131,10.4674,10.2984,10.1132,9.7978,9.4054,8.9331,8.713,8.513,8.3289,8.2716,8.2611,8.2928,8.2852,8.2381,8.1631,8.1554,8.1941,8.2903,8.2969,8.309,8.3417,8.4089,8.2984,7.9473,7.9588,7.9994,8.0429,8.0713,8.1439,8.2637,8.3509,8.4316,8.5025,8.5843,8.6606,8.7279,8.7698,8.8442,8.9636,9.0365,9.1337,9.3362,9.4215,9.4973,9.6808,9.7677,9.7836,9.8476,9.9014,9.882,9.7284,9.6517,9.6245,9.5894,9.4778,9.3785,9.3595,9.1733,9.0451,9.0887,9.0609,9.0489,9.1086,9.1203,9.1561,9.2316,9.2997,9.3783,9.4606,9.5457,9.6086,9.6086,9.6204,9.6362,12.2678,12.0372,11.9485,11.8674,11.7905,11.6795,11.5951,11.5143,11.333,11.1939,11.0939,11.0293,10.9873,10.9524,10.7364,10.6397,10.6285,10.4674,10.3984,10.41,10.4525,10.41,10.3056,10.4292,10.4217,10.302,10.2866,10.3212,10.3871,10.3212,10.3292,10.4138,10.4025,10.4674,10.6172,10.698,10.7405,10.748,10.6785,10.6018,10.5292,10.4369,10.2717,10.0296,9.7711,9.4591,9.1015,9.0477,8.919,8.6856,8.7316,8.7024,8.5636,8.4918,8.4143,8.3322,8.3251,8.3905,8.544,8.5565,8.6205,8.7656,8.7944,8.6225,8.2265,8.3779,8.4484,8.3314,8.4231,8.5018,8.4707,8.5229,8.5703,8.5952,8.6689,8.7281,8.7512,8.8707,8.9641,9.0014,9.1882,9.3129,9.379,9.5441,9.6478,9.6742,9.748,9.8336,9.7836,9.7771,9.7136,9.5904,9.5916,9.5928,9.5262,9.4373,9.369,9.371,9.2167,9.0966,9.1165,9.1045,9.0966,9.1165,9.1203,9.1522,9.2275,9.2574,9.3097,9.3817,9.4695,9.5258,9.5375,9.5887,9.6523,12.2908,12.0988,12.0103,11.9523,11.9059,11.7753,11.6215,11.4563,11.3753,11.2673,11.1401,11.0096,10.9254,10.8713,10.7131,10.6397,10.6321,10.5136,10.4792,10.5249,10.5177,10.4946,10.471,10.4984,10.4677,10.3946,10.3522,10.3715,10.4407,10.3712,10.3982,10.5213,10.5713,10.6367,10.7054,10.748,10.7711,10.7675,10.6826,10.5979,10.5102,10.4292,10.2909,10.0827,9.8711,9.6288,9.3369,9.2364,9.0913,8.882,8.8709,8.835,8.7557,8.7154,8.68,8.6403,8.6369,8.6903,8.809,8.8611,8.9186,8.9983,9.0053,8.8891,8.5995,8.6396,8.6258,8.512,8.5701,8.5972,8.5589,8.5899,8.629,8.6764,8.7161,8.7771,8.8707,8.9814,9.076,9.1331,9.2697,9.3869,9.4369,9.541,9.6252,9.6285,9.7055,9.7293,9.6876,9.6431,9.5922,9.5183,9.4952,9.4728,9.4305,9.3593,9.3136,9.3045,9.2013,9.128,9.1203,9.1203,9.1203,9.1203,9.1203,9.1362,9.18,9.2219,9.2792,9.3561,9.4412,9.5018,9.5622,9.6365,9.687,12.3027,12.126,12.0562,12.0218,11.9911,11.8443,11.6635,11.4868,11.425,11.3288,11.1904,10.9867,10.8447,10.7636,10.6595,10.6208,10.6246,10.5484,10.5559,10.6285,10.571,10.5638,10.6054,10.5597,10.5295,10.5064,10.4446,10.4602,10.5215,10.4561,10.5023,10.6631,10.7749,10.8252,10.8249,10.8252,10.8172,10.7944,10.7133,10.6172,10.5102,10.4333,10.3138,10.163,10.0132,9.8331,9.6218,9.4523,9.29,9.1434,9.0562,9.0028,8.9868,9.0025,9.0021,8.9863,8.9639,8.9829,9.0443,9.1099,9.1563,9.1759,9.1759,9.1067,8.9449,8.8664,8.7702,8.6636,8.6403,8.648,8.6634,8.6521,8.6726,8.7559,8.785,8.8517,8.9716,9.0846,9.1697,9.2441,9.3337,9.4283,9.4831,9.5177,9.5636,9.6172,9.6283,9.6245,9.5973,9.5263,9.4722,9.4391,9.3993,9.3815,9.3645,9.3045,9.2679,9.2692,9.209,9.1676,9.1561,9.1522,9.1364,9.1285,9.1203,9.1244,9.1285,9.1902,9.2559,9.3061,9.4,9.524,9.6059,9.6641,9.7107,12.2678,12.0565,12.0372,11.9869,11.918,11.8212,11.7632,11.7055,11.5019,11.3948,11.3253,11.0329,10.8521,10.7559,10.5985,10.5713,10.6323,10.552,10.5559,10.6323,10.6321,10.5905,10.5446,10.5941,10.5867,10.5218,10.5064,10.552,10.6285,10.5484,10.5908,10.7598,10.9178,10.9908,10.995,10.995,10.9562,10.879,10.798,10.6792,10.5179,10.4294,10.3443,10.2517,10.1553,10.0635,9.9413,9.7983,9.6632,9.5747,9.4812,9.4047,9.3412,9.3964,9.4041,9.3215,9.2522,9.2183,9.2239,9.232,9.2709,9.3386,9.342,9.2712,9.1099,9.0832,8.9802,8.7955,8.7343,8.7615,8.8295,8.7728,8.7668,8.8617,8.922,8.975,9.0179,9.1364,9.2436,9.2491,9.3959,9.4916,9.5211,9.5752,9.6172,9.6247,9.6165,9.5928,9.5337,9.4509,9.3771,9.3233,9.3224,9.3613,9.3486,9.3022,9.2676,9.3154,9.2828,9.2262,9.2069,9.2112,9.2155,9.1323,9.1203,9.1203,9.1359,9.1864,9.2169,9.2473,9.3645,9.5322,9.6064,9.6403,9.6634,12.2905,12.1106,12.1065,12.0565,11.9754,11.8908,11.7984,11.691,11.5445,11.3945,11.2481,11.1019,10.967,10.8326,10.6633,10.6054,10.6362,10.6015,10.6056,10.6397,10.6397,10.621,10.5979,10.6746,10.6944,10.6677,10.6639,10.7062,10.7672,10.7485,10.7716,10.8447,10.9639,11.0447,11.0865,11.0447,11.0252,11.0401,10.8634,10.7328,10.66,10.5292,10.3943,10.2748,10.2248,10.1443,10.0144,9.8908,9.8134,9.7754,9.6961,9.6309,9.5944,9.5835,9.5378,9.4525,9.3676,9.3192,9.3184,9.368,9.3889,9.3733,9.417,9.3548,9.148,9.1648,9.1288,8.9908,8.8744,8.8363,8.8677,8.8385,8.8707,8.9915,9.0499,9.1045,9.2078,9.3225,9.3982,9.4043,9.5015,9.5964,9.6406,9.6763,9.6761,9.6362,9.5928,9.545,9.4979,9.4272,9.3651,9.3295,9.3133,9.2732,9.239,9.1997,9.1943,9.2084,9.1953,9.172,9.1803,9.1746,9.1561,9.1244,9.1206,9.1203,9.1203,9.1473,9.1778,9.2459,9.4084,9.5915,9.6247,9.6283,9.6482,12.3255,12.2029,12.1683,12.126,12.0603,11.9792,11.8603,11.7144,11.6108,11.4333,11.2247,11.1706,11.0673,10.9178,10.7518,10.6862,10.7015,10.6592,10.6556,10.6708,10.6749,10.6785,10.6862,10.7634,10.8021,10.8018,10.8018,10.8447,10.9178,10.9254,10.9444,10.9944,11.056,11.1329,11.2016,11.1522,11.1291,11.1285,10.9595,10.8441,10.7636,10.6446,10.4907,10.3138,10.271,10.1904,10.0486,9.9601,9.9139,9.9142,9.8746,9.844,9.8218,9.786,9.7057,9.5831,9.51,9.4738,9.4753,9.5319,9.5539,9.5184,9.5511,9.4832,9.3172,9.2982,9.2773,9.1905,9.0774,9.0086,8.9746,8.9735,9.0295,9.1422,9.1723,9.2434,9.3538,9.4455,9.4937,9.5068,9.5911,9.6815,9.7281,9.7254,9.684,9.6324,9.5808,9.5192,9.5011,9.4453,9.3966,9.3445,9.2861,9.2354,9.168,9.1402,9.1285,9.155,9.1686,9.1713,9.158,9.1572,9.1323,9.1402,9.1282,9.1242,9.1359,9.147,9.2432,9.3946,9.5262,9.61,9.6249,9.6285,9.6283,12.3595,12.2752,12.195,12.1568,12.1452,12.0565,11.9757,11.8718,11.7141,11.5487,11.3753,11.2324,11.1057,11.0103,10.8598,10.8098,10.8482,10.7169,10.6977,10.7595,10.7634,10.7636,10.7711,10.8444,10.8867,10.887,10.906,10.9447,11.018,11.0219,11.0983,11.2401,11.2481,11.2981,11.3676,11.3676,11.3019,11.1862,11.1285,11.0129,10.8057,10.7636,10.629,10.402,10.3097,10.2287,10.1284,10.0483,10.0065,10.0029,10.0611,10.069,10.0149,10.0596,9.9861,9.775,9.7326,9.728,9.7231,9.7314,9.7611,9.8161,9.7613,9.6958,9.5817,9.5107,9.4462,9.3717,9.3518,9.3136,9.245,9.2102,9.2201,9.2478,9.3145,9.357,9.3757,9.4722,9.4984,9.5328,9.6604,9.7534,9.7567,9.681,9.6634,9.6401,9.6245,9.5874,9.5145,9.4916,9.4269,9.3206,9.2678,9.2513,9.2354,9.168,9.1592,9.1785,9.1864,9.2217,9.2405,9.2362,9.1866,9.1481,9.1285,9.1282,9.1513,9.2436,9.3939,9.4973,9.5177,9.5729,9.6489,9.6365,9.6324,12.4136,12.2828,12.195,12.1609,12.1494,12.068,11.9834,11.8987,11.7869,11.6369,11.4948,11.4179,11.3137,11.1752,11.1173,11.0134,10.8906,10.8249,10.8175,10.8444,10.8482,10.8444,10.8636,10.9865,11.0214,10.9947,11.0829,11.148,11.1829,11.2368,11.2909,11.3404,11.3522,11.3984,11.4602,11.4256,11.3907,11.3753,11.2401,11.0788,10.9367,10.8252,10.6713,10.4792,10.4371,10.3558,10.2169,10.1868,10.1445,10.0904,10.1188,10.1424,10.1717,10.1979,10.125,9.9447,9.9139,9.892,9.8484,9.8886,9.9009,9.8762,9.8539,9.7991,9.7151,9.6341,9.588,9.605,9.6132,9.5788,9.4907,9.3977,9.3495,9.4016,9.4348,9.4816,9.5371,9.6086,9.66,9.6831,9.8055,9.8937,9.8399,9.806,9.768,9.7071,9.6165,9.5471,9.5134,9.5014,9.4575,9.3631,9.3271,9.3081,9.2495,9.1753,9.1359,9.1479,9.1597,9.1595,9.1706,9.1744,9.1362,9.1364,9.1206,9.1359,9.1667,9.2638,9.4301,9.5625,9.579,9.6189,9.6886,9.684,9.6562,12.4175,12.2867,12.195,12.176,12.1873,12.1103,12.0411,11.9795,11.8715,11.7253,11.5874,11.5412,11.4333,11.2904,11.2709,11.1862,11.0211,10.9867,10.9752,10.9749,10.998,11.0134,11.0365,11.1593,11.1983,11.1678,11.2522,11.325,11.3519,11.383,11.4404,11.5173,11.4753,11.4986,11.5753,11.5253,11.5028,11.491,11.356,11.2211,11.1021,10.9675,10.8098,10.6562,10.61,10.4982,10.3135,10.2751,10.2363,10.1825,10.1712,10.2092,10.2918,10.3241,10.264,10.1176,10.0909,10.0524,9.9791,10.0152,10.0214,9.9658,9.9339,9.893,9.8356,9.7589,9.7474,9.7774,9.7904,9.7634,9.7057,9.6066,9.539,9.5562,9.5881,9.6444,9.7035,9.7564,9.8017,9.8363,9.8966,9.9389,9.9245,9.8935,9.837,9.7626,9.6442,9.5808,9.5491,9.5412,9.5095,9.4305,9.3835,9.3285,9.2599,9.1787,9.1282,9.1364,9.1364,9.1244,9.1203,9.1203,9.1203,9.1203,9.1282,9.1513,9.2113,9.3005,9.4342,9.5904,9.6585,9.6899,9.722,9.7357,9.7261,12.3675,12.2867,12.1952,12.2065,12.2598,12.1873,12.1532,12.1145,11.9757,11.8141,11.6564,11.5756,11.4638,11.3135,11.3135,11.2824,11.2516,11.2096,11.1744,11.1593,11.2209,11.2516,11.2557,11.3407,11.3945,11.3909,11.4022,11.4522,11.5256,11.4871,11.5599,11.7058,11.6176,11.6333,11.7748,11.6833,11.6105,11.5566,11.514,11.4256,11.2824,11.1667,11.0326,10.8867,10.7944,10.6444,10.414,10.3212,10.2712,10.2561,10.2539,10.3015,10.3731,10.4531,10.4292,10.2828,10.2558,10.2133,10.132,10.1169,10.113,10.0923,10.0447,9.9957,9.9834,9.9178,9.8772,9.893,9.8945,9.8832,9.8791,9.8716,9.804,9.678,9.7531,9.8378,9.8554,9.8764,9.9139,9.9704,9.962,9.9298,9.9663,9.9447,9.8659,9.7872,9.7347,9.6917,9.6245,9.6086,9.5848,9.514,9.4455,9.3781,9.2785,9.1864,9.1554,9.1285,9.1244,9.1203,9.1203,9.1203,9.1203,9.1203,9.1203,9.1436,9.274,9.3636,9.4595,9.5901,9.6613,9.7421,9.7697,9.7901,9.8214,12.3944,12.3559,12.218,12.2103,12.2752,12.1988,12.1609,12.1491,12.0372,11.8985,11.7558,11.7135,11.6099,11.4945,11.5022,11.4986,11.4599,11.5289,11.4901,11.3558,11.3558,11.3673,11.383,11.4522,11.5217,11.564,11.5717,11.6179,11.6907,11.7292,11.8023,11.8443,11.8177,11.8179,11.8561,11.783,11.7215,11.6943,11.5871,11.4717,11.3558,11.2247,11.0942,10.9793,10.8444,10.7251,10.6523,10.5097,10.3792,10.2712,10.2616,10.2979,10.3965,10.5218,10.5172,10.3751,10.3484,10.2787,10.1512,10.1279,10.1279,10.1161,10.0565,10.0454,10.075,10.0183,9.9942,10.0356,10.0515,10.0325,9.9983,10.0791,10.0298,9.8273,9.8468,9.8956,9.9082,9.9358,10.0014,10.0723,10.0683,10.0685,10.0685,10.0185,9.9365,9.8522,9.7944,9.7314,9.66,9.6403,9.6245,9.5851,9.5088,9.4511,9.3939,9.317,9.247,9.1977,9.1674,9.1282,9.1244,9.1203,9.1203,9.1244,9.1244,9.1859,9.3124,9.4152,9.4988,9.5966,9.6863,9.7543,9.8135,9.8599,9.8959,12.4095,12.3944,12.2639,12.2562,12.3213,12.245,12.2257,12.2257,12.0949,11.9677,11.8792,11.8405,11.7523,11.6522,11.6756,11.6718,11.6369,11.7366,11.7132,11.602,11.5907,11.591,11.5948,11.6448,11.6948,11.7372,11.749,11.7756,11.8289,11.8828,11.9254,11.9446,11.9254,11.9061,11.9061,11.8561,11.8058,11.7328,11.6599,11.5794,11.4833,11.3599,11.2483,11.1524,10.9983,10.8862,10.8134,10.6792,10.5292,10.3869,10.3537,10.382,10.4385,10.53,10.5328,10.4212,10.352,10.2748,10.1515,10.1279,10.1279,10.12,10.0841,10.0764,10.1123,10.0764,10.0844,10.1161,10.1241,10.1092,10.0827,10.1712,10.1709,10.0471,10.0616,10.0527,10.0413,10.0368,10.0685,10.112,10.1238,10.1279,10.112,10.0923,10.0206,9.9392,9.882,9.8174,9.7427,9.6997,9.6913,9.6593,9.5733,9.5392,9.5365,9.4552,9.3543,9.2862,9.2296,9.1712,9.1362,9.1244,9.1203,9.1402,9.1443,9.226,9.3448,9.4104,9.4934,9.5964,9.7225,9.8165,9.8961,9.9452,9.9836,12.4136,12.3979,12.3287,12.329,12.379,12.3136,12.3133,12.3444,12.1485,12.0334,12.0062,11.9446,11.8674,11.7979,11.7828,11.7866,11.7979,11.8056,11.8597,11.8908,11.8987,11.8872,11.8603,11.8603,11.8677,11.8831,11.8985,11.91,11.9177,11.9408,11.9638,12.0254,11.9792,11.9331,11.9446,11.9254,11.8446,11.7449,11.7561,11.7328,11.649,11.5682,11.4797,11.3871,11.2134,11.0557,10.929,10.8175,10.6867,10.5407,10.4987,10.4933,10.5144,10.5164,10.4987,10.4138,10.321,10.2594,10.1746,10.1755,10.1676,10.1714,10.1556,10.1397,10.1438,10.1317,10.1161,10.1279,10.1279,10.1284,10.1361,10.2053,10.2431,10.2723,10.2751,10.2809,10.2467,10.1637,10.1279,10.1241,10.1279,10.1279,10.1279,10.1238,10.0764,10.006,9.9745,9.9307,9.8425,9.7754,9.7958,9.7367,9.65,9.6154,9.6086,9.5473,9.4505,9.386,9.3296,9.2715,9.202,9.1828,9.1783,9.1905,9.2069,9.2848,9.3606,9.4378,9.5438,9.6724,9.792,9.901,9.9653,9.9981,10.0372,12.4675,12.4098,12.3867,12.3559,12.3252,12.2941,12.3018,12.3056,12.1834,12.0875,12.0372,12.0103,11.9562,11.8828,11.8792,11.9059,11.9485,11.96,12.0103,12.0834,12.0955,12.0141,11.9334,11.9141,11.9177,11.9254,11.9757,11.9988,12.0023,12.0526,12.0952,12.1222,12.0952,12.0875,12.0872,12.0254,11.9831,11.9295,11.8831,11.8328,11.7481,11.6643,11.5797,11.4874,11.2788,11.1439,11.0673,10.9367,10.7826,10.6172,10.5407,10.5441,10.6005,10.6049,10.5636,10.4907,10.4523,10.4025,10.3343,10.3129,10.3141,10.3144,10.2501,10.227,10.2232,10.1637,10.1358,10.1279,10.1279,10.1279,10.1433,10.2092,10.2808,10.338,10.3239,10.2675,10.1976,10.1479,10.1279,10.1279,10.1279,10.1279,10.1279,10.1238,10.0803,9.9815,9.9714,9.9805,9.8846,9.8195,9.824,9.8048,9.7421,9.7036,9.6654,9.6156,9.5507,9.4862,9.4405,9.4095,9.3446,9.3029,9.3061,9.3174,9.3119,9.3669,9.426,9.4921,9.619,9.7534,9.8014,9.886,9.9629,10.0132,10.0538,12.4909,12.4095,12.4095,12.3636,12.2941,12.2902,12.2902,12.2713,12.1988,12.1337,12.0911,12.0834,12.0568,12.018,12.0144,12.0372,12.0798,12.0834,12.1106,12.1455,12.1532,12.0991,12.0334,12.0141,12.0141,12.018,12.0603,12.0795,12.0911,12.1375,12.1571,12.1532,12.1609,12.1417,12.0952,12.0991,12.0411,11.9908,11.9562,11.9177,11.8366,11.7872,11.7176,11.6256,11.4445,11.3173,11.167,11.0519,10.9219,10.777,10.6995,10.6944,10.7285,10.6705,10.6208,10.5636,10.5023,10.4335,10.4035,10.3899,10.3908,10.3742,10.3097,10.2871,10.2814,10.2073,10.1358,10.1835,10.1517,10.132,10.1438,10.2061,10.2777,10.3126,10.2886,10.2365,10.1873,10.1556,10.132,10.1279,10.1279,10.1279,10.1279,10.1279,10.0803,10.0293,10.0438,10.0154,9.9555,9.8942,9.8688,9.8856,9.8274,9.7656,9.7351,9.6894,9.6319,9.5672,9.5446,9.5174,9.4552,9.4023,9.3812,9.3848,9.4079,9.4484,9.5116,9.5905,9.7166,9.8127,9.832,9.8935,9.9983,10.0406,10.0815,12.5024,12.4216,12.4216,12.3713,12.2982,12.2902,12.2825,12.2598,12.1914,12.1571,12.1491,12.1571,12.1414,12.1609,12.126,12.1532,12.1529,12.1452,12.1491,12.1609,12.1609,12.1414,12.1337,12.126,12.1298,12.1337,12.1532,12.1491,12.1452,12.1571,12.1609,12.1609,12.1609,12.1222,12.0952,12.1222,12.0719,11.9988,12.0218,12.0023,11.9369,11.9061,11.86,11.7715,11.6605,11.4717,11.2904,11.1906,11.1227,10.954,10.9196,10.8906,10.8788,10.7513,10.6746,10.64,10.5479,10.4677,10.4251,10.441,10.4292,10.4248,10.3534,10.3152,10.3588,10.2732,10.2195,10.295,10.2104,10.1861,10.1904,10.2424,10.2809,10.3051,10.284,10.278,10.2544,10.1873,10.1279,10.1279,10.1279,10.1279,10.1279,10.1279,10.12,10.0408,10.0668,10.0587,10.0178,9.9709,9.993,10.0546,9.9531,9.8122,9.7896,9.7711,9.706,9.6485,9.6412,9.61,9.5308,9.4801,9.4355,9.4319,9.4867,9.5516,9.6184,9.7167,9.8144,9.8947,9.9291,10.0099,10.0945,10.094,10.1161,12.5912,12.5101,12.514,12.4255,12.3021,12.2902,12.2485,12.1876,12.1686,12.1609,12.1606,12.1606,12.1603,12.1609,12.1556,12.1609,12.1568,12.1609,12.1609,12.1609,12.1609,12.1609,12.1609,12.1609,12.1609,12.1609,12.1609,12.1609,12.1609,12.1609,12.1609,12.1609,12.1571,12.1491,12.1375,12.1414,12.1491,12.1106,12.1222,12.0834,12.0218,12.0026,11.9677,11.8792,11.7451,11.6028,11.491,11.4486,11.3953,11.2763,11.1183,11.0285,10.981,10.9011,10.8211,10.7557,10.7133,10.6518,10.5977,10.5746,10.5823,10.5628,10.4908,10.4618,10.471,10.3905,10.3708,10.4221,10.3856,10.3289,10.3256,10.3483,10.3567,10.356,10.3521,10.3521,10.3345,10.2287,10.1546,10.1356,10.1356,10.1317,10.1317,10.1279,10.1082,10.0649,10.0692,10.0935,10.0695,10.0368,10.07,10.1277,10.0154,9.8784,9.8786,9.8483,9.7795,9.7345,9.7275,9.7247,9.6455,9.6024,9.5818,9.5751,9.5892,9.6539,9.7307,9.7542,9.8356,9.9291,10.0224,10.0642,10.106,10.1207,10.1279,12.6874,12.545,12.5412,12.4447,12.2982,12.2485,12.2026,12.1645,12.1609,12.1609,12.1538,12.1455,12.1458,12.155,12.1455,12.144,12.1553,12.1609,12.1609,12.1609,12.1609,12.1609,12.1609,12.1609,12.1609,12.1609,12.1609,12.1609,12.1609,12.1609,12.1609,12.1609,12.1609,12.1571,12.1609,12.1609,12.1571,12.1532,12.1609,12.1337,12.0952,12.0875,12.0488,11.9792,11.8718,11.7756,11.6561,11.7295,11.6638,11.5294,11.3874,11.2327,11.1154,11.07,11.0093,10.906,10.8406,10.7903,10.721,10.6631,10.6321,10.64,10.5605,10.5515,10.524,10.4654,10.4621,10.5164,10.4997,10.4448,10.4451,10.4478,10.4378,10.3939,10.392,10.3895,10.3759,10.3057,10.2336,10.2079,10.1969,10.1664,10.151,10.1438,10.1279,10.0964,10.0926,10.1128,10.1166,10.0882,10.0923,10.0983,10.0178,9.956,9.9637,9.9296,9.8569,9.8242,9.8147,9.8139,9.7822,9.7594,9.7483,9.7308,9.7093,9.7744,9.8383,9.8533,9.8892,10.0053,10.0827,10.0983,10.1096,10.1243,10.1279,12.7791,12.595,12.572,12.4716,12.3252,12.2296,12.1799,12.1606,12.1527,12.1479,12.1479,12.1226,12.1286,12.1393,12.1323,12.1356,12.1518,12.1609,12.1609,12.1609,12.1609,12.1609,12.1609,12.1609,12.1609,12.1609,12.1609,12.1609,12.1609,12.1609,12.1609,12.1609,12.1609,12.1609,12.1609,12.1609,12.1609,12.1609,12.1609,12.1571,12.1494,12.1494,12.1103,12.0603,12.0334,11.9869,11.9212,11.9677,11.9564,11.7333,11.7218,11.5368,11.317,11.2209,11.2096,11.045,10.956,10.8754,10.7988,10.7336,10.6954,10.6754,10.6215,10.6146,10.6362,10.6008,10.6103,10.6333,10.6467,10.5756,10.5372,10.5548,10.5161,10.4679,10.4444,10.4421,10.4295,10.4257,10.3864,10.2967,10.2779,10.2543,10.2015,10.1717,10.1517,10.132,10.1317,10.1279,10.1279,10.1279,10.1241,10.1241,10.0555,10.0327,10.0404,9.993,9.9245,9.9108,9.8987,9.8988,9.9007,9.8858,9.8639,9.8392,9.8377,9.8867,9.9223,9.9428,10.0024,10.1056,10.1243,10.1207,10.1207,10.1279,10.1317,12.8291,12.8445,12.7066,12.5873,12.4793,12.3329,12.2251,12.161,12.1393,12.1214,12.1258,12.1163,12.1205,12.129,12.1464,12.1533,12.1553,12.1609,12.1609,12.1609,12.1609,12.1609,12.1609,12.1609,12.1609,12.1609,12.1609,12.1609,12.1683,12.1609,12.176,12.1648,12.1645,12.1683,12.1609,12.1609,12.1609,12.1609,12.1609,12.1609,12.1609,12.1571,12.1606,12.1372,12.1449,12.1562,12.1941,12.2095,12.1589,11.9962,12.0405,11.8363,11.5508,11.3703,11.2557,11.1522,11.0678,10.995,10.9111,10.8675,10.8496,10.8442,10.8302,10.8187,10.8298,10.8218,10.8236,10.8752,10.8598,10.7752,10.6323,10.6926,10.6808,10.641,10.6449,10.6597,10.6082,10.5808,10.5272,10.4133,10.3779,10.3272,10.2551,10.1986,10.1755,10.1517,10.1317,10.1279,10.1279,10.1279,10.1279,10.1281,10.1207,10.1094,10.1132,10.0498,9.9913,9.9918,9.9861,9.9861,9.9863,9.9896,9.9714,9.9433,9.9178,9.9233,9.962,10.0115,10.0531,10.113,10.1243,10.1279,10.1279,10.1317,10.143,12.9431,12.9083,12.7685,12.6587,12.5576,12.3739,12.2594,12.2062,12.2023,12.2032,12.1989,12.1863,12.1872,12.1883,12.1452,12.1434,12.1544,12.1609,12.1609,12.1609,12.1609,12.1609,12.1609,12.1609,12.1609,12.1609,12.1609,12.1876,12.2254,12.2296,12.2257,12.2293,12.2254,12.2065,12.1683,12.1609,12.1609,12.1609,12.1609,12.1609,12.1609,12.1609,12.176,12.2257,12.2678,12.3101,12.3444,12.4059,12.3358,12.1997,12.1595,12.0207,11.8162,11.6239,11.4555,11.3135,11.2368,11.1755,11.0922,11.0569,11.0246,11.0235,11.0231,10.9971,10.97,10.959,11.0054,11.0488,11.0647,10.9942,10.9208,10.9003,10.8542,10.799,10.8083,10.7898,10.7349,10.711,10.63,10.5254,10.4787,10.401,10.2777,10.2325,10.2068,10.1755,10.1438,10.1358,10.1438,10.1438,10.1476,10.1281,10.1281,10.1284,10.1284,10.0923,10.0524,10.0526,10.0565,10.0565,10.0606,10.0565,10.0534,10.0435,10.0178,9.98,10.0296,10.083,10.1058,10.1171,10.1243,10.1279,10.1279,10.1317,10.143,13.0493,12.9414,12.8113,12.7098,12.6069,12.3919,12.2691,12.2402,12.2448,12.2415,12.2443,12.244,12.2422,12.2263,12.1725,12.135,12.1606,12.1609,12.1609,12.1609,12.1609,12.1609,12.1609,12.1609,12.1609,12.1606,12.1952,12.2142,12.237,12.2675,12.2867,12.2787,12.2864,12.2598,12.2024,12.1722,12.1645,12.1609,12.1609,12.1609,12.1609,12.1802,12.2257,12.3139,12.3944,12.4329,12.4444,12.514,12.4465,12.3183,12.2346,12.1556,12.0308,11.9009,11.7286,11.5407,11.4638,11.3865,11.3261,11.2436,11.1998,11.199,11.2,11.1624,11.1322,11.1236,11.1214,11.1478,11.167,11.1327,11.0678,11.0825,11.0174,10.9427,10.9206,10.9063,10.8229,10.768,10.7308,10.6495,10.5833,10.4938,10.381,10.3405,10.3302,10.2785,10.247,10.2034,10.2034,10.1835,10.1755,10.1438,10.1279,10.1279,10.1279,10.1281,10.1002,10.0962,10.1002,10.1002,10.1082,10.1159,10.1089,10.0938,10.0786,10.0522,10.1053,10.1279,10.1243,10.1243,10.1281,10.1279,10.1317,10.1356,10.1433,13.07,13.0484,12.8803,12.7665,12.6593,12.4251,12.2721,12.2039,12.1932,12.1399,12.1434,12.2143,12.2248,12.17,12.1698,12.1604,12.1597,12.1536,12.1544,12.16,12.1541,12.1541,12.1609,12.1609,12.1683,12.1834,12.2408,12.2254,12.2447,12.2828,12.3018,12.3095,12.3095,12.2825,12.2713,12.2103,12.1609,12.1609,12.1645,12.1606,12.1722,12.2296,12.3059,12.3867,12.4524,12.5021,12.5101,12.5717,12.5192,12.3369,12.3491,12.2586,12.0769,12.0207,11.9523,11.8179,11.6641,11.5105,11.4986,11.4346,11.3854,11.3887,11.3835,11.3692,11.3396,11.311,11.2706,11.1513,11.2132,11.2173,11.1609,11.1772,11.1357,11.099,11.0696,11.0129,10.9251,10.8552,10.8141,10.7464,10.6762,10.6008,10.5067,10.4823,10.4579,10.4024,10.3497,10.3018,10.2624,10.2381,10.1873,10.1476,10.1279,10.1279,10.1279,10.1279,10.1279,10.1279,10.1279,10.1279,10.1279,10.1279,10.1279,10.1128,10.1015,10.0979,10.1166,10.1279,10.1279,10.1279,10.1279,10.1317,10.132,10.1394,10.1592,13.1698,13.0982,12.871,12.7568,12.7056,12.5217,12.3755,12.2811,12.2735,12.2491,12.2293,12.287,12.2836,12.2213,12.2299,12.2024,12.1654,12.1454,12.1446,12.1521,12.1473,12.1428,12.1544,12.1648,12.176,12.2331,12.2713,12.3098,12.3139,12.3796,12.4293,12.4175,12.3829,12.3595,12.3518,12.2754,12.2447,12.237,12.2296,12.2065,12.1988,12.2482,12.3326,12.4062,12.4136,12.4601,12.5335,12.564,12.5269,12.3842,12.3994,12.3414,12.2068,12.134,12.0798,12.0491,11.9103,11.8026,11.7449,11.6578,11.616,11.6113,11.6044,11.5942,11.545,11.4604,11.419,11.3769,11.3473,11.3211,11.2948,11.3282,11.2977,11.2659,11.2261,11.1401,11.0564,10.972,10.9085,10.837,10.769,10.701,10.6264,10.5667,10.5136,10.4397,10.4028,10.3756,10.3256,10.2796,10.2135,10.1397,10.1317,10.1279,10.1279,10.1279,10.1279,10.1279,10.1279,10.1279,10.1279,10.1279,10.1317,10.1317,10.1205,10.1205,10.132,10.1358,10.1435,10.1397,10.1279,10.1597,10.1953,10.2066,10.2453,13.2055,13.1145,12.8668,12.7537,12.7237,12.5709,12.4396,12.3506,12.3522,12.3414,12.3231,12.3378,12.3267,12.2979,12.2816,12.2454,12.1679,12.1425,12.147,12.1505,12.1457,12.1396,12.1639,12.1801,12.2449,12.2941,12.3559,12.3906,12.4486,12.514,12.5527,12.5412,12.4713,12.4444,12.4213,12.3675,12.3175,12.3172,12.3088,12.2828,12.2571,12.3094,12.3772,12.4151,12.4213,12.4332,12.5219,12.5758,12.5349,12.426,12.4071,12.3645,12.2745,12.1929,12.1494,12.126,12.0488,12.0103,11.9416,11.8697,11.8255,11.8131,11.8061,11.7566,11.6759,11.5538,11.4706,11.5036,11.4975,11.4948,11.5066,11.4758,11.4528,11.4104,11.3714,11.2829,11.1947,11.1016,11.0077,10.9267,10.8662,10.817,10.739,10.648,10.57,10.4859,10.4513,10.4375,10.3923,10.3397,10.2715,10.1943,10.1822,10.1707,10.1356,10.1356,10.1317,10.1438,10.1438,10.1397,10.1438,10.1435,10.1469,10.1433,10.151,10.1876,10.2232,10.1912,10.163,10.1856,10.2092,10.2424,10.2706,10.2852,10.3263,13.1123,13.088,12.8978,12.776,12.6957,12.4912,12.4127,12.3876,12.3645,12.3333,12.3118,12.3155,12.3272,12.3019,12.3155,12.2825,12.1928,12.188,12.1856,12.1856,12.1824,12.1675,12.1908,12.2531,12.3323,12.3376,12.4178,12.495,12.545,12.5989,12.595,12.5447,12.5216,12.5255,12.5063,12.4486,12.4062,12.3985,12.3866,12.3761,12.3807,12.4237,12.4814,12.5239,12.5826,12.6146,12.5489,12.5953,12.5797,12.432,12.4124,12.3879,12.31,12.2124,12.1648,12.1491,12.1452,12.1145,12.0763,11.9798,11.9128,11.9016,11.8875,11.8601,11.7996,11.7675,11.6886,11.5775,11.591,11.5838,11.5838,11.5797,11.5995,11.5324,11.4786,11.4135,11.3178,11.2186,11.1244,11.0253,10.9638,10.9231,10.8587,10.7713,10.6874,10.6041,10.5449,10.5308,10.4721,10.4154,10.3448,10.284,10.264,10.2251,10.1589,10.1628,10.202,10.2106,10.2073,10.1835,10.1676,10.1671,10.2066,10.212,10.2356,10.277,10.3098,10.2963,10.2868,10.2818,10.294,10.323,10.365,10.3946,10.4315,13.1054,13.0306,12.9601,12.8651,12.7493,12.6555,12.5443,12.4355,12.3964,12.406,12.4266,12.4432,12.4497,12.4408,12.3993,12.3515,12.2753,12.2453,12.2252,12.2208,12.2293,12.2328,12.2612,12.3167,12.4093,12.4432,12.5181,12.5758,12.622,12.6643,12.6527,12.6143,12.5781,12.5835,12.5681,12.5412,12.5066,12.4965,12.4754,12.4614,12.406,12.472,12.5192,12.5147,12.4866,12.532,12.537,12.5681,12.5418,12.4956,12.4441,12.4003,12.3494,12.2396,12.1766,12.1648,12.1645,12.1609,12.1449,12.0515,11.9899,11.971,11.945,11.9131,11.9029,11.8471,11.771,11.7125,11.7042,11.6891,11.6377,11.7169,11.7683,11.6569,11.5786,11.5253,11.4445,11.3415,11.2524,11.1648,11.0956,11.0428,10.9706,10.8906,10.8106,10.73,10.6751,10.6123,10.5459,10.491,10.4243,10.3684,10.3446,10.3243,10.2623,10.2707,10.2835,10.277,10.2701,10.2573,10.245,10.2905,10.3213,10.3225,10.318,10.3449,10.3731,10.4025,10.3943,10.3682,10.3692,10.3948,10.44,10.4964,10.5305,13.098,12.9754,12.9817,12.9214,12.8114,12.7566,12.6508,12.517,12.4483,12.4542,12.5192,12.5618,12.5456,12.5141,12.5095,12.4242,12.343,12.3021,12.2794,12.2873,12.3082,12.3131,12.3386,12.4018,12.5008,12.5452,12.5797,12.622,12.7025,12.7063,12.7063,12.6849,12.6451,12.6509,12.6377,12.6409,12.6255,12.6441,12.634,12.618,12.5614,12.604,12.6263,12.6002,12.5756,12.5628,12.587,12.6027,12.5956,12.5572,12.5104,12.4613,12.3938,12.3136,12.2195,12.1917,12.176,12.1609,12.1411,12.1133,12.0695,12.0627,12.0346,12.0181,11.9885,11.918,11.8647,11.8199,11.8169,11.7903,11.7267,11.8258,11.8609,11.7572,11.7001,11.6465,11.5602,11.4679,11.3863,11.3041,11.2319,11.1522,11.0931,11.009,10.8831,10.8036,10.7346,10.6677,10.5964,10.5497,10.5154,10.4666,10.4287,10.4084,10.3885,10.3659,10.3436,10.3379,10.3345,10.3491,10.3609,10.3983,10.4163,10.4108,10.4106,10.4159,10.4387,10.4708,10.4605,10.438,10.46,10.4943,10.5249,10.5738,10.5933,13.0725,12.913,12.938,12.9173,12.8533,12.7496,12.6781,12.6102,12.5189,12.4837,12.5115,12.6282,12.5751,12.4592,12.524,12.4747,12.3895,12.356,12.3527,12.3652,12.3956,12.3882,12.4264,12.5003,12.577,12.5683,12.602,12.6761,12.7671,12.7506,12.7614,12.7717,12.7376,12.7059,12.6834,12.7435,12.8202,12.8853,12.8496,12.8318,12.8164,12.7995,12.7617,12.7256,12.6998,12.6714,12.6454,12.6415,12.6418,12.6261,12.5586,12.5172,12.4965,12.3666,12.2885,12.2713,12.2065,12.1722,12.1609,12.1568,12.1449,12.137,12.1015,12.0976,12.05,12.0077,11.9742,11.9108,11.9046,11.9007,11.8975,11.9101,11.9128,11.87,11.8087,11.7672,11.6886,11.6069,11.5256,11.4434,11.345,11.2579,11.2093,11.1275,10.9749,10.8724,10.797,10.7272,10.6674,10.6044,10.5772,10.5664,10.529,10.4928,10.469,10.4262,10.3997,10.3982,10.4143,10.4446,10.4467,10.4541,10.4713,10.4903,10.4873,10.4774,10.509,10.5456,10.5286,10.5198,10.5682,10.6054,10.6282,10.6338,10.6354,13.0843,12.9835,12.9377,12.9069,12.8765,12.7921,12.7152,12.6357,12.5414,12.5081,12.546,12.5806,12.5726,12.5271,12.5081,12.5039,12.4508,12.4323,12.4347,12.3826,12.4588,12.4622,12.4905,12.5611,12.642,12.6332,12.6548,12.6891,12.7504,12.7631,12.7801,12.7863,12.7929,12.7567,12.7192,12.7438,12.7947,12.8446,12.8519,12.854,12.8336,12.8087,12.7759,12.7418,12.7288,12.7035,12.674,12.6695,12.6835,12.672,12.6006,12.5628,12.5409,12.4261,12.3506,12.3127,12.2485,12.2142,12.1799,12.1571,12.1571,12.1648,12.1568,12.1449,12.1133,12.0538,12.0198,11.9985,11.9928,11.9697,11.9232,12.0271,12.0381,11.9411,11.8878,11.8939,11.84,11.7551,11.6699,11.5907,11.4986,11.4071,11.3407,11.2744,11.1368,11.0101,10.9345,10.8562,10.7862,10.691,10.6321,10.6521,10.6372,10.5931,10.5533,10.551,10.5526,10.5597,10.5638,10.571,10.5613,10.5446,10.5512,10.5832,10.5589,10.5399,10.5665,10.5882,10.5981,10.6105,10.6472,10.648,10.6359,10.6335,10.6287,13.018,12.9222,12.8657,12.8576,12.8639,12.7761,12.6806,12.5942,12.541,12.5384,12.557,12.5839,12.5953,12.6067,12.6105,12.5536,12.5309,12.5195,12.4925,12.4328,12.5103,12.533,12.5573,12.6149,12.6693,12.6802,12.6881,12.7127,12.8254,12.8026,12.8157,12.838,12.82,12.7898,12.7647,12.7828,12.8148,12.866,12.8971,12.9122,12.8905,12.8575,12.7998,12.7567,12.7236,12.6875,12.6721,12.6848,12.7101,12.6909,12.664,12.6211,12.5941,12.5195,12.4411,12.3897,12.3367,12.3071,12.2707,12.2562,12.268,12.2639,12.2006,12.1609,12.1529,12.1094,12.0905,12.0763,12.0736,12.0464,12.0263,12.1414,12.1026,12.0059,11.9789,11.9851,11.9502,11.8611,11.807,11.7242,11.655,11.5673,11.4728,11.3992,11.3071,11.1914,11.0796,10.9976,10.9135,10.8064,10.7251,10.7413,10.7567,10.7247,10.7122,10.7201,10.7192,10.7246,10.7062,10.6867,10.6874,10.6672,10.6717,10.6567,10.6048,10.5785,10.6066,10.6267,10.6648,10.6813,10.6951,10.6836,10.6477,10.6333,10.6243,12.8923,12.7473,12.7284,12.7718,12.8149,12.7001,12.5857,12.4993,12.5578,12.5498,12.4967,12.7166,12.7052,12.6332,12.7473,12.7132,12.5915,12.5763,12.5472,12.5388,12.5705,12.5875,12.6309,12.6712,12.7247,12.742,12.7498,12.7811,12.9242,12.9146,12.9074,12.8878,12.8326,12.8052,12.8017,12.8004,12.8444,12.9036,12.946,12.9681,12.9694,12.949,12.8669,12.8064,12.7523,12.6961,12.6833,12.7109,12.7597,12.7755,12.7809,12.7806,12.7332,12.6311,12.5781,12.5134,12.4444,12.3971,12.3725,12.3651,12.3687,12.34,12.2577,12.1955,12.1802,12.184,12.1689,12.1532,12.1458,12.1455,12.1571,12.1529,12.1491,12.0982,12.0624,12.047,12.0234,11.9689,11.9228,11.8648,11.8077,11.7206,11.613,11.5325,11.4767,11.3907,11.2786,11.1596,11.0643,10.9241,10.8589,10.8495,10.8627,10.8627,10.8547,10.8297,10.8183,10.8016,10.7918,10.7767,10.7816,10.7767,10.7497,10.7097,10.634,10.6205,10.6706,10.7131,10.7596,10.7713,10.7726,10.7344,10.7064,10.6426,10.6228,13.029,12.8947,12.7128,12.6863,12.7339,12.5958,12.5402,12.562,12.5342,12.4967,12.4896,12.6142,12.629,12.5309,12.6218,12.6029,12.5574,12.5166,12.5248,12.5504,12.609,12.6672,12.7188,12.7575,12.8067,12.8115,12.8128,12.8283,12.9052,12.9473,12.97,12.9449,12.8779,12.8318,12.7935,12.7611,12.8623,12.9344,12.977,12.9957,12.9916,12.9529,12.8751,12.8177,12.7687,12.7035,12.6786,12.7474,12.7972,12.798,12.8566,12.864,12.7791,12.7341,12.6895,12.5412,12.4639,12.403,12.392,12.3997,12.4104,12.4077,12.3527,12.3515,12.326,12.2905,12.2556,12.226,12.1914,12.1775,12.1586,12.1491,12.1411,12.1171,12.0953,12.0906,12.0665,12.0423,11.9985,11.9707,11.914,11.8463,11.7436,11.6946,11.6385,11.5712,11.4797,11.3535,11.2189,11.0813,11.0136,11.0059,10.9749,10.9804,10.9173,10.8832,10.8784,10.87,10.8677,10.8655,10.8662,10.8535,10.8195,10.7677,10.7066,10.7132,10.7535,10.8036,10.8669,10.8593,10.8567,10.8072,10.7572,10.7051,10.6649,12.9767,12.8615,12.6825,12.6142,12.6223,12.5953,12.5763,12.5498,12.5005,12.493,12.5304,12.5843,12.5915,12.6071,12.6711,12.6711,12.5991,12.6037,12.6084,12.6284,12.6396,12.6905,12.7494,12.7857,12.8325,12.8544,12.8884,12.8978,12.9564,12.9711,12.9861,13.0211,12.944,12.8834,12.8514,12.8578,12.8893,12.9397,12.9686,12.9702,12.9542,12.9206,12.861,12.8277,12.7859,12.7246,12.6974,12.7912,12.8543,12.8603,12.9246,12.9516,12.8749,12.8345,12.7639,12.6289,12.554,12.4991,12.4756,12.4722,12.4632,12.4595,12.4693,12.4775,12.4388,12.3915,12.3324,12.2817,12.2283,12.1857,12.1621,12.1411,12.1251,12.1094,12.1163,12.1262,12.1117,12.0935,12.0739,12.0536,12.0063,11.9466,11.8895,11.846,11.7936,11.716,11.6347,11.5309,11.3894,11.2475,11.1933,11.1796,11.1325,11.097,11.0297,10.9905,11.0094,11.0069,10.9577,10.9593,10.9573,10.9066,10.8446,10.8169,10.7905,10.8114,10.8473,10.9209,10.9745,10.9775,10.9914,10.9716,10.9111,10.8157,10.7753,12.8139,12.7435,12.6488,12.5801,12.5271,12.6602,12.6412,12.5085,12.5043,12.5233,12.5763,12.5949,12.6298,12.645,12.7132,12.7246,12.6715,12.6568,12.6609,12.717,12.6464,12.6722,12.7173,12.7117,12.8099,12.9184,12.9821,12.9734,13.0555,13.0753,13.072,13.1057,13.0109,12.9503,12.9389,12.9128,12.9204,12.923,12.929,12.9286,12.95,12.9156,12.8686,12.8719,12.8317,12.7815,12.7988,12.8758,12.9794,12.9773,13.0125,13.0705,12.9969,12.8899,12.7995,12.7323,12.6511,12.6172,12.5773,12.5638,12.5562,12.5686,12.5979,12.5582,12.4938,12.4265,12.3545,12.287,12.2317,12.1655,12.1287,12.1094,12.0938,12.0869,12.0903,12.1016,12.0969,12.0979,12.114,12.0901,12.0563,12.0004,11.9676,11.9163,11.8667,11.8191,11.7469,11.6577,11.5529,11.4048,11.3397,11.3219,11.2391,11.1925,11.2055,11.1763,11.1838,11.1591,11.0871,11.0775,11.0996,10.9984,10.86,10.8873,10.921,10.9201,10.9539,11.0419,11.1268,11.1686,11.1735,11.1557,11.0821,10.9822,10.8781,12.8513,12.8156,12.7322,12.6867,12.6749,12.7132,12.7094,12.6635,12.5991,12.546,12.5266,12.565,12.5801,12.5801,12.6484,12.6597,12.6488,12.6517,12.6573,12.6722,12.6451,12.6543,12.728,12.6988,12.7943,12.9087,12.9869,13.0627,13.1609,13.1765,13.1629,13.1781,13.0753,12.992,12.9882,12.9469,12.9099,12.9132,12.9355,12.9393,12.9616,12.9583,12.9325,12.8991,12.8525,12.8375,12.8582,12.9196,13.0153,13.0715,13.184,13.1846,13.1031,12.9407,12.8494,12.7945,12.7265,12.6996,12.6741,12.6298,12.5932,12.5986,12.5968,12.5395,12.4823,12.4195,12.3517,12.2846,12.2223,12.1583,12.0971,12.0785,12.0619,12.0621,12.0649,12.0738,12.081,12.1135,12.1391,12.1169,12.0861,12.0543,12.0207,11.9808,11.9351,11.8748,11.8017,11.7246,11.6611,11.5491,11.4382,11.3924,11.3001,11.269,11.304,11.3123,11.2893,11.2667,11.2003,11.2096,11.2304,11.1255,11.0176,11.0477,11.0741,11.0693,11.1022,11.2063,11.2816,11.324,11.3236,11.2937,11.2853,11.2073,11.0641,12.7834,12.7326,12.6521,12.6408,12.6673,12.6715,12.6715,12.6639,12.6218,12.5532,12.4892,12.5229,12.538,12.5266,12.5839,12.5987,12.5991,12.6029,12.6264,12.6429,12.6408,12.652,12.6637,12.6732,12.8185,12.9321,13.0683,13.1751,13.2634,13.2424,13.2236,13.2463,13.1284,13.0336,13.0223,12.9549,12.9061,12.9132,12.9616,12.9806,12.9839,12.973,12.9743,12.9374,12.9459,12.9288,12.9304,12.9845,13.054,13.1353,13.2202,13.2341,13.155,13.0363,12.9331,12.8567,12.7925,12.741,12.7238,12.6709,12.6029,12.6105,12.5831,12.5218,12.483,12.418,12.3337,12.2719,12.261,12.2003,12.0946,12.0534,12.037,12.0331,12.0456,12.0533,12.0885,12.1266,12.123,12.0952,12.0686,12.0517,12.0216,12.0079,11.9667,11.9416,11.8666,11.8176,11.7504,11.6862,11.5787,11.4859,11.4051,11.3577,11.375,11.375,11.3522,11.3265,11.3011,11.2873,11.2778,11.2287,11.1834,11.1821,11.1895,11.2069,11.2619,11.3298,11.405,11.4484,11.4421,11.4234,11.4165,11.3952,11.2559,12.6639,12.5763,12.5233,12.5384,12.5953,12.618,12.6142,12.6029,12.5991,12.5532,12.4854,12.4816,12.5271,12.565,12.5877,12.5911,12.5964,12.6077,12.6209,12.5983,12.5766,12.5828,12.5884,12.6043,12.7626,12.9525,13.1228,13.2418,13.3485,13.3067,13.2911,13.3162,13.2383,13.1284,13.0943,13.0412,12.9924,12.9848,12.9995,12.9995,12.9957,12.9886,12.9934,13.0231,13.0522,13.0388,13.0333,13.063,13.1163,13.1896,13.2562,13.2485,13.198,13.0971,13.0066,12.9132,12.8312,12.7955,12.764,12.6772,12.6354,12.6076,12.5574,12.5077,12.4681,12.4181,12.3356,12.2839,12.2728,12.2279,12.1225,12.0672,12.053,12.0442,12.0608,12.0642,12.1105,12.1428,12.1059,12.074,12.0531,12.0387,12.0198,12.0115,11.9943,11.9725,11.9439,11.9036,11.8497,11.7847,11.7006,11.6168,11.5418,11.5019,11.4797,11.4325,11.4113,11.397,11.3754,11.3527,11.3212,11.2775,11.2597,11.2725,11.2854,11.3044,11.3445,11.4007,11.4758,11.5458,11.5302,11.5074,11.5043,11.4738,11.4037,12.5759,12.5077,12.5536,12.5877,12.6067,12.6673,12.6677,12.6067,12.5991,12.5536,12.4967,12.4816,12.4967,12.5043,12.5043,12.5224,12.5644,12.5896,12.5748,12.5472,12.5472,12.5286,12.5297,12.5734,12.692,12.893,13.1091,13.2388,13.3238,13.3375,13.37,13.4233,13.3553,13.2615,13.1895,13.1326,13.0758,13.0678,13.0488,13.045,13.1057,13.0762,12.9937,12.9934,12.9972,13.0481,13.1031,13.1596,13.2614,13.3329,13.3351,13.3019,13.227,13.1295,13.0282,12.962,12.8788,12.8787,12.8329,12.7085,12.6614,12.6691,12.5983,12.4698,12.4483,12.4534,12.3714,12.287,12.2698,12.2559,12.1848,12.1806,12.1709,12.1626,12.165,12.1597,12.1806,12.1448,12.0961,12.0654,12.0403,12.0186,11.9934,11.9892,11.9892,11.972,11.972,11.9317,11.8914,11.8455,11.808,11.749,11.6749,11.6361,11.6025,11.5067,11.4691,11.4593,11.4425,11.4105,11.3733,11.3321,11.3259,11.3711,11.3763,11.384,11.4306,11.4935,11.5225,11.5821,11.5914,11.5876,11.5885,11.5848,11.5418]},{"header":{"parameterUnit":"m.s-1","parameterCategory":1,"la1":31.0,"la2":29.5877,"lo1":-88.7671,"lo2":-86.6584,"dy":0.0162,"dx":0.0185,"nx":115,"ny":88,"refTime":"2024-02-16T06:00:00:Z","depth":0,"parameterNumber":3,"parameterNumberName":"V-component_of_WINDS"},"data":[0.0,0.0,0.0,0.0,0.0,0.0,0.0,0.0,0.0,0.0,0.0,0.0,0.0,0.0,0.0,0.0,0.0,0.0,0.0,0.0,0.0,0.0,0.0,0.0,0.0,0.0,0.0,0.0,0.0,0.0,0.0,0.0,0.0,0.0,0.0,0.0,0.0,0.0,0.0,0.0,0.0,0.0,0.0,0.0,0.0,0.0,0.0,0.0,0.0,0.0,0.0,0.0,0.0,0.0,0.0,0.0,0.0,0.0,0.0,0.0,0.0,0.0,0.0,0.0,0.0,0.0,0.0,0.0,0.0,0.0,0.0,0.0,0.0,0.0,0.0,0.0,0.0,0.0,0.0,0.0,0.0,0.0,0.0,0.0,0.0,0.0,0.0,0.0,0.0,0.0,0.0,0.0,0.0,0.0,0.0,0.0,0.0,0.0,0.0,0.0,0.0,0.0,0.0,0.0,0.0,0.0,0.0,0.0,0.0,0.0,0.0,0.0,0.0,0.0,0.0,0.0,0.0,0.0,0.0,0.0,0.0,0.0,0.0,0.0,0.0,0.0,0.0,0.0,0.0,0.0,0.0,0.0,0.0,0.0,0.0,0.0,0.0,0.0,0.0,0.0,0.0,0.0,0.0,0.0,0.0,0.0,0.0,0.0,0.0,0.0,0.0,0.0,0.0,0.0,0.0,0.0,0.0,0.0,0.0,0.0,0.0,0.0,0.0,0.0,0.0,0.0,0.0,0.0,0.0,0.0,0.0,0.0,0.0,0.0,0.0,0.0,0.0,0.0,0.0,0.0,0.0,0.0,0.0,0.0,0.0,0.0,0.0,0.0,0.0,0.0,0.0,0.0,0.0,0.0,0.0,0.0,0.0,0.0,0.0,0.0,0.0,0.0,0.0,0.0,0.0,0.0,0.0,0.0,0.0,0.0,0.0,0.0,0.0,0.0,0.0,0.0,0.0,0.0,0.0,0.0,0.0,0.0,0.0,0.0,0.0,0.0,0.0,0.0,0.0,0.0,0.0,0.0,0.0,0.0,0.0,0.0,0.0,0.0,0.0,0.0,0.0,0.0,0.0,0.0,0.0,0.0,0.0,0.0,0.0,0.0,0.0,0.0,0.0,0.0,0.0,0.0,0.0,0.0,0.0,0.0,0.0,0.0,0.0,0.0,0.0,0.0,0.0,0.0,0.0,0.0,0.0,0.0,0.0,0.0,0.0,0.0,0.0,0.0,0.0,0.0,0.0,0.0,0.0,0.0,0.0,0.0,0.0,0.0,0.0,0.0,0.0,0.0,0.0,0.0,0.0,0.0,0.0,0.0,0.0,0.0,0.0,0.0,0.0,0.0,0.0,0.0,0.0,0.0,0.0,0.0,0.0,0.0,0.0,0.0,0.0,0.0,0.0,0.0,0.0,0.0,0.0,0.0,0.0,0.0,0.0,0.0,0.0,0.0,0.0,0.0,0.0,0.0,0.0,0.0,0.0,0.0,0.0,0.0,0.0,0.0,0.0,0.0,0.0,0.0,0.0,0.0,0.0,0.0,0.0,0.0,0.0,0.0,0.0,0.0,0.0,0.0,0.0,0.0,0.0,0.0,0.0,0.0,0.0,0.0,0.0,0.0,0.0,0.0,0.0,0.0,0.0,0.0,0.0,0.0,0.0,0.0,0.0,0.0,0.0,0.0,0.0,0.0,0.0,0.0,0.0,0.0,0.0,0.0,0.0,0.0,0.0,0.0,0.0,0.0,0.0,0.0,0.0,0.0,0.0,0.0,0.0,0.0,0.0,0.0,0.0,0.0,0.0,0.0,0.0,0.0,0.0,0.0,0.0,0.0,0.0,0.0,0.0,0.0,0.0,0.0,0.0,0.0,0.0,0.0,0.0,0.0,0.0,0.0,0.0,0.0,0.0,0.0,0.0,0.0,0.0,0.0,0.0,0.0,0.0,0.0,0.0,0.0,0.0,0.0,0.0,0.0,0.0,0.0,0.0,0.0,0.0,0.0,0.0,0.0,0.0,0.0,0.0,0.0,0.0,0.0,0.0,0.0,0.0,0.0,0.0,0.0,0.0,0.0,0.0,0.0,0.0,0.0,0.0,0.0,0.0,0.0,0.0,0.0,0.0,0.0,0.0,0.0,0.0,0.0,0.0,0.0,0.0,0.0,0.0,0.0,0.0,0.0,0.0,0.0,0.0,0.0,0.0,0.0,0.0,0.0,0.0,0.0,0.0,0.0,0.0,0.0,0.0,0.0,0.0,0.0,0.0,0.0,0.0,0.0,0.0,0.0,0.0,0.0,0.0,0.0,0.0,0.0,0.0,0.0,0.0,0.0,0.0,0.0,0.0,0.0,0.0,0.0,0.0,0.0,0.0,0.0,0.0,0.0,0.0,0.0,0.0,0.0,0.0,0.0,0.0,0.0,0.0,0.0,0.0,0.0,0.0,0.0,0.0,0.0,0.0,0.0,0.0,0.0,0.0,0.0,0.0,0.0,0.0,0.0,0.0,0.0,0.0,0.0,0.0,0.0,0.0,0.0,0.0,0.0,0.0,0.0,0.0,0.0,0.0,0.0,0.0,0.0,0.0,0.0,0.0,0.0,0.0,0.0,0.0,0.0,0.0,0.0,0.0,0.0,0.0,0.0,0.0,0.0,0.0,0.0,0.0,0.0,0.0,0.0,0.0,0.0,0.0,0.0,0.0,0.0,0.0,0.0,0.0,0.0,0.0,0.0,0.0,0.0,0.0,0.0,0.0,0.0,0.0,0.0,0.0,0.0,0.0,0.0,0.0,0.0,0.0,0.0,0.0,0.0,0.0,0.0,0.0,0.0,0.0,0.0,0.0,0.0,0.0,0.0,0.0,0.0,0.0,0.0,0.0,0.0,0.0,0.0,0.0,0.0,0.0,0.0,0.0,0.0,0.0,0.0,0.0,0.0,0.0,0.0,0.0,0.0,0.0,0.0,0.0,0.0,0.0,0.0,0.0,0.0,0.0,0.0,0.0,0.0,0.0,0.0,0.0,0.0,0.0,0.0,0.0,0.0,0.0,0.0,0.0,0.0,0.0,0.0,0.0,0.0,0.0,0.0,0.0,0.0,0.0,0.0,0.0,0.0,0.0,0.0,0.0,0.0,0.0,0.0,0.0,0.0,0.0,0.0,0.0,0.0,0.0,0.0,0.0,0.0,0.0,0.0,0.0,0.0,0.0,0.0,0.0,0.0,0.0,0.0,0.0,0.0,0.0,0.0,0.0,0.0,0.0,0.0,0.0,0.0,0.0,0.0,0.0,0.0,0.0,0.0,0.0,0.0,0.0,0.0,0.0,0.0,0.0,0.0,0.0,0.0,0.0,0.0,0.0,0.0,0.0,0.0,0.0,0.0,0.0,0.0,0.0,0.0,0.0,0.0,0.0,0.0,0.0,0.0,0.0,0.0,0.0,0.0,0.0,0.0,0.0,0.0,0.0,0.0,0.0,0.0,0.0,0.0,0.0,0.0,0.0,0.0,0.0,0.0,0.0,0.0,0.0,0.0,0.0,0.0,0.0,0.0,0.0,0.0,0.0,0.0,0.0,0.0,0.0,0.0,0.0,0.0,0.0,0.0,0.0,0.0,0.0,0.0,0.0,0.0,0.0,0.0,0.0,0.0,0.0,0.0,0.0,0.0,0.0,0.0,0.0,0.0,0.0,0.0,0.0,0.0,0.0,0.0,0.0,0.0,0.0,0.0,0.0,0.0,0.0,0.0,0.0,0.0,0.0,0.0,0.0,0.0,0.0,0.0,0.0,0.0,0.0,0.0,0.0,0.0,0.0,0.0,0.0,0.0,0.0,0.0,0.0,0.0,0.0,0.0,0.0,0.0,0.0,0.0,0.0,0.0,0.0,0.0,0.0,0.0,0.0,0.0,0.0,0.0,0.0,0.0,0.0,0.0,0.0,0.0,0.0,0.0,0.0,0.0,0.0,0.0,0.0,0.0,0.0,0.0,0.0,0.0,0.0,0.0,0.0,0.0,0.0,0.0,0.0,0.0,0.0,0.0,0.0,0.0,0.0,0.0,0.0,0.0,0.0,0.0,0.0,0.0,0.0,0.0,0.0,0.0,0.0,0.0,0.0,0.0,0.0,0.0,0.0,0.0,0.0,0.0,0.0,0.0,0.0,0.0,0.0,0.0,0.0,0.0,0.0,0.0,0.0,0.0,0.0,0.0,0.0,0.0,0.0,0.0,0.0,0.0,0.0,0.0,0.0,0.0,0.0,0.0,0.0,0.0,0.0,0.0,0.0,0.0,0.4015,0.0,0.0,0.0,0.0,0.0,0.0,0.0,0.0,0.0,0.0,0.0,0.0,0.0,0.0,0.0,0.0,0.0,0.0,0.0,0.0,0.0,0.0,0.0,0.0,0.0,0.0,0.0,0.0,0.0,0.0,0.0,0.0,0.0,0.0,0.0,0.0,0.0,0.0,0.0,0.0,0.0,0.0,0.0,0.0,0.0,0.0,0.0,0.0,0.0,0.0,0.0,0.0,0.0,0.0,0.0,0.0,0.0,0.0,0.0,0.0,0.0,0.0,0.0,0.0,0.0,0.0,0.0,0.0,0.0,0.0,0.0,0.0,0.0,0.0,0.0,0.0,0.0,0.0,0.0,0.0,0.0,0.0,0.0,0.0,0.0,0.0,0.0,0.0,0.0,0.0,0.0,0.0,0.0,0.0,0.0,0.0,0.0,0.0,0.0,0.0,0.0,0.0,0.0,0.0,0.0,0.0,0.0,0.0,0.0,0.0,0.4278,0.4242,0.401,0.395,0.4109,0.0,0.0,0.0,0.0,0.0,0.0,0.0,0.0,0.0,0.0,0.0,0.0,0.0,0.0,0.0,0.0,0.0,0.0,0.0,0.0,0.0,0.0,0.0,0.0,0.0,0.0,0.0,0.0,0.0,0.0,0.0,0.0,0.0,0.0,0.0,0.0,0.0,0.0,0.0,0.0,0.0,0.0,0.0,0.0,0.0,0.0,0.0,0.0,0.0,0.0,0.0,0.0,0.0,0.0,0.0,0.0,0.0,0.0,0.0,0.0,0.0,0.0,0.0,0.0,0.0,0.0,0.0,0.0,0.0,0.0,0.0,0.0,0.0,0.0,0.0,0.0,0.0,0.0,0.0,0.0,0.0,0.0,0.0,0.0,0.0,0.0,0.0,0.0,0.0,0.0,0.0,0.0,0.0,0.0,0.0,0.0,0.0,0.0,0.0,0.0,0.0,0.0,0.0,0.0,0.0,0.0,0.0,0.0,0.0,0.0,0.0,0.0,0.4073,0.3999,0.4223,0.0,0.0,0.0,0.0,0.0,0.0,0.0,0.0,0.0,0.0,0.0,0.0,0.0,0.0,0.0,0.0,0.0,0.0,0.0,0.0,0.0,0.0,0.0,0.0,0.0,0.0,0.0,0.0,0.0,0.0,0.0,0.0,0.0,0.0,0.0,0.0,0.0,0.0,0.0,0.0,0.0,0.0,0.0,0.0,0.0,0.0,0.0,0.0,0.0,0.0,0.0,0.0,0.0,0.0,0.0,0.0,0.0,0.0,0.0,0.0,0.0,0.0,0.0,0.0,0.0,0.0,0.0,0.0,0.0,0.0,0.0,0.0,0.0,0.0,0.0,0.0,0.0,0.0,0.0,0.0,0.0,0.0,0.0,0.0,0.0,0.0,0.0,0.0,0.0,0.0,0.0,0.0,0.0,0.0,0.0,0.0,0.0,0.0,0.0,0.0,0.0,0.0,0.0,0.0,0.0,0.0,0.0,0.0,0.0,0.0,0.4445,0.4749,0.46,0.0,0.4347,0.0,0.0,0.0,0.0,0.0,0.0,0.0,0.0,0.0,0.0,0.0,0.0,0.0,0.0,0.0,0.0,0.0,0.0,0.0,0.0,0.0,0.0,0.0,0.0,0.0,0.0,0.0,0.0,0.0,0.0,0.0,0.0,0.0,0.0,0.0,0.0,0.0,0.0,0.0,0.0,0.0,0.0,0.0,0.0,0.0,0.0,0.0,0.0,0.0,0.0,0.0,0.0,0.0,0.0,0.0,0.0,0.0,0.0,0.0,0.0,0.0,0.0,0.0,0.0,0.0,0.0,0.0,0.0,0.0,0.0,0.0,0.0,0.0,0.0,0.0,0.0,0.0,0.0,0.0,0.0,0.0,0.0,0.0,0.0,0.0,0.0,0.0,0.0,0.0,0.0,0.0,0.0,0.0,0.0,0.0,0.0,0.0,0.0,0.0,0.0,0.0,0.0,0.0,0.0,0.0,0.0,0.0,0.0,0.0,0.0,0.4538,0.4786,0.4719,0.4557,0.0,0.0,0.0,0.0,0.0,0.0,0.0,0.0,0.0,0.0,0.0,0.0,0.0,0.0,0.0,0.0,0.0,0.0,0.0,0.0,0.0,0.0,0.0,0.0,0.0,0.0,0.0,0.0,0.0,0.0,0.0,0.0,0.0,0.0,0.0,0.0,0.0,0.0,0.0,0.0,0.0,0.0,0.0,0.0,0.0,0.0,0.0,0.0,0.0,0.0,0.0,0.0,0.0,0.0,0.0,0.0,0.0,0.0,0.0,0.0,0.0,0.0,0.0,0.0,0.0,0.0,0.0,0.0,0.0,0.0,0.0,0.0,0.0,0.0,0.0,0.0,0.0,0.0,0.0,0.0,0.0,0.0,0.0,0.0,0.0,0.0,0.0,0.0,0.0,0.0,0.0,0.0,0.0,0.0,0.0,0.0,0.0,0.0,0.0,0.0,0.0,0.0,0.0,0.0,0.0,0.0,0.0,0.0,0.0,0.0,0.4424,0.4406,0.4523,0.4414,0.426,0.4079,0.0,0.0,0.0,0.0,0.0,0.0,0.0,0.0,0.0,0.0,0.0,0.0,0.0,0.0,0.0,0.0,0.0,0.0,0.0,0.0,0.0,0.0,0.0,0.0,0.0,0.0,0.0,0.0,0.0,0.0,0.0,0.0,0.0,0.0,0.0,0.0,0.0,0.0,0.0,0.0,0.0,0.0,0.0,0.0,0.0,0.0,0.0,0.0,0.0,0.0,0.0,0.0,0.0,0.0,0.0,0.0,0.0,0.0,0.0,0.0,0.0,0.0,0.0,0.0,0.0,0.0,0.0,0.0,0.0,0.0,0.0,0.0,0.0,0.0,0.0,0.0,0.0,0.0,0.0,0.0,0.0,0.0,0.0,0.0,0.0,0.0,0.0,0.0,0.0,0.0,0.0,0.0,0.0,0.0,0.0,0.0,0.0,0.0,0.0,0.0,0.0,0.0,0.0,0.0,0.0,0.0,0.0,0.0,0.5001,0.4375,0.3973,0.3876,0.3604,0.3472,0.0,0.0,0.0,0.0,0.0,0.0,0.0,0.0,0.0,0.0,0.0,0.0,0.0,0.0,0.0,0.0,0.0,0.0,0.0,0.0,0.0,0.0,0.0,0.0,0.0,0.0,0.0,0.0,0.0,0.0,0.0,0.0,0.0,0.0,0.0,0.0,0.0,0.0,0.0,0.0,0.0,0.0,0.0,0.0,0.0,0.0,0.0,0.0,0.0,0.0,0.0,0.0,0.0,0.0,0.0,0.0,0.0,0.0,0.0,0.0,0.0,0.0,0.0,0.0,0.0,0.0,0.0,0.0,0.0,0.0,0.0,0.0,0.0,0.0,0.0,0.0,0.0,0.0,0.0,0.0,0.0,0.0,0.0,0.0,0.0,0.0,0.0,0.0,0.0,0.0,0.0,0.0,0.0,0.0,0.0,0.0,0.0,0.0,0.0,0.0,0.0,0.0,0.0,0.0,0.0,0.0,0.0,0.0,0.0,0.4249,0.3965,0.3942,0.421,0.3736,0.3618,0.0,0.0,0.0,0.0,0.0,0.0,0.0,0.0,0.0,0.0,0.0,0.0,0.0,0.0,0.0,0.0,0.0,0.0,0.0,0.0,0.0,0.0,0.0,0.0,0.0,0.0,0.0,0.0,0.0,0.0,0.0,0.0,0.0,0.0,0.0,0.0,0.0,0.0,0.0,0.0,0.0,0.0,0.0,0.0,0.0,0.0,0.0,0.0,0.0,0.0,0.0,0.0,0.0,0.0,0.0,0.0,0.0,0.0,0.0,0.0,0.0,0.0,0.0,0.0,0.0,0.0,0.0,0.0,0.0,0.0,0.0,0.0,0.0,0.0,0.0,0.0,0.0,0.0,0.0,0.0,0.0,0.0,0.0,0.0,0.0,0.0,0.0,0.0,0.0,0.0,0.0,0.0,0.0,0.0,0.0,0.0,0.0,0.0,0.0,0.0,0.0,0.0,0.0,0.0,0.0,0.0,0.0,0.0,0.0,0.3602,0.0,0.4001,0.3878,0.3643,0.351,0.0,0.0,0.0,0.0,0.0,0.0,0.0,0.0,0.0,0.0,0.0,0.0,0.0,0.0,0.0,0.0,0.0,0.0,0.0,0.0,0.0,0.0,0.0,0.0,0.0,0.0,0.0,0.0,0.0,0.0,0.0,0.0,0.0,0.0,0.0,0.0,0.0,0.0,0.0,0.0,0.0,0.0,0.0,0.0,0.0,0.0,0.0,0.0,0.0,0.0,0.0,0.0,0.0,0.0,0.0,0.0,0.0,0.0,0.0,0.0,0.0,0.0,0.0,0.0,0.0,0.0,0.0,0.0,0.0,0.0,0.0,0.0,0.0,0.0,0.0,0.0,0.0,0.0,0.0,0.0,0.0,0.0,0.0,0.0,0.0,0.0,0.0,0.0,0.0,0.0,0.0,0.0,0.0,0.0,0.0,0.0,0.0,0.0,0.0,0.0,0.0,0.0,0.0,0.0,0.0,0.0,0.0,0.0,0.3607,0.3179,0.4199,0.4086,0.27,0.3205,0.3064,0.0,0.0,0.0,0.0,0.0,0.0,0.0,0.0,0.0,0.0,0.0,0.0,0.0,0.0,0.0,0.0,0.0,0.0,0.0,0.0,0.0,0.0,0.0,0.0,0.0,0.0,0.0,0.0,0.0,0.0,0.0,0.0,0.0,0.0,0.0,0.0,0.0,0.0,0.0,0.0,0.0,0.0,0.0,0.0,0.0,0.0,0.0,0.0,0.0,0.0,0.0,0.0,0.0,0.0,0.0,0.0,0.0,0.0,0.0,0.0,0.0,0.0,0.0,0.0,0.0,0.0,0.0,0.0,0.0,0.0,0.0,0.0,0.0,0.0,0.0,0.0,0.0,0.0,0.0,0.0,0.0,0.0,0.0,0.0,0.0,0.0,0.0,0.0,0.0,0.0,0.0,0.0,0.0,0.0,0.0,0.0,0.0,0.0,0.0,0.0,0.0,0.0,0.0,0.0,0.0,0.0,0.0,0.0,0.0,0.3681,0.3982,0.3998,0.3633,0.3283,0.3027,0.0,0.0,0.0,0.0,0.0,0.0,0.0,0.0,0.0,0.0,0.0,0.0,0.0,0.0,0.0,0.0,0.0,0.0,0.0,0.0,0.0,0.0,0.0,0.0,0.0,0.0,0.0,0.0,0.0,0.0,0.0,0.0,0.0,0.0,0.0,0.0,0.0,0.0,0.0,0.0,0.0,0.0,0.0,0.0,0.0,0.0,0.0,0.0,0.0,0.0,0.0,0.0,0.0,0.0,0.0,0.0,0.0,0.0,0.0,0.0,0.0,0.0,0.0,0.0,0.0,0.0,0.0,0.0,0.0,0.0,0.0,0.0,0.0,0.0,0.0,0.0,0.0,0.0,0.0,0.0,0.0,0.0,0.0,0.0,0.0,0.0,0.0,0.0,0.0,0.0,0.0,0.0,0.0,0.0,0.0,0.0,0.0,0.0,0.0,0.0,0.0,0.0,0.0,0.0,0.0,0.0,0.0,0.0,0.0,0.4338,0.4546,0.452,0.4192,0.3654,0.3293,0.3139,0.0,0.0,0.0,0.0,0.0,0.0,0.0,0.0,0.0,0.0,0.0,0.0,0.0,0.0,0.0,0.0,0.0,0.0,0.0,0.0,0.0,0.0,0.0,0.0,0.0,0.0,0.0,0.0,0.0,0.0,0.0,0.0,0.0,0.0,0.0,0.0,0.0,0.0,0.0,0.0,0.0,0.0,0.0,0.0,0.0,0.0,0.0,0.0,0.0,0.0,0.0,0.0,0.0,0.0,0.0,0.0,0.0,0.0,0.0,0.0,0.0,0.0,0.0,0.0,0.0,0.0,0.0,0.0,0.0,0.0,0.0,0.0,0.0,0.0,0.0,0.0,0.0,0.0,0.0,0.0,0.0,0.0,0.0,0.0,0.0,0.0,0.0,0.0,0.0,0.0,0.0,0.0,0.0,0.0,0.0,0.0,0.0,0.0,0.0,0.0,0.0,0.0,0.0,0.0,0.0,0.0,0.0,0.0,0.5001,0.5705,0.5595,0.4619,0.4275,0.3788,0.0,0.0,0.0,0.0,0.0,0.0,0.0,0.0,0.0,0.0,0.0,0.0,0.0,0.0,0.0,0.0,0.0,0.0,0.0,0.0,0.0,0.0,0.0,0.0,0.0,0.0,0.0,0.0,0.0,0.0,0.0,0.0,0.0,0.0,0.0,0.0,0.0,0.0,0.0,0.0,0.0,0.0,0.0,0.0,0.0,0.0,0.0,0.0,0.0,0.0,0.0,0.0,0.0,0.0,0.0,0.0,0.0,0.0,0.0,0.0,0.0,0.0,0.0,0.0,0.0,0.0,0.0,0.0,0.0,0.0,0.0,0.0,0.0,0.0,0.0,0.0,0.0,0.0,0.0,0.0,0.0,0.0,0.0,0.0,0.0,0.0,0.0,0.0,0.0,0.0,0.0,0.0,0.0,0.0,0.0,0.0,0.0,0.0,0.0,0.0,0.0,0.0,0.0,0.0,0.0,0.0,0.0,0.0,0.0,0.5043,0.6278,0.7075,0.7268,0.5383,0.464,0.0,0.0,0.0,0.0,0.0,0.0,0.0,0.0,0.0,0.0,0.0,0.0,0.0,0.0,0.0,0.0,0.0,0.0,0.0,0.0,0.0,0.0,0.0,0.0,0.0,0.0,0.0,0.0,0.0,0.0,0.0,0.0,0.0,0.0,0.0,0.0,0.0,0.0,0.0,0.0,0.0,0.0,0.0,0.0,0.0,0.0,0.0,0.0,0.0,0.0,0.0,0.0,0.0,0.0,0.0,0.0,0.0,0.0,0.0,0.0,0.0,0.0,0.0,0.0,0.0,0.0,0.0,0.0,0.0,0.0,0.0,0.0,0.0,0.0,0.0,0.0,0.0,0.0,0.0,0.0,0.0,0.0,0.0,0.0,0.0,0.0,0.0,0.0,0.0,0.0,0.0,0.0,0.0,0.0,0.0,0.0,0.0,0.0,0.0,0.0,0.0,0.0,0.0,0.0,0.0,0.0,0.0,0.0,0.5185,0.5549,0.6841,0.8067,0.9198,0.7509,0.6158,0.0,0.0,0.0,0.0,0.0,0.0,0.0,0.0,0.0,0.0,0.0,0.0,0.0,0.0,0.0,0.0,0.0,0.0,0.0,0.0,0.0,0.0,0.0,0.0,0.0,0.0,0.0,0.0,0.0,0.0,0.0,0.0,0.0,0.0,0.0,0.0,0.0,0.0,0.0,0.0,0.0,0.0,0.0,0.0,0.0,0.0,0.0,0.0,0.0,0.0,0.0,0.0,0.0,0.0,0.0,0.0,0.0,0.0,0.0,0.0,0.0,0.0,0.0,0.0,0.0,0.0,0.0,0.0,0.0,0.0,0.0,0.0,0.0,0.0,0.0,0.0,0.0,0.0,0.0,0.0,0.0,0.0,0.0,0.0,0.0,0.0,0.0,0.0,0.0,0.0,0.0,0.0,0.0,0.0,0.0,0.0,0.0,0.0,0.0,0.0,0.0,0.0,0.0,0.0,0.0,0.0,0.0,0.0,0.5441,0.6326,0.7319,0.8593,1.0066,0.9679,0.7903,0.0,0.0,0.0,0.0,0.0,0.0,0.0,0.0,0.0,0.0,0.0,0.0,0.0,0.0,0.0,0.0,0.0,0.0,0.0,0.0,0.0,0.0,0.0,0.0,0.0,0.0,0.0,0.0,0.0,0.0,0.0,0.0,0.0,0.0,0.0,0.0,0.0,0.0,0.0,0.0,0.0,0.0,0.0,0.0,0.0,0.0,0.0,0.0,0.0,0.0,0.0,0.0,0.0,0.0,0.0,0.0,0.0,0.0,0.0,0.0,0.0,0.0,0.0,0.0,0.0,0.0,0.0,0.0,0.0,0.0,0.0,0.0,0.0,0.0,0.0,0.0,0.0,0.0,0.0,0.0,0.0,0.0,0.0,0.0,0.0,0.0,0.0,0.0,0.0,0.0,0.0,0.0,0.0,0.0,0.0,0.0,0.0,0.0,0.0,0.0,0.0,0.0,0.0,0.0,0.0,0.0,0.0,0.0,0.563,0.6601,0.7654,0.8345,0.8672,0.8749,0.8151,0.0,0.0,0.0,0.0,0.0,0.0,0.0,0.0,0.0,0.0,0.0,0.0,0.0,0.0,0.0,0.0,0.0,0.0,0.0,0.0,0.0,0.0,0.0,0.0,0.0,0.0,0.0,0.0,0.0,0.0,0.0,0.0,0.0,0.0,0.0,0.0,0.0,0.0,0.0,0.0,0.0,0.0,0.0,0.0,0.0,0.0,0.0,0.0,0.0,0.0,0.0,0.0,0.0,0.0,0.0,0.0,0.0,0.0,0.0,0.0,0.0,0.0,0.0,0.0,0.0,0.0,0.0,0.0,0.0,0.0,0.0,0.0,0.0,0.0,0.0,0.0,0.0,0.0,0.0,0.0,0.0,0.0,0.0,0.0,0.0,0.0,0.0,0.0,0.0,0.0,0.0,0.0,0.0,0.0,0.0,0.0,0.0,0.0,0.0,0.0,0.0,0.0,0.0,0.0,0.0,0.0,0.0,0.0,0.5894,0.7129,0.7918,0.8294,0.8316,0.8951,0.8369,0.0,0.0,0.0,0.0,0.0,0.0,0.0,0.0,0.0,0.0,0.0,0.0,0.0,0.0,0.0,0.0,0.0,0.0,0.0,0.0,0.0,0.0,0.0,0.0,0.0,0.0,0.0,0.0,0.0,0.0,0.0,0.0,0.0,0.0,0.0,0.0,0.0,0.0,0.0,0.0,0.0,0.0,0.0,0.0,0.0,0.0,0.0,0.0,0.0,0.0,0.0,0.0,0.0,0.0,0.0,0.0,0.0,0.0,0.0,0.0,0.0,0.0,0.0,0.0,0.0,0.0,0.0,0.0,0.0,0.0,0.0,0.0,0.0,0.0,0.0,0.0,0.0,0.0,0.0,0.0,0.0,0.0,0.0,0.0,0.0,0.0,0.0,0.0,0.0,0.0,0.0,0.0,0.0,0.0,0.0,0.0,0.0,0.0,0.0,0.0,0.0,0.0,0.0,0.0,0.0,0.0,0.0,0.5336,0.6314,0.8083,0.8259,0.8496,0.8866,0.9623,0.8762,0.6139,0.0,0.0,0.0,0.0,0.0,0.0,0.0,0.0,0.0,0.0,0.0,0.0,0.0,0.0,0.0,0.0,0.0,0.0,0.0,0.0,0.0,0.0,0.0,0.0,0.0,0.0,0.0,0.0,0.0,0.0,0.0,0.0,0.0,0.0,0.0,0.0,0.0,0.0,0.0,0.0,0.0,0.0,0.0,0.0,0.0,0.0,0.0,0.0,0.0,0.0,0.0,0.0,0.0,0.0,0.0,0.0,0.0,0.0,0.0,0.0,0.0,0.0,0.0,0.0,0.0,0.0,0.0,0.0,0.0,0.0,0.0,0.0,0.0,0.0,0.0,0.0,0.0,0.0,0.0,0.0,0.0,0.0,0.0,0.0,0.0,0.0,0.0,0.0,0.0,0.0,0.0,0.0,0.0,0.0,0.0,0.0,0.0,0.0,0.0,0.0,0.0,0.0,0.0,0.0,0.0,0.8353,0.6434,0.698,1.0176,0.9036,0.9224,1.0874,1.0189,0.9823,0.9902,0.0,0.0,0.0,0.0,0.0,0.0,0.0,0.0,0.0,0.0,0.0,0.0,0.0,0.0,0.0,0.0,0.0,0.0,0.0,0.0,0.0,0.0,0.0,0.0,0.0,0.0,0.0,0.0,0.0,0.0,0.0,0.0,0.0,0.0,0.0,0.0,0.0,0.0,0.0,0.0,0.0,0.0,0.0,0.0,0.0,0.0,0.0,0.0,0.0,0.0,0.0,0.0,0.0,0.0,0.0,0.0,0.0,0.0,0.0,0.0,0.0,0.0,0.0,0.0,0.0,0.0,0.0,0.0,0.0,0.0,0.0,0.0,0.0,0.0,0.0,0.0,0.0,0.0,0.0,0.0,0.0,0.0,0.0,0.0,0.0,0.0,0.0,0.0,0.0,0.0,0.0,0.0,0.0,0.0,0.0,0.0,0.0,0.0,0.0,0.0,0.0,0.0,0.0,0.0,0.0,0.7123,0.8322,0.9148,0.9461,0.9827,0.9969,0.9833,0.951,0.9321,0.0,0.0,0.0,0.0,0.0,0.0,0.0,0.0,0.0,0.0,0.0,0.0,0.0,0.0,0.0,0.0,0.0,0.0,0.0,0.0,0.0,0.0,0.0,0.0,0.0,0.0,0.0,0.0,0.0,0.0,0.0,0.0,0.0,0.0,0.0,0.0,0.0,0.0,0.0,0.0,0.0,0.0,0.0,0.0,0.0,0.0,0.0,0.0,0.0,0.0,0.0,0.0,0.0,0.0,0.0,0.0,0.0,0.0,0.0,0.0,0.0,0.0,0.0,0.0,0.0,0.0,0.0,0.0,0.0,0.0,0.0,0.0,0.0,0.0,0.0,0.0,0.0,0.0,0.0,0.0,0.0,0.0,0.0,0.0,0.0,0.0,0.0,0.0,0.0,0.0,0.0,0.0,0.0,0.0,0.0,0.0,0.0,0.0,0.0,0.0,0.0,0.0,0.0,0.0,0.0,0.0,0.6579,1.0289,1.1541,1.0101,1.1358,1.1455,1.0115,1.0282,1.0152,0.0,0.0,0.0,0.0,0.0,0.0,0.0,0.0,0.0,0.0,0.0,0.0,0.0,0.0,0.0,0.0,0.0,0.0,0.0,0.0,0.0,0.0,0.0,0.0,0.0,0.0,0.0,0.0,0.0,0.0,0.0,0.0,0.0,0.0,0.0,0.0,0.0,0.0,0.0,0.0,0.0,0.0,0.0,0.0307,0.0,0.0,0.0,0.0,0.0239,0.0114,0.0,0.0,0.0,0.0,0.0,0.0,0.0,0.0,0.0,0.0,0.0,0.0,0.0,0.0,0.0,0.0,0.0,0.0,0.0,0.0,0.0,0.0,0.0,0.0,0.0,0.0,0.0,0.0,0.0,0.0,0.0,0.0,0.0,0.0,0.0,0.0,0.0,0.0,0.0,0.0,0.0,0.0,0.0,0.0,0.0,0.0,0.0,0.0,0.0,0.0,0.0,0.0,0.0,0.0,0.0,0.0,1.0706,1.1737,1.3472,1.5695,1.4756,1.4771,1.6024,1.5508,1.5177,0.0,0.0,0.0,0.0,0.0,0.0,0.0,0.0,0.0,0.0,0.0,0.0,0.0,0.0,0.0,0.0,0.0,0.0,0.0,0.0,0.0,0.0,0.0,0.0,0.0,0.0,0.0,0.0,0.0,0.0,0.0,0.0,0.0,0.0,0.0,0.0,0.0,0.0,0.0,0.0,0.0,0.0,0.0,0.1367,0.2387,0.0,0.0,0.0288,0.1031,0.0503,0.0,0.0,0.0,0.0,0.0,0.0,0.0,0.0,0.0,0.0,0.0,0.0,0.0,0.0,0.0,0.0,0.0,0.0,0.0,0.0,0.0,0.0,0.0,0.0,0.0,0.0,0.0,0.0,0.0,0.0,0.0,0.0,0.0,0.0,0.0,0.0,0.0,0.0,0.0,0.0,0.0,0.0,0.0,0.0,0.0,0.0,0.0,0.0,0.0,0.0,0.0,0.0,0.0,0.0,0.0,1.2323,1.1031,1.4322,1.586,1.5399,1.5834,1.5776,1.5135,1.4945,1.4124,0.0,0.0,0.0,0.0,0.0,0.0,0.0,0.0,0.0,0.0,0.0,0.0,0.0,0.0,0.0,0.0,0.0,0.0,0.0,0.0,0.0,0.0,0.0,0.0,0.0,0.0,0.0,0.0,0.0,0.0,0.0,0.0,0.0,0.0,0.0,0.0,0.0,0.0,0.0,0.0,0.0,0.0,0.1532,0.2264,0.0,0.0,0.0,0.168,0.2034,0.0,0.0,0.0,0.0,0.0,0.0,0.0,0.0,0.0,0.0,0.0,0.0,0.0,0.0,0.0,0.0,0.0,0.0,0.0,0.0,0.0,0.0,0.0,0.0,0.0,0.0,0.0,0.0,0.0,0.0,0.0,0.0,0.0,0.0,0.0,0.0,0.0,0.0,0.0,0.0,0.0,0.0,0.0,0.0,0.0,0.0,0.0,0.0,0.0,0.0,0.0,0.0,0.0,0.0,0.0,0.0,0.0,1.1275,1.6345,1.7938,1.5808,1.7213,1.7116,1.5209,1.5092,0.0,0.0,0.0,0.0,0.0,0.0,0.0,0.0,0.0,0.0,0.0,0.0,0.0,0.0,0.0,0.0,0.0,0.0,0.0,0.0,0.0,0.0,0.0,0.0,0.0,0.0,0.0,0.0,0.0,0.0,0.0,0.0,0.0,0.0,0.0,0.0,0.0,0.0,0.0,0.0,0.0,0.0,0.2718,0.2757,0.2856,0.2934,0.0,0.0,0.2729,0.2754,0.2681,0.212,0.0,0.0,0.0,0.0,0.0,0.0,0.0,0.0,0.0,0.0,0.0,0.0,0.0,0.0,0.0,0.0,0.0,0.0,0.0,0.0,0.0,0.0,0.0,0.0,0.0,0.0,0.0,0.0,0.0,0.0,0.0,0.0,0.0,0.0,0.0,0.0,0.0,0.0,0.0,0.0,0.0,0.0,0.0,0.0,0.0,0.0,0.0,0.0,0.0,0.0,0.0,0.0,0.0,0.0,1.4364,1.33,1.7127,1.9322,1.9688,1.9963,1.9861,1.9293,1.846,1.7103,0.0,0.0,0.0,0.0,0.0,0.0,0.0,0.0,0.0,0.0,0.0,0.0,0.0,0.0,0.0,0.0,0.0,0.0,0.0,0.0,0.0,0.0,0.0,0.0,0.0,0.0,0.0,0.0,0.0,0.0,0.0,0.0,0.0,0.0,0.0,0.0,0.0,0.0,0.0,0.0,0.0,0.2755,0.287,0.2949,0.3011,0.0,0.2924,0.2808,0.2875,0.2669,0.2211,0.1345,0.0,0.0,0.0,0.0,0.0,0.0,0.0,0.0,0.0,0.0,0.0,0.0,0.0,0.0,0.0,0.0,0.0,0.0,0.0,0.0,0.0,0.0,0.0,0.0,0.0,0.0,0.0,0.0,0.0,0.0,0.0,0.0,0.0,0.0,0.0,0.0,0.0,0.0,0.0,0.0,0.0,0.0,0.0,0.0,0.0,0.0,0.0,0.0,0.0,0.0,0.0,0.0,0.0,1.5056,1.4947,1.765,1.9406,2.0049,1.9999,1.9761,1.9401,1.8519,1.7168,0.0,0.0,0.0,0.0,0.0,0.0,0.0,0.0,0.0,0.0,0.0,0.0,0.0,0.0,0.0,0.0,0.0,0.0,0.0,0.0,0.0,0.0,0.0,0.0,0.0,0.0,0.0,0.0,0.0729,0.1232,0.123,0.0,0.0,0.0,0.0,0.0,0.0,0.0,0.0,0.0,0.0,0.2782,0.2999,0.3533,0.0,0.0,0.3433,0.3063,0.3292,0.2861,0.2419,0.2141,0.0941,0.0,0.0,0.0,0.0,0.0,0.0,0.0,0.0,0.0,0.0,0.0,0.0,0.0,0.0,0.0,0.0,0.0,0.0,0.0,0.0,0.0,0.0,0.0,0.0,0.0,0.0,0.0,0.0,0.0,0.0,0.0,0.0,0.0,0.0,0.0,0.0,0.0,0.0,0.0,0.0,0.0,0.0,0.0,0.0,0.0,0.0,0.0,0.0,0.0,0.0,0.0,0.0,1.5367,1.5816,1.7874,1.9259,1.9873,1.9754,1.951,1.9135,1.8369,1.7106,0.0,0.0,0.0,0.0,0.0,0.0,0.0,0.0,0.0,0.0,0.0,0.0,0.0,0.0,0.0,0.0,0.0,0.0,0.0,0.0,0.0,0.0,0.0,0.0,0.0,0.0,0.0,0.0,0.1479,0.2276,0.2753,0.0,0.0,0.0,0.0,0.0,0.0,0.0,0.0,0.0,0.0,0.2796,0.3072,0.4175,0.501,0.5045,0.4288,0.368,0.366,0.3231,0.2823,0.2623,0.0,0.0,0.0,0.0,0.0,0.0,0.0,0.0,0.0,0.0,0.0,0.0,0.0,0.0,0.0,0.0,0.0,0.0,0.0,0.0,0.0,0.0,0.0,0.0,0.0,0.0,0.0,1.2095,0.0,0.0,1.2125,0.0,0.0,0.0,0.0,0.0,0.0,0.0,0.0,0.0,0.0,0.0,0.0,0.0,0.0,0.0,0.0,0.0,0.0,0.0,0.0,0.0,0.0,1.5208,1.5614,1.7711,1.9001,1.941,1.9598,1.947,1.9014,1.8417,1.7385,1.5901,0.0,0.0,0.0,0.0,0.0,0.0,0.0,0.0,0.0,0.0,0.0,0.0,0.0,0.0,0.0,0.0,0.0,0.0,0.0,0.0,0.0,0.0,0.0,0.0,0.0,0.0,0.1857,0.2153,0.2881,0.0,0.0,0.0,0.0,0.0,0.0,0.0,0.0,0.0,0.2466,0.2682,0.2802,0.3128,0.4805,0.6015,0.6039,0.5478,0.4766,0.3952,0.3786,0.3523,0.0,0.0,0.0,0.0,0.0,0.0,0.0,0.0,0.0,0.0,0.0,0.0,0.0,0.0,0.0,0.0,0.0,0.0,0.0,0.0,0.0,0.0,0.0,0.0,0.0,0.0,0.0,1.2966,1.2966,0.0,0.0,0.0,0.0,0.0,0.0,0.0,0.0,0.0,0.0,0.0,1.4139,1.4459,0.0,0.0,0.0,0.0,0.0,0.0,0.0,0.0,0.0,0.0,0.0,0.0,1.5396,1.5988,1.7683,1.8863,1.9361,1.9291,1.9124,1.8873,1.8282,1.7127,1.5359,0.0,0.0,0.0,0.0,0.0,0.0,0.0,0.0,0.0,0.0,0.0,0.0,0.0,0.0,0.0,0.0,0.0,0.0,0.0,0.0,0.0,0.0,0.0,0.0,0.0,0.2009,0.0,0.0,0.0,0.0,0.0,0.0,0.0,0.0,0.0,0.0,0.0,0.0677,0.2474,0.277,0.3386,0.4895,0.573,0.6236,0.0,0.0,0.0,0.0,0.0,0.0,0.0,0.0,0.0,0.0,0.0,0.0,0.0,0.0,0.7978,0.4929,0.3697,0.2983,0.2517,0.0,0.0,0.0,0.0,0.0,0.0,0.0,0.0,0.0,0.0,0.0,0.0,0.0,0.0,1.3702,0.0,1.3657,0.0,0.0,0.0,0.0,0.0,0.0,0.0,0.0,1.4708,1.5054,1.5072,1.5411,1.5382,0.0,1.4835,1.4349,0.0,0.0,0.0,0.0,0.0,0.0,0.0,0.0,1.544,1.6079,1.7623,1.8672,1.9147,1.9061,1.8885,1.862,1.7874,1.6774,1.5267,1.4412,1.3479,0.0,0.0,0.0,0.0,0.0,0.0,0.0,0.0,0.0,0.0,0.0,0.0,0.0,0.0,0.0,0.0,0.0,0.0,0.0,0.0,0.0,0.0,0.0,0.2349,0.0,0.0,0.0,0.0,0.0,0.0,0.0,0.0,0.0,0.0377,0.1159,0.2182,0.2697,0.3485,0.4529,0.5904,0.0,0.0,0.0,0.0,0.0,0.0,0.0,0.449,0.3544,0.3229,0.405,0.6871,0.8999,1.0718,1.2085,0.0,0.0,0.5747,0.5599,0.5757,0.4864,0.3456,0.2391,0.2481,0.254,0.2809,0.0,0.0,0.0,0.0,0.0,0.0,0.0,0.0,1.392,1.4331,0.0,1.4209,0.0,0.0,0.0,0.0,0.0,1.4089,0.0,0.0,1.5868,1.6362,1.6163,1.6293,1.6198,1.5943,1.5738,1.534,1.4712,1.3756,0.0,0.0,0.0,0.0,0.0,0.0,1.5318,1.5976,1.75,1.8449,1.8799,1.8912,1.8755,1.8287,1.7277,1.6391,1.5627,1.503,1.3923,1.2291,1.2813,0.0,0.0,0.0,0.0,0.0,0.0,0.0,0.0,0.0,0.0,0.0,0.0,0.0,0.0,0.0,0.0,0.0,0.0,0.0,0.0,0.251,0.0,0.0,0.0,0.0,0.0,0.0,0.0,0.0,0.0,0.0,0.093,0.3668,0.5171,0.3278,0.0,0.0,0.0,0.0,0.9739,0.7364,0.8109,0.8229,0.6187,0.611,0.5952,0.4871,0.0,0.0,1.4692,1.2661,1.1359,1.5267,1.296,0.9112,0.568,0.7507,0.9346,0.9033,0.5791,0.2942,0.2707,0.3042,0.3298,1.6096,0.0,0.0,0.0,0.0,1.4699,1.5115,1.5714,1.5733,1.5757,1.5742,1.5189,0.0,0.0,0.0,0.0,0.0,0.0,1.4905,1.5661,1.624,1.6735,1.7175,1.7358,1.7276,1.6965,1.672,1.6286,1.5689,1.5072,1.4288,1.3362,0.0,0.0,0.0,0.0,1.567,1.6497,1.7677,1.8395,1.8578,1.8626,1.8436,1.803,1.7378,1.6701,1.5981,1.5467,1.4731,1.3715,1.3049,0.0,0.0,0.0,0.0,0.0,0.0,0.0,0.0,0.0,0.0,0.0,0.0,0.0,0.0,0.0,0.0,0.0,0.0,0.0,0.3645,0.4884,0.4803,0.0,0.0,0.0,0.0,0.0,0.0,0.0,0.0,0.0,0.8279,0.915,0.8688,0.0,0.0,0.6472,0.6153,0.9034,1.1753,1.3161,0.9945,0.0,0.9566,0.9971,0.9656,0.8413,0.6939,0.8179,1.4941,1.5225,1.488,1.5968,1.5242,1.4024,1.2669,1.0622,1.0544,1.2544,1.0087,0.6144,0.3652,0.4102,0.4912,1.7867,1.6816,1.5773,1.5521,1.5836,1.5946,1.6308,1.685,1.6802,1.6809,1.6842,1.6138,1.5569,1.5099,1.4498,0.0,0.0,0.0,1.5696,1.6537,1.6938,1.7419,1.788,1.8049,1.7975,1.7677,1.7385,1.7012,1.6618,1.6132,1.5508,1.4681,0.0,0.0,1.4184,1.5169,1.6062,1.6816,1.7799,1.8402,1.8605,1.8482,1.826,1.7901,1.7487,1.6985,1.6355,1.5974,1.5517,1.5017,1.3863,1.301,0.0,0.0,0.0,0.0,0.0,0.0,0.0,0.0,0.0,0.0,0.0,0.2291,0.2286,0.0,0.0,0.0,0.4741,0.5343,0.6266,0.597,0.0,0.0,0.0,0.0,0.0,0.0,0.0,1.0652,1.1741,1.2702,1.2929,1.2685,1.1979,1.06,1.0466,1.0393,1.0096,0.0,1.4353,1.6185,1.3009,1.065,1.15,1.2743,1.2917,1.0809,0.9357,1.0167,1.5013,1.6319,1.6492,1.647,1.6419,1.628,1.5992,1.3831,1.2768,1.52,1.354,1.0754,0.8384,0.9106,0.9749,1.9398,1.9135,1.7324,1.67,1.6936,1.7168,1.7351,1.7467,1.7365,1.7595,1.8023,1.7033,1.6634,1.6627,1.5725,0.0,1.5714,1.6166,1.6707,1.7283,1.7846,1.8199,1.8348,1.8462,1.8388,1.8118,1.7805,1.7582,1.7439,1.7013,1.6668,1.6369,1.5298,1.476,1.4863,1.571,1.6448,1.7066,1.7873,1.8443,1.8758,1.845,1.8158,1.7881,1.7555,1.7169,1.6716,1.645,1.624,1.6079,1.4963,1.3795,1.2668,0.0,0.0,0.0,0.0,0.0,0.0,0.0,0.0,0.0,0.0,0.0,0.0,0.0,0.0,0.0,0.7583,0.0,0.9431,0.6469,0.0,0.0,0.0,1.1814,1.0092,1.1535,1.2314,1.1453,0.0,0.0,1.5214,1.4638,1.4884,1.6749,1.6518,1.6167,1.6178,1.6503,1.7014,1.6965,1.6477,1.5162,1.3,1.4609,1.5316,1.2739,1.1902,1.2894,1.5526,1.6343,1.6618,1.685,1.6707,1.6501,1.6509,1.6277,1.643,1.6163,1.5807,1.5476,1.5077,1.5281,1.5583,2.0083,1.9974,1.9211,1.8525,1.7948,1.7901,1.8023,1.8232,1.8198,1.8158,1.8057,1.7561,1.7053,1.6539,1.6397,1.639,1.6536,1.6951,1.7412,1.7894,1.8145,1.8403,1.8682,1.8723,1.8613,1.8415,1.8327,1.8157,1.7935,1.7826,1.7595,1.7304,1.7,1.6552,1.5969,1.6336,1.6944,1.7691,1.8077,1.8327,1.8416,1.8254,1.7988,1.7683,1.7392,1.708,1.6709,1.6444,1.6236,1.6084,1.5146,1.416,1.3253,1.3155,0.0,0.0,0.0,0.0,0.0,0.0,0.0,0.0,0.0,0.3117,0.2358,0.0,0.4502,0.0,0.8649,0.9293,0.9026,0.966,0.0,0.0,1.0807,1.2334,1.1905,1.3031,1.3771,1.3553,1.4151,1.4927,1.579,1.59,1.6162,1.69,1.6877,1.6778,1.6802,1.7075,1.7235,1.7033,1.6866,1.6543,1.5858,1.6197,1.6349,1.5501,1.5462,1.5934,1.6664,1.6615,1.6516,1.6603,1.6559,1.6503,1.6518,1.6512,1.6581,1.6696,1.6368,1.5975,1.5979,1.6057,1.6286,2.0673,2.058,2.0087,1.9569,1.908,1.8899,1.8918,1.9093,1.8903,1.872,1.8573,1.8124,1.7616,1.7134,1.7209,1.7283,1.7405,1.7609,1.788,1.8178,1.8266,1.8443,1.8654,1.8675,1.8647,1.8633,1.8633,1.8497,1.828,1.8273,1.8144,1.7906,1.7853,1.7582,1.7141,1.7189,1.7473,1.7989,1.8328,1.8484,1.8395,1.8267,1.805,1.7738,1.7385,1.6945,1.6457,1.6091,1.5951,1.6055,1.5094,1.4233,1.3622,1.3459,1.3207,0.0,0.0,0.0,0.0,0.0,0.0,0.0,0.0,0.0,0.0,0.0,0.8272,0.9818,1.0717,1.1062,1.0694,1.1657,1.1704,1.0314,1.2028,1.3398,1.3666,1.4289,1.469,1.4703,1.4897,1.5325,1.6091,1.6369,1.6636,1.6956,1.7102,1.7229,1.7378,1.7544,1.7482,1.7083,1.7009,1.6993,1.7002,1.6773,1.6529,1.637,1.6481,1.6589,1.6587,1.6451,1.6325,1.6331,1.6415,1.6514,1.6516,1.6564,1.6681,1.6859,1.6728,1.6479,1.6301,1.6408,1.6619,2.1157,2.099,2.0397,2.0157,2.0175,1.9863,1.9774,1.9786,1.9394,1.9203,1.9169,1.8646,1.8274,1.8051,1.8051,1.8071,1.8152,1.8159,1.8213,1.8293,1.8321,1.8374,1.8476,1.8496,1.8578,1.873,1.8737,1.8648,1.8461,1.8461,1.8401,1.8286,1.8186,1.8124,1.8111,1.8037,1.803,1.8152,1.8566,1.8716,1.8488,1.8361,1.8158,1.784,1.7365,1.6794,1.6068,1.5637,1.5575,1.5816,1.4964,1.4286,1.3884,1.37,1.3491,0.0,1.3088,0.0,0.0,0.0,0.0,0.0,0.0,0.0,0.0,1.0077,1.2669,1.2698,1.2748,1.2865,1.3067,1.2724,1.2555,1.2685,1.37,1.4628,1.5137,1.5202,1.521,1.5256,1.5517,1.5883,1.6246,1.645,1.6678,1.6969,1.721,1.748,1.7813,1.7893,1.7695,1.7129,1.7029,1.7,1.698,1.671,1.6421,1.6222,1.6154,1.6058,1.5988,1.6062,1.6117,1.6129,1.6289,1.643,1.6457,1.6554,1.6733,1.6954,1.6953,1.6863,1.6667,1.6765,1.6989,2.1273,2.1129,2.0623,2.0517,2.0623,2.0209,1.9827,1.9486,1.9291,1.9203,1.9196,1.9073,1.8924,1.8797,1.8805,1.8639,1.8422,1.8436,1.8374,1.8307,1.8422,1.8401,1.834,1.8449,1.8441,1.8395,1.8403,1.8375,1.8333,1.8327,1.832,1.8307,1.8266,1.828,1.8266,0.0,0.0,0.0,1.8682,1.8716,1.8517,1.8367,1.8049,1.75,1.6938,0.0,1.5727,1.5618,1.5267,1.4689,1.5032,0.0,0.0,0.0,0.0,0.0,0.0,0.0,0.0,0.0,0.0,0.0,1.3307,1.2864,1.13,1.2612,1.285,1.1273,1.2397,1.3324,1.346,1.2883,1.28,1.3502,1.4422,1.5084,1.5197,1.5195,1.5271,1.5494,1.5987,1.6312,1.6318,1.6646,1.6912,1.7002,1.7244,1.7514,1.7838,1.7919,1.7756,1.7385,1.7155,1.6999,1.6997,1.672,1.6479,1.6406,1.6222,1.593,1.5569,1.5832,1.6099,1.6108,1.6152,1.6187,1.6188,1.6374,1.6638,1.6928,1.6994,1.6978,1.6923,1.6943,1.7003,2.1496,2.1276,2.0903,2.0795,0.0,2.0404,2.0054,1.9839,1.9571,1.932,1.9123,1.9169,1.9096,1.8907,1.8907,1.8825,1.8648,1.8483,1.8401,1.8394,1.832,1.8341,1.8409,1.8401,1.8401,1.8394,1.8341,1.8341,1.8402,1.8334,1.8382,1.8546,1.8396,1.8341,1.838,1.8469,1.8558,1.864,1.875,1.8743,1.864,1.8415,1.809,1.7643,1.706,0.0,0.0,0.0,0.0,0.0,0.0,0.0,0.0,1.4203,0.0,1.3777,1.375,1.3797,1.3933,1.3763,1.3643,1.3661,1.4172,1.4045,1.3018,1.374,1.387,1.2985,1.3311,1.3677,1.3985,1.3385,1.3288,1.4152,1.4816,1.5199,1.5191,1.5198,1.5382,1.5791,1.6101,1.6319,1.6381,1.6592,1.6889,1.7148,1.7197,1.7379,1.7797,1.792,1.7832,1.7653,1.7267,1.6998,1.6977,1.672,1.6504,1.6483,1.6281,1.6004,1.5695,1.5903,1.6111,1.6118,1.612,1.6118,1.6122,1.632,1.661,1.6908,1.6994,1.6998,1.7004,1.7004,1.7004,2.1692,2.1341,2.11,2.1003,2.0942,2.0517,2.0325,2.027,0.0,0.0,0.0,1.9188,1.9123,1.8907,1.8846,1.8806,1.8771,1.8457,1.8354,1.8455,1.826,1.826,1.8422,1.8375,1.8375,1.8415,1.8321,1.8341,1.8455,1.8348,1.8416,1.8654,1.8422,1.8374,1.8544,1.8585,1.8674,1.8825,1.8805,1.8778,1.8744,1.8457,1.8144,1.7847,1.729,1.6598,1.5714,1.5376,1.5023,1.4663,1.4539,1.4462,1.4459,1.4667,1.4642,1.4394,1.438,1.4437,1.4606,1.4455,1.4441,1.4615,1.5076,1.4819,1.3578,1.428,1.4882,1.5111,1.4425,1.4131,1.4536,1.408,1.3991,1.4717,1.5028,1.5198,1.5206,1.5303,1.5582,1.6007,1.615,1.6259,1.6475,1.6586,1.6786,1.7179,1.7196,1.7196,1.7613,1.771,1.7689,1.7619,1.7249,1.6998,1.6963,1.6765,1.655,1.6503,1.6265,1.6114,1.6115,1.6117,1.6121,1.6112,1.612,1.6119,1.6109,1.6293,1.6563,1.6841,1.6966,1.6997,1.6997,1.7004,1.7005,2.1631,2.1208,2.1068,2.0942,2.0806,2.0578,2.0413,2.027,1.9983,1.9769,1.9593,1.9432,1.9343,1.9297,1.8946,1.8806,1.8771,1.8457,1.8321,1.8341,1.8401,1.8341,1.8186,1.8375,1.8347,1.8165,1.8138,1.8199,1.8286,1.8199,1.8199,1.8348,1.8313,1.8457,1.8736,1.8878,1.8938,1.8967,1.8859,1.8709,1.8551,1.8388,1.8083,1.7643,1.7229,1.6705,1.6061,1.5966,1.5614,1.49,1.4991,1.5076,1.5076,1.532,1.5216,1.4704,1.4656,1.4771,1.5065,1.4799,1.4994,1.5764,1.5928,1.5337,1.3939,1.4584,1.5087,1.4972,1.4947,1.4979,1.4948,1.4908,1.4919,1.5083,1.5176,1.5194,1.5234,1.5654,1.5983,1.6113,1.6318,1.6447,1.6524,1.6829,1.7025,1.7099,1.7188,1.7284,1.7196,1.7116,1.7114,1.7126,1.7061,1.6996,1.6945,1.6813,1.6639,1.6524,1.6277,1.6116,1.6113,1.6118,1.6116,1.6113,1.612,1.6112,1.6115,1.6219,1.6402,1.6595,1.679,1.6971,1.6978,1.7002,1.6993,2.1672,2.1316,2.1161,2.1075,2.101,2.0763,2.0492,2.0184,2.0058,1.9883,1.9674,1.9428,1.9249,1.9169,1.892,1.8806,1.8792,1.8538,1.8463,1.8573,1.8531,1.849,1.8478,1.8497,1.8443,1.8314,1.8239,1.8273,1.8395,1.8287,1.8335,1.8552,1.864,1.8755,1.8907,1.8967,1.9007,1.8986,1.8851,1.8702,1.8503,1.8375,1.8117,1.7779,1.7405,1.6978,1.6437,1.6286,1.5967,1.5462,1.5417,1.5429,1.5426,1.5686,1.5671,1.5223,1.5193,1.5311,1.5557,1.5525,1.5638,1.6069,1.6119,1.5736,1.4837,1.504,1.5149,1.5081,1.516,1.5195,1.5116,1.5158,1.5191,1.5201,1.5197,1.5341,1.5654,1.59,1.6157,1.6297,1.6423,1.6525,1.6613,1.6783,1.6958,1.6991,1.7127,1.7128,1.7014,1.6841,1.6806,1.6944,1.6903,1.6823,1.6748,1.674,1.6632,1.6472,1.625,1.6134,1.612,1.612,1.612,1.612,1.612,1.6122,1.6109,1.6209,1.6336,1.6471,1.6594,1.6754,1.6928,1.6992,1.7053,2.1676,2.1347,2.1258,2.1181,2.1127,2.0901,2.0582,2.0254,2.0161,1.9992,1.9747,1.9373,1.9107,1.8979,1.8811,1.8757,1.8764,1.8585,1.8613,1.8771,1.8654,1.8612,1.873,1.862,1.8537,1.8496,1.8402,1.8415,1.8537,1.8422,1.8504,1.8832,1.9014,1.9088,1.9102,1.9088,1.9089,1.9033,1.8906,1.8736,1.8503,1.8367,1.8171,1.7949,1.767,1.7311,1.6925,1.664,1.6394,1.6161,1.593,1.5811,1.5821,1.6051,1.6076,1.5845,1.5768,1.5814,1.5935,1.6038,1.6106,1.6115,1.6115,1.5994,1.5722,1.5447,1.5279,1.5252,1.5223,1.5237,1.5264,1.5232,1.5195,1.5193,1.5342,1.5608,1.6009,1.6121,1.6246,1.6521,1.6615,1.6651,1.6695,1.6755,1.685,1.6958,1.7004,1.6998,1.6963,1.6717,1.6635,1.671,1.6719,1.6608,1.6446,1.6472,1.6524,1.6448,1.6264,1.6139,1.6119,1.6112,1.611,1.6109,1.612,1.6114,1.6109,1.6205,1.6308,1.6383,1.6456,1.6619,1.6924,1.7,1.7054,2.1631,2.1242,2.1208,2.1136,2.0998,2.0861,2.0775,2.0673,2.0297,2.0076,1.9969,1.9454,1.9135,1.8966,1.8673,1.864,1.8778,1.8606,1.8613,1.8778,1.8792,1.8674,1.8578,1.8695,1.8667,1.8523,1.8496,1.8606,1.8771,1.8585,1.8659,1.8972,1.9236,1.9364,1.9356,1.9356,1.9303,1.9183,1.9055,1.8815,1.8516,1.8361,1.824,1.8091,1.7935,1.7745,1.7473,1.7263,1.7052,1.6896,1.6571,1.6411,1.6418,1.6436,1.645,1.641,1.6288,1.619,1.6096,1.6084,1.6126,1.6112,1.6144,1.6113,1.6038,1.5748,1.5519,1.5422,1.529,1.5326,1.5519,1.5358,1.5249,1.5264,1.5669,1.604,1.6079,1.611,1.6325,1.6907,1.6911,1.6883,1.6788,1.687,1.6958,1.6984,1.6997,1.6996,1.6971,1.6718,1.6403,1.6308,1.6359,1.6401,1.6221,1.6154,1.6315,1.653,1.6355,1.619,1.6157,1.6138,1.612,1.6116,1.612,1.612,1.6135,1.6198,1.6265,1.6344,1.6446,1.6607,1.6898,1.6998,1.7039,2.1689,2.132,2.133,2.1242,2.1116,2.0967,2.0804,2.0598,2.0356,2.0092,1.9849,1.9591,1.9369,1.9116,1.8817,1.873,1.8784,1.8723,1.8716,1.8806,1.8806,1.8743,1.8702,1.8852,1.8857,1.8795,1.8788,1.8863,1.9001,1.8937,1.8978,1.9107,1.9317,1.9459,1.9564,1.9459,1.944,1.9498,1.917,1.8925,1.8781,1.8551,1.8328,1.8132,1.8043,1.7887,1.7602,1.7412,1.7304,1.7209,1.6756,1.663,1.6904,1.6844,1.6737,1.6627,1.6491,1.6314,1.613,1.6242,1.641,1.662,1.6618,1.6548,1.6349,1.607,1.5866,1.5815,1.5673,1.5581,1.5599,1.5684,1.5654,1.5551,1.5843,1.6118,1.6106,1.6124,1.6334,1.6887,1.6994,1.7015,1.6985,1.698,1.6994,1.7005,1.6996,1.7005,1.6975,1.6715,1.6408,1.6175,1.6199,1.6221,1.6135,1.6118,1.6199,1.6302,1.6369,1.634,1.6316,1.619,1.6119,1.6114,1.6108,1.612,1.612,1.6168,1.6235,1.642,1.6656,1.6845,1.6984,1.7004,1.6999,2.1733,2.1483,2.1422,2.1347,2.1249,2.1123,2.0896,2.0623,2.0424,2.0144,1.9824,1.9744,1.953,1.9236,1.8973,1.8873,1.89,1.8825,1.8804,1.8845,1.8838,1.8859,1.8873,1.8994,1.9047,1.9062,1.9062,1.9107,1.9236,1.9249,1.9298,1.9386,1.9495,1.963,1.9783,1.9664,1.9624,1.9654,1.934,1.9136,1.8979,1.8754,1.8483,1.8171,1.8125,1.7968,1.769,1.7534,1.7453,1.744,1.6981,1.6915,1.7277,1.7283,1.7114,1.6871,1.6742,1.6545,1.6228,1.6392,1.6725,1.7159,1.711,1.6908,1.6652,1.6382,1.6215,1.6192,1.6082,1.5935,1.5837,1.5898,1.5871,1.5773,1.6096,1.6338,1.6375,1.635,1.654,1.6923,1.7087,1.7139,1.7194,1.7121,1.6994,1.6998,1.7001,1.6892,1.6793,1.6588,1.6423,1.6227,1.6165,1.6116,1.6114,1.6117,1.6109,1.6181,1.6308,1.6378,1.6457,1.6275,1.6116,1.6117,1.6121,1.6127,1.6135,1.618,1.635,1.6763,1.6945,1.6918,1.6971,1.6991,1.7004,2.1828,2.1662,2.1486,2.1401,2.1381,2.1242,2.11,2.0917,2.0639,2.0347,2.0058,1.9837,1.9598,1.9383,1.9149,1.9061,1.9128,1.8927,1.8893,1.8987,1.8994,1.8979,1.9007,1.9122,1.9196,1.9181,1.923,1.9283,1.9397,1.9404,1.9569,1.9851,1.9849,1.9937,2.0044,2.0044,1.9944,1.9756,1.9654,1.9465,1.9069,1.8979,1.8742,1.8342,1.8179,1.805,1.7888,1.7704,1.7602,1.7582,1.7429,1.7429,1.7575,1.7738,1.7636,1.7236,1.7161,1.6975,1.6571,1.6544,1.6896,1.7598,1.7335,1.7001,1.6949,1.6703,1.6537,1.6485,1.649,1.6409,1.6249,1.5968,1.5856,1.6086,1.6581,1.6867,1.6928,1.6862,1.6949,1.7023,1.721,1.7335,1.7368,1.7166,1.7039,1.7012,1.6998,1.6851,1.6483,1.643,1.6503,1.6461,1.6303,1.6117,1.6116,1.6114,1.6163,1.6197,1.6198,1.6221,1.628,1.6299,1.6186,1.6118,1.6109,1.6121,1.6162,1.6325,1.6577,1.6786,1.6755,1.6772,1.6959,1.6992,1.6998,2.1906,2.1675,2.1486,2.1392,2.1371,2.1262,2.1113,2.0964,2.0783,2.0519,2.0252,2.0117,1.9949,1.9705,1.9618,1.9435,1.9203,1.9102,1.9074,1.9122,1.9128,1.9122,1.9156,1.9388,1.9434,1.9371,1.9542,1.9673,1.9719,1.9813,1.9893,2.0012,2.0017,2.0098,2.0191,2.013,2.0085,2.0058,1.9851,1.955,1.9284,1.9088,1.8816,1.8463,1.8374,1.826,1.8044,1.7948,1.7873,1.7792,1.7757,1.777,1.7907,1.7996,1.7853,1.7507,1.7453,1.7345,1.7116,1.7089,1.7291,1.779,1.7708,1.7444,1.7253,1.7123,1.7041,1.6977,1.6964,1.689,1.6708,1.6359,1.617,1.6366,1.6729,1.6999,1.7004,1.6997,1.7006,1.7047,1.7304,1.7473,1.7378,1.7277,1.7182,1.7034,1.6997,1.6888,1.6775,1.678,1.6796,1.6747,1.6538,1.6269,1.6218,1.6153,1.6135,1.613,1.6138,1.6151,1.6196,1.6203,1.6122,1.611,1.6108,1.6135,1.6189,1.653,1.6774,1.6687,1.6648,1.6866,1.6961,1.6994,1.6999,2.1913,2.1682,2.1486,2.1435,2.1472,2.1337,2.1215,2.1106,2.0933,2.0675,2.0399,2.0318,2.0144,1.9924,1.9905,1.9756,1.9449,1.9373,1.9352,1.9367,1.9408,1.9435,1.9476,1.9708,1.9746,1.9676,1.9841,1.9985,2.0032,2.0071,2.0189,2.0324,2.0234,2.0259,2.041,2.0322,2.025,2.0245,2.0024,1.9802,1.9576,1.9339,1.9061,1.8775,1.8693,1.8511,1.8186,1.8118,1.8064,1.7969,1.7935,1.803,1.8292,1.8262,1.8069,1.7826,1.7765,1.7697,1.7582,1.7561,1.7656,1.7881,1.7893,1.7736,1.7398,1.7468,1.7448,1.7323,1.7263,1.7216,1.7114,1.6885,1.6672,1.6595,1.6812,1.6992,1.7014,1.7162,1.7297,1.7358,1.7534,1.7609,1.7528,1.7487,1.7318,1.7036,1.7005,1.7001,1.6999,1.6998,1.6995,1.6973,1.6717,1.6462,1.6302,1.6185,1.6121,1.611,1.611,1.6114,1.612,1.612,1.612,1.612,1.6121,1.6162,1.6359,1.67,1.6768,1.6681,1.6868,1.7113,1.7088,1.6989,1.7081,2.1825,2.1682,2.1469,2.1506,2.1635,2.1472,2.1378,2.1327,2.11,2.0815,2.0537,2.0395,2.0214,1.9965,1.9965,1.9926,1.9871,1.9781,1.9751,1.9708,1.9817,1.9871,1.9863,1.9997,2.0092,2.0069,2.0105,2.0193,2.0307,2.0239,2.0383,2.0657,2.0485,2.0496,2.0795,2.0584,2.044,2.0345,2.0286,2.013,1.9926,1.9737,1.9469,1.9196,1.9033,1.8769,1.8333,1.8199,1.8111,1.807,1.7965,1.8193,1.8626,1.8593,1.8375,1.8131,1.8084,1.8023,1.7908,1.7867,1.786,1.7909,1.7909,1.7766,1.7561,1.7683,1.7736,1.7514,1.7433,1.7399,1.7406,1.7379,1.7163,1.6657,1.6896,1.7043,1.717,1.7554,1.7899,1.7847,1.7874,1.79,1.7854,1.7731,1.7479,1.7216,1.7042,1.7007,1.6998,1.6997,1.6995,1.6963,1.6801,1.6576,1.6374,1.6198,1.6156,1.6109,1.6114,1.612,1.612,1.612,1.612,1.612,1.612,1.6148,1.6405,1.6721,1.6906,1.6923,1.7158,1.7301,1.7309,1.7276,1.7304,2.1872,2.1804,2.1527,2.1513,2.1662,2.1493,2.1392,2.1388,2.1208,2.098,2.0745,2.0671,2.0471,2.0268,2.0282,2.0259,2.0207,2.0345,2.0293,2.0039,2.0039,2.006,2.0071,2.0193,2.03,2.0374,2.0388,2.0469,2.0614,2.0682,2.0811,2.0901,2.0838,2.0822,2.0906,2.0777,2.0668,2.0637,2.0415,2.0212,2.0039,1.9824,1.9578,1.9344,1.9122,1.8911,1.8768,1.8531,1.8287,1.8111,1.7979,1.8172,1.8654,1.8745,1.8559,1.8294,1.8232,1.8139,1.7942,1.7915,1.7915,1.7909,1.7916,1.7868,1.7765,1.7834,1.7847,1.7752,1.7752,1.7704,1.7616,1.7758,1.7629,1.719,1.721,1.7365,1.7554,1.7785,1.7888,1.7916,1.7923,1.7909,1.7909,1.782,1.7744,1.758,1.7256,1.7009,1.7006,1.6998,1.6998,1.6982,1.6807,1.6705,1.6577,1.6441,1.6357,1.6231,1.6152,1.6121,1.6114,1.612,1.612,1.6114,1.6114,1.6223,1.6473,1.6721,1.6923,1.7002,1.7093,1.7282,1.7525,1.7594,1.7574,2.1916,2.1872,2.1625,2.1611,2.1743,2.1574,2.154,2.154,2.131,2.1102,2.0946,2.0895,2.0722,2.0546,2.0571,2.0564,2.0519,2.0711,2.0687,2.0474,2.0438,2.0422,2.0429,2.0517,2.0605,2.0679,2.0684,2.0747,2.0874,2.0969,2.1028,2.1062,2.1028,2.0994,2.0994,2.0906,2.0833,2.0705,2.056,2.0401,2.0232,2.0031,1.9834,1.9649,1.9393,1.9226,1.9082,1.8815,1.8551,1.83,1.8155,1.835,1.8744,1.873,1.8572,1.8375,1.8253,1.8132,1.7928,1.7915,1.7915,1.7915,1.7923,1.7909,1.7902,1.7909,1.7909,1.7909,1.7908,1.7854,1.7779,1.7935,1.7948,1.7772,1.7628,1.7683,1.7875,1.7909,1.7909,1.7916,1.7922,1.7915,1.7916,1.7909,1.7923,1.7819,1.7466,1.7076,1.7042,1.7008,1.7034,1.7046,1.6975,1.6887,1.6815,1.6699,1.6573,1.6387,1.6222,1.6158,1.6122,1.6114,1.612,1.6117,1.6111,1.6203,1.6438,1.6765,1.7006,1.7015,1.7061,1.713,1.7338,1.7704,1.7772,2.1906,2.1896,2.1774,2.1757,2.1845,2.173,2.1746,2.1784,2.1421,2.1201,2.117,2.1062,2.0942,2.0836,2.0793,2.08,2.0836,2.085,2.0929,2.0967,2.0964,2.0944,2.0896,2.0896,2.0926,2.0953,2.098,2.1001,2.1014,2.1055,2.1095,2.1204,2.1123,2.1041,2.1062,2.1028,2.0885,2.0693,2.0729,2.0705,2.0508,2.0365,2.021,2.0062,1.9788,1.951,1.9271,1.9074,1.8843,1.8571,1.8482,1.8562,1.8717,1.8602,1.8482,1.8348,1.8213,1.8105,1.7969,1.7914,1.7914,1.7921,1.7921,1.7922,1.7915,1.7922,1.7909,1.7915,1.7915,1.7888,1.7901,1.8023,1.8133,1.8272,1.8118,1.8012,1.7924,1.7907,1.7915,1.7908,1.7915,1.7915,1.7915,1.7922,1.7909,1.7854,1.7616,1.7399,1.723,1.7209,1.7176,1.7155,1.7124,1.7063,1.6997,1.6875,1.6743,1.6576,1.6398,1.6322,1.6213,1.6179,1.621,1.6192,1.6157,1.6241,1.644,1.6787,1.707,1.7205,1.717,1.7055,1.7235,1.7629,1.7882,2.2001,2.1899,2.1859,2.1804,2.175,2.1712,2.1726,2.1733,2.1466,2.128,2.1208,2.1161,2.1082,2.0969,2.0946,2.101,2.1068,2.1089,2.1161,2.1289,2.1277,2.1167,2.1025,2.0991,2.1014,2.1028,2.11,2.114,2.1163,2.1235,2.1293,2.1341,2.1293,2.128,2.1296,2.1204,2.1129,2.1018,2.0953,2.0881,2.0732,2.0535,2.0386,2.0223,1.9903,1.9681,1.953,1.9284,1.9028,1.8736,1.8571,1.8607,1.8781,1.8759,1.8626,1.8483,1.8415,1.8313,1.8135,1.7996,1.7926,1.7912,1.7958,1.7918,1.7911,1.7907,1.7915,1.7915,1.7915,1.7915,1.7942,1.803,1.8243,1.8592,1.8494,1.8321,1.801,1.7908,1.7915,1.7915,1.7915,1.7915,1.7915,1.7922,1.7916,1.7895,1.7793,1.7725,1.754,1.7411,1.7378,1.7344,1.7301,1.7233,1.7151,1.705,1.6908,1.674,1.6633,1.6592,1.6451,1.6338,1.6383,1.6416,1.6275,1.6306,1.6554,1.6857,1.7083,1.7335,1.731,1.7237,1.7371,1.767,1.7841,2.2025,2.1916,2.1916,2.1818,2.1712,2.1706,2.1706,2.1655,2.1493,2.1361,2.1303,2.1289,2.1225,2.1174,2.1151,2.1208,2.1266,2.1289,2.132,2.1365,2.1378,2.13,2.1201,2.1167,2.1167,2.1174,2.1249,2.1283,2.1303,2.1368,2.1385,2.1378,2.1392,2.1358,2.1293,2.13,2.1215,2.1143,2.1082,2.1014,2.0888,2.0767,2.0661,2.0483,2.018,1.9971,1.9722,1.9503,1.9227,1.8897,1.8791,1.8857,1.8947,1.886,1.8757,1.8626,1.8504,1.8353,1.8256,1.813,1.8074,1.8118,1.8179,1.811,1.7984,1.7912,1.7915,1.7913,1.7914,1.7908,1.7915,1.7982,1.8195,1.846,1.8474,1.828,1.792,1.7921,1.7908,1.7915,1.7915,1.7915,1.7915,1.7915,1.7916,1.7882,1.7738,1.7772,1.7792,1.7669,1.754,1.7487,1.7411,1.7316,1.7248,1.714,1.7024,1.687,1.6803,1.6768,1.6699,1.6552,1.6621,1.664,1.6456,1.6408,1.6651,1.6897,1.7174,1.7344,1.7378,1.7487,1.7616,1.769,1.7847,2.2045,2.1903,2.1903,2.1831,2.1702,2.1706,2.1692,2.1635,2.1462,2.1385,2.1388,2.1385,2.1374,2.1392,2.1347,2.1378,2.1395,2.1381,2.1388,2.1392,2.1392,2.1374,2.1361,2.1347,2.1354,2.1361,2.1378,2.1388,2.1381,2.1385,2.1392,2.1392,2.1392,2.1341,2.1293,2.1341,2.1269,2.114,2.1181,2.1163,2.1048,2.0994,2.0912,2.0756,2.0528,2.0212,1.9924,1.9732,1.9534,1.8976,1.9131,1.9203,1.9197,1.9003,1.8852,1.8791,1.8614,1.8443,1.8382,1.8381,1.8375,1.8396,1.862,1.8537,1.8091,1.7999,1.812,1.811,1.7961,1.7989,1.7968,1.7945,1.8012,1.8214,1.8061,1.795,1.7937,1.792,1.7915,1.7915,1.7915,1.7915,1.7915,1.7915,1.7915,1.7902,1.7779,1.7793,1.7861,1.782,1.7691,1.7573,1.748,1.7371,1.7303,1.7229,1.7101,1.6986,1.6946,1.6918,1.6913,1.6863,1.6916,1.6896,1.6714,1.6627,1.6663,1.6942,1.725,1.7419,1.7494,1.7636,1.7785,1.7813,1.7909,2.2184,2.2059,2.2065,2.1909,2.1709,2.1706,2.1597,2.1456,2.1405,2.1392,2.1408,2.1408,2.1425,2.1392,2.1468,2.1392,2.1401,2.1392,2.1392,2.1392,2.1392,2.1392,2.1392,2.1392,2.1392,2.1392,2.1392,2.1392,2.1392,2.1392,2.1392,2.1392,2.1385,2.1388,2.1368,2.1374,2.1388,2.132,2.1341,2.1289,2.1181,2.1147,2.1102,2.0946,2.0677,2.0426,2.0245,2.0171,2.0045,1.982,1.9558,1.9477,1.9471,1.9283,1.9096,1.898,1.8906,1.8797,1.8716,1.8676,1.8689,1.867,1.8705,1.855,1.8022,1.8321,1.8535,1.8553,1.8371,1.8213,1.8178,1.8014,1.7985,1.8027,1.8021,1.8021,1.8121,1.805,1.7977,1.7929,1.7929,1.7922,1.7922,1.7915,1.7909,1.7889,1.7868,1.784,1.7854,1.7909,1.7827,1.7701,1.7547,1.7446,1.7433,1.7351,1.7203,1.7055,1.7002,1.7161,1.7157,1.7121,1.7165,1.7099,1.6976,1.69,1.6816,1.7062,1.7398,1.7494,1.7602,1.7703,1.7805,1.7874,1.7915,2.2353,2.2103,2.2096,2.1943,2.1702,2.1597,2.1499,2.1415,2.1392,2.1392,2.1567,2.2031,2.2015,2.1501,2.2031,2.2114,2.1484,2.1392,2.1392,2.1392,2.1392,2.1392,2.1392,2.1392,2.1392,2.1392,2.1392,2.1392,2.1392,2.1392,2.1392,2.1392,2.1392,2.1385,2.1392,2.1392,2.1385,2.1378,2.1392,2.1361,2.1293,2.128,2.1228,2.1123,2.0917,2.0747,2.0553,2.0666,2.0566,2.0313,2.0047,1.9822,1.9724,1.9597,1.9443,1.923,1.9115,1.9041,1.8919,1.8832,1.8792,1.8791,1.8799,1.8635,1.8394,1.8571,1.8757,1.8824,1.8647,1.8388,1.8373,1.8217,1.8111,1.8123,1.8236,1.8378,1.8471,1.8404,1.8217,1.81,1.8052,1.7983,1.7956,1.7915,1.7915,1.7902,1.7895,1.7874,1.7881,1.7916,1.7909,1.7792,1.7636,1.7541,1.7555,1.7467,1.7311,1.7143,1.7003,1.7277,1.7496,1.7442,1.7395,1.7267,1.7134,1.7043,1.7016,1.7291,1.7507,1.767,1.7779,1.7792,1.7826,1.7895,1.7915,2.2551,2.2191,2.215,2.1991,2.175,2.1547,2.1442,2.1408,2.1634,2.1899,2.1899,2.305,2.2736,2.2157,2.2537,2.2355,2.1683,2.1392,2.1392,2.1392,2.1392,2.1392,2.1392,2.1392,2.1392,2.1392,2.1392,2.1392,2.1392,2.1392,2.1392,2.1392,2.1392,2.1392,2.1392,2.1392,2.1392,2.1392,2.1392,2.1385,2.1371,2.1371,2.1337,2.1249,2.1201,2.1136,2.1037,2.1102,2.1066,2.0673,2.0652,2.0343,1.9987,1.9817,1.9781,1.9444,1.9318,1.9161,1.9011,1.8881,1.8799,1.8809,1.8938,1.8881,1.8784,1.8767,1.8903,1.8944,1.8863,1.8618,1.855,1.8448,1.8395,1.8428,1.8637,1.8765,1.8801,1.8794,1.8548,1.8243,1.8181,1.8168,1.8017,1.7907,1.7914,1.7908,1.7922,1.7915,1.7915,1.7915,1.7908,1.7908,1.7745,1.769,1.7704,1.7691,1.7528,1.7406,1.719,1.7412,1.775,1.7696,1.7587,1.7418,1.7277,1.7197,1.7203,1.7392,1.7609,1.7833,1.7895,1.7874,1.7874,1.7915,1.7922,2.2639,2.2666,2.2387,2.2177,2.2004,2.1763,2.1573,2.1614,2.2585,2.3116,2.309,2.338,2.3371,2.2925,2.1981,2.16,2.1484,2.1392,2.1392,2.1392,2.1392,2.1392,2.1392,2.1392,2.1392,2.1392,2.1392,2.1392,2.1422,2.1392,2.1435,2.1398,2.1415,2.1422,2.1392,2.1392,2.1392,2.1392,2.1392,2.1392,2.1392,2.1385,2.1408,2.1384,2.1398,2.1435,2.1536,2.1563,2.1508,2.1287,2.1248,2.0904,2.0448,2.0113,1.9863,1.9664,1.95,1.9356,1.9163,1.8933,1.8826,1.8908,1.9249,1.9228,1.905,1.9051,1.9176,1.9176,1.9149,1.9,1.8778,1.8734,1.8728,1.8733,1.874,1.8796,1.8795,1.8776,1.8666,1.8376,1.8357,1.8311,1.8126,1.7954,1.7914,1.7914,1.7922,1.7915,1.7915,1.7915,1.7915,1.7901,1.7874,1.784,1.7847,1.7848,1.7786,1.7759,1.7636,1.7636,1.7847,1.7881,1.7793,1.7589,1.746,1.7372,1.7426,1.754,1.7656,1.786,1.7895,1.7915,1.7915,1.7922,1.7956,2.3587,2.287,2.3359,2.3497,2.3168,2.2132,2.21,2.2623,2.2616,2.2566,2.2799,2.3257,2.3207,2.2727,2.2698,2.2147,2.1534,2.1392,2.1392,2.1392,2.1392,2.1392,2.1392,2.1392,2.1392,2.1392,2.1392,2.1456,2.1557,2.1547,2.154,2.1564,2.1557,2.1506,2.1422,2.1392,2.1392,2.1392,2.1392,2.1392,2.1392,2.1392,2.1435,2.154,2.1631,2.1706,2.1784,2.1892,2.1821,2.1666,2.1475,2.1246,2.0918,2.0578,2.0231,1.9965,1.9813,1.969,1.9465,1.9217,1.9021,1.9081,1.9561,1.9685,1.942,1.937,1.9437,1.9451,1.9448,1.9401,1.9287,1.9098,1.9017,1.8996,1.8921,1.8843,1.8808,1.8811,1.8684,1.8544,1.8491,1.8398,1.8195,1.8057,1.794,1.7914,1.7915,1.7915,1.7915,1.7915,1.7922,1.7901,1.7901,1.7888,1.7888,1.7909,1.7923,1.7909,1.7916,1.7916,1.7909,1.7916,1.7868,1.7752,1.7636,1.7527,1.7643,1.7765,1.7819,1.7853,1.7895,1.7915,1.7915,1.7922,1.7956,2.5125,2.3894,2.4885,2.5191,2.4755,2.3317,2.3294,2.3966,2.3524,2.3068,2.2711,2.3973,2.3866,2.2608,2.2509,2.2388,2.1408,2.1392,2.1392,2.1392,2.1392,2.1392,2.1392,2.1392,2.1392,2.1408,2.1469,2.152,2.1577,2.1648,2.1682,2.1685,2.1699,2.1635,2.1516,2.1429,2.1415,2.1392,2.1392,2.1392,2.1392,2.1426,2.154,2.1713,2.1872,2.194,2.196,2.2065,2.2069,2.1911,2.1711,2.1468,2.1349,2.1068,2.0714,2.0349,2.0214,2.0094,1.9923,1.9652,1.9434,1.9479,1.9875,1.9981,1.9895,1.9708,1.961,1.9688,1.9722,1.9646,1.95,1.9339,1.921,1.9172,1.9072,1.8985,1.8992,1.8957,1.8816,1.8703,1.8631,1.8533,1.8407,1.8233,1.8142,1.7922,1.791,1.7905,1.7905,1.7913,1.7914,1.7915,1.7915,1.7915,1.7915,1.7901,1.7909,1.7916,1.7909,1.7909,1.7909,1.7922,1.7867,1.7826,1.7786,1.7711,1.7847,1.7915,1.7895,1.7895,1.7901,1.7915,1.7922,1.7929,1.7942,2.7465,2.7159,2.6993,2.69,2.6494,2.5668,2.5543,2.5749,2.6439,2.6497,2.5017,2.6572,2.5706,2.3484,2.2007,2.1647,2.1458,2.1584,2.1534,2.1441,2.1551,2.1551,2.1392,2.1392,2.1422,2.1466,2.1584,2.1557,2.1591,2.1675,2.1726,2.174,2.174,2.1692,2.1655,2.1513,2.1392,2.1392,2.1415,2.1408,2.1429,2.1547,2.1716,2.1859,2.1957,2.2062,2.2059,2.2167,2.2216,2.2205,2.1966,2.1701,2.1431,2.1246,2.1075,2.0822,2.0551,2.0264,2.0259,2.0066,1.9932,1.9969,2.0264,2.0399,2.0282,2.0103,1.9921,1.971,1.9803,1.9795,1.9617,1.9363,1.9244,1.9305,1.9394,1.9465,1.9494,1.9186,1.9038,1.8828,1.8765,1.8767,1.8703,1.8513,1.8322,1.8094,1.7929,1.7948,1.7937,1.7966,1.792,1.7922,1.7915,1.7915,1.7915,1.7915,1.7915,1.7915,1.7915,1.7915,1.7915,1.7915,1.7915,1.7874,1.784,1.7819,1.7881,1.7915,1.7915,1.7915,1.7915,1.7922,1.7908,1.7936,1.7942,2.7656,2.5887,2.5894,2.5827,2.5597,2.4428,2.4774,2.5877,2.5861,2.5879,2.5872,2.5784,2.459,2.2875,2.1754,2.1516,2.1588,2.2253,2.2081,2.1889,2.2154,2.218,2.1534,2.1398,2.1435,2.157,2.1655,2.1723,2.1713,2.1811,2.1916,2.1913,2.1852,2.1828,2.1814,2.1645,2.1591,2.1577,2.1547,2.1506,2.1493,2.1614,2.178,2.1876,2.1906,2.1971,2.2082,2.2154,2.2229,2.222,2.2038,2.1727,2.149,2.1344,2.1266,2.1212,2.0984,2.0795,2.0693,2.0457,2.0352,2.0392,2.056,2.0688,2.0552,2.0401,2.0279,2.0189,2.0072,1.9978,1.99,1.98,1.973,1.9738,1.9747,1.9674,1.9697,1.9532,1.9311,1.9093,1.8898,1.8929,1.8887,1.8676,1.8538,1.8452,1.8299,1.8266,1.8178,1.8082,1.8009,1.7922,1.7922,1.7915,1.7915,1.7915,1.7915,1.7915,1.7915,1.7915,1.7915,1.7915,1.7922,1.7922,1.7888,1.7888,1.7908,1.7915,1.7929,1.7922,1.7915,1.7914,1.792,1.7954,1.8008,2.728,2.5047,2.5302,2.5387,2.5291,2.4151,2.4956,2.6551,2.6291,2.6233,2.6158,2.5452,2.4222,2.3453,2.3265,2.3076,2.2758,2.3671,2.3439,2.3257,2.33,2.3202,2.2544,2.2094,2.2022,2.1712,2.1804,2.1865,2.195,2.2065,2.2116,2.2096,2.2008,2.196,2.192,2.1825,2.1736,2.1753,2.2223,2.2124,2.1785,2.219,2.2172,2.2048,2.192,2.1923,2.2062,2.2157,2.2226,2.2103,2.2052,2.1767,2.1471,2.1379,2.1371,2.1347,2.1228,2.1161,2.1006,2.0813,2.0619,2.0647,2.0817,2.0928,2.0555,2.0503,2.05,2.0429,2.0322,2.0252,2.0257,2.0203,2.0162,2.0088,2.0051,1.9895,1.9724,1.9606,1.9533,1.9405,1.9236,1.9104,1.9026,1.879,1.8712,1.8755,1.8693,1.858,1.8441,1.8275,1.8097,1.7975,1.7983,1.7962,1.7929,1.7929,1.7922,1.7915,1.7915,1.7922,1.7915,1.7929,1.7963,1.7942,1.7956,1.7906,1.7911,1.7927,1.7949,1.8017,1.803,1.7945,1.7922,1.7991,1.8135,2.677,2.6591,2.6919,2.6829,2.666,2.78,2.8087,2.8137,2.9471,2.9094,2.7947,2.688,2.6712,2.6956,2.5949,2.5425,2.5517,2.575,2.5485,2.5485,2.5634,2.4617,2.3645,2.309,2.2891,2.1945,2.1896,2.2015,2.2103,2.2198,2.2191,2.212,2.2079,2.2086,2.2052,2.195,2.1876,2.2089,2.2748,2.2885,2.2632,2.2886,2.3203,2.24,2.2222,2.2207,2.2109,2.2174,2.2164,2.1991,2.1974,2.1791,2.1481,2.1396,2.1398,2.1388,2.1381,2.1327,2.1243,2.109,2.0838,2.0802,2.0927,2.1129,2.0739,2.0534,2.0511,2.0512,2.0422,2.0377,2.0377,2.0386,2.0388,2.0367,2.0272,2.0141,1.994,1.9718,1.9662,1.9658,1.9548,1.9383,1.9208,1.8993,1.88,1.8802,1.8786,1.8687,1.8642,1.8482,1.8212,1.8061,1.8069,1.803,1.7956,1.7963,1.7989,1.7947,1.7912,1.7913,1.7914,1.7942,1.7954,1.8093,1.8106,1.8006,1.7947,1.8039,1.8124,1.8187,1.8166,1.8101,1.8189,1.8314,1.8467,2.7297,2.5882,2.6018,2.539,2.4386,2.5712,2.6646,2.7427,2.8798,2.9248,2.8707,2.8156,2.7689,2.7367,2.6886,2.6324,2.6337,2.7165,2.6805,2.6272,2.5872,2.5131,2.4111,2.3088,2.237,2.2028,2.2055,2.2157,2.2238,2.2313,2.2292,2.2225,2.2249,2.217,2.2143,2.2096,2.2035,2.2158,2.2665,2.278,2.3413,2.2852,2.3097,2.3548,2.2263,2.2168,2.2106,2.2143,2.2062,2.198,2.1977,2.1761,2.1498,2.1427,2.1402,2.1398,2.1415,2.1392,2.1398,2.1301,2.1192,2.1142,2.1264,2.1274,2.0955,2.074,2.0557,2.0504,2.0523,2.048,2.0471,2.0479,2.0486,2.0505,2.0449,2.0322,2.018,1.995,1.9825,1.9844,1.9721,1.9565,1.939,1.9203,1.9016,1.886,1.8823,1.8787,1.8729,1.869,1.8425,1.8224,1.8226,1.8248,1.8167,1.8139,1.8089,1.8006,1.795,1.8,1.8022,1.7914,1.7967,1.8129,1.8382,1.843,1.8407,1.8313,1.8328,1.8457,1.84,1.83,1.8438,1.8611,1.8701,2.8214,2.6638,2.6135,2.4952,2.3618,2.4832,2.6134,2.7356,2.8811,2.9415,2.9551,2.9615,2.9108,2.8209,2.8055,2.7935,2.8159,2.8543,2.7961,2.7434,2.6847,2.5681,2.4228,2.3213,2.2799,2.2315,2.2164,2.2238,2.2398,2.2405,2.2405,2.2492,2.2724,2.2841,2.2248,2.2289,2.2262,2.2331,2.2899,2.2906,2.36,2.3449,2.2885,2.3655,2.2616,2.2222,2.2194,2.2204,2.2156,2.2089,2.2042,2.1903,2.1679,2.1505,2.1443,2.1446,2.1435,2.1392,2.1391,2.1393,2.1401,2.1338,2.1356,2.1394,2.1274,2.0998,2.0871,2.0709,2.0654,2.0591,2.0595,2.0603,2.0631,2.0665,2.0532,2.0421,2.0368,2.0205,2.0109,2.0043,1.9868,1.9664,1.9638,1.9458,1.9175,1.8959,1.8822,1.8795,1.8789,1.8736,1.866,1.85,1.8403,1.8426,1.8435,1.8365,1.8282,1.8156,1.8121,1.819,1.8196,1.8101,1.8206,1.8518,1.8752,1.8894,1.895,1.8934,1.8842,1.8772,1.865,1.8504,1.8573,1.8719,1.8738,2.9374,2.9516,2.8036,2.6556,2.5385,2.6374,2.7672,2.8914,3.0236,3.0854,3.0869,3.1193,3.1062,3.0542,3.0357,3.0237,3.0102,3.0324,2.9799,2.8761,2.7782,2.6473,2.5017,2.3891,2.2973,2.2356,2.2469,2.2762,2.2781,2.3254,2.3094,2.3401,2.4165,2.4159,2.2578,2.2542,2.2696,2.3047,2.4341,2.4018,2.4206,2.4463,2.3941,2.3747,2.2768,2.2361,2.2262,2.2255,2.2238,2.2228,2.2233,2.2106,2.1929,2.1649,2.1581,2.1655,2.1506,2.1429,2.1392,2.1401,2.1398,2.1401,2.1389,2.1382,2.1383,2.1308,2.1181,2.0952,2.0857,2.085,2.0811,2.0766,2.0838,2.0796,2.0672,2.055,2.0511,2.0417,2.0307,2.0242,1.9972,1.974,1.9797,1.9715,1.9367,1.911,1.8886,1.8794,1.881,1.8788,1.8755,1.8691,1.8565,1.859,1.8592,1.8545,1.8469,1.8335,1.8319,1.8402,1.8508,1.8536,1.8685,1.8955,1.9763,2.0485,2.0086,1.9619,1.9246,1.886,1.8813,1.873,1.8785,1.8915,1.9052,3.0433,2.9937,2.9312,2.8725,2.8289,2.8487,2.8881,2.9372,3.0471,3.1168,3.1263,3.133,3.1329,3.1215,3.1168,3.1176,3.1043,3.0979,3.0392,2.9889,2.8352,2.6934,2.5395,2.383,2.2896,2.272,2.3062,2.3786,2.4117,2.4701,2.5458,2.5941,2.6009,2.6026,2.5318,2.488,2.4508,2.5422,2.5655,2.555,2.6749,2.5823,2.5069,2.5182,2.3574,2.2561,2.2437,2.2465,2.2347,2.2326,2.2325,2.2222,2.2113,2.1876,2.1882,2.178,2.1597,2.152,2.1442,2.1385,2.1385,2.1398,2.1401,2.1398,2.1393,2.139,2.1296,2.1157,2.1029,2.0988,2.0923,2.1106,2.1159,2.1039,2.0911,2.0788,2.0694,2.0562,2.0446,2.0438,2.0259,2.005,1.9997,1.9927,1.9637,1.9398,1.9188,1.8898,1.8822,1.8821,1.8792,1.8782,1.8726,1.8753,1.8757,1.8886,1.88,1.862,1.8612,1.8654,1.8756,1.8801,1.9095,1.9302,2.0793,2.2118,2.1213,2.0312,1.9358,1.8888,1.8834,1.879,1.8799,1.9154,1.9639,3.1366,3.067,3.0517,3.0516,3.042,2.9716,2.9512,2.9945,3.0815,3.1244,3.1308,3.1357,3.1385,3.1414,3.1423,3.1281,3.1225,3.1196,3.0497,2.9974,2.7842,2.6425,2.5049,2.3718,2.3142,2.3197,2.4053,2.4837,2.5784,2.6702,2.7405,2.7856,2.8128,2.8409,2.7915,2.7262,2.6108,2.6725,2.6569,2.6802,2.7455,2.7128,2.626,2.6026,2.4894,2.3229,2.2986,2.2724,2.2411,2.2378,2.233,2.229,2.2242,2.2199,2.2147,2.1916,2.177,2.1649,2.1464,2.1387,2.139,2.14,2.1393,2.1392,2.1395,2.1386,2.1336,2.1243,2.117,2.1139,2.1155,2.1374,2.1323,2.1186,2.1139,2.1015,2.0971,2.0848,2.0769,2.0739,2.0616,2.0413,2.0149,2.0052,1.9874,1.9686,1.9505,1.9206,1.9029,1.9252,1.9138,1.8895,1.9148,1.9378,1.9416,1.9415,1.9248,1.8941,1.8863,1.8843,1.88,1.8824,1.9238,1.9841,2.129,2.2184,2.179,2.0987,1.9616,1.8924,1.8813,1.8793,1.8805,1.9168,1.9661,3.2069,3.1746,3.1699,3.1733,3.1617,3.0051,2.9962,3.1038,3.1274,3.1272,3.114,3.1688,3.1659,3.148,3.1746,3.1661,3.1376,3.1338,3.0395,2.9056,2.7473,2.611,2.4749,2.3467,2.3584,2.4353,2.5379,2.6585,2.7563,2.8373,2.9058,2.9569,2.97,3.0189,2.9997,2.9185,2.8108,2.833,2.8035,2.8305,2.879,2.8078,2.7625,2.7093,2.5655,2.4463,2.3883,2.3254,2.275,2.2527,2.2446,2.2464,2.2452,2.2396,2.2249,2.21,2.196,2.172,2.1538,2.1508,2.1531,2.1585,2.1527,2.1453,2.1426,2.1432,2.1389,2.1378,2.1348,2.1365,2.1385,2.1395,2.1388,2.1349,2.1354,2.1327,2.1319,2.1256,2.1174,2.1088,2.0953,2.0716,2.0297,2.014,2.0156,2.0085,1.9919,1.9693,1.9696,2.0416,2.008,1.9054,1.9429,2.0087,2.0087,1.9721,1.9471,1.9076,1.8953,1.8911,1.8859,1.9139,1.9969,2.0818,2.1816,2.2272,2.2165,2.1052,1.9426,1.8993,1.8919,1.8837,1.8848,1.887,1.9524,3.1411,3.2131,3.1678,3.1612,3.1639,3.0876,3.0849,3.1266,3.1251,3.114,3.1104,3.1433,3.1488,3.1225,3.1451,3.1404,3.1291,3.099,3.016,2.8903,2.7539,2.6114,2.5137,2.4581,2.4712,2.5683,2.6979,2.8476,2.9331,3.0114,3.0858,3.1564,3.1177,3.1585,3.1343,3.0858,3.0657,3.0326,2.9699,2.9928,3.0106,2.97,2.9244,2.8233,2.6414,2.5305,2.434,2.3428,2.2871,2.2602,2.2652,2.2683,2.2551,2.24,2.2232,2.2096,2.1977,2.1835,2.1781,2.1794,2.1865,2.2018,2.199,2.1831,2.1699,2.1689,2.1644,2.1523,2.1685,2.1798,2.1524,2.1388,2.1391,2.14,2.1736,2.2426,2.2228,2.1369,2.1376,2.2035,2.188,2.1455,2.0988,2.0391,2.0424,2.0419,2.0435,2.0387,2.1015,2.1964,2.0941,1.9855,1.9367,1.9949,1.9926,1.9619,1.9442,1.9243,1.9147,1.9052,1.9007,1.9504,2.0694,2.1907,2.3109,2.3169,2.2781,2.1306,1.9421,1.9178,1.9098,1.898,1.8892,1.8921,2.0037,3.1416,3.2011,3.1603,3.1433,3.1434,3.1385,3.1338,3.1272,3.1149,3.113,3.1242,3.134,3.1376,3.1396,3.1574,3.1574,3.1395,3.137,3.0853,3.0027,2.7967,2.7282,2.6573,2.6558,2.6801,2.7836,2.9367,3.1021,3.1255,3.1646,3.234,3.239,3.2254,3.2103,3.1931,3.1835,3.2025,3.1776,3.1584,3.1682,3.1512,3.1243,3.0543,2.9394,2.7305,2.6232,2.4807,2.3851,2.3444,2.2893,2.2844,2.2892,2.2738,2.2558,2.2955,2.2961,2.3144,2.2673,2.2437,2.3485,2.3117,2.2671,2.2566,2.2985,2.2931,2.2914,2.2231,2.1742,2.2061,2.2224,2.177,2.1391,2.1397,2.1386,2.2542,2.3691,2.2789,2.1613,2.2037,2.2918,2.2896,2.2479,2.1918,2.1254,2.0629,2.0527,2.1301,2.2381,2.3479,2.5064,2.2932,2.0563,1.988,1.9645,1.9634,1.9828,1.966,1.9578,1.9445,1.9355,1.9244,2.0076,2.1448,2.2992,2.4556,2.434,2.3986,2.1414,1.9613,1.9449,1.9334,1.933,1.9163,1.8949,2.0716,3.1819,3.1736,3.15,3.1348,3.1215,3.1529,3.1481,3.1151,3.1159,3.1206,3.1338,3.1403,3.1453,3.1491,3.1661,3.1689,3.1557,3.1502,3.1659,3.167,2.9433,2.8656,2.9488,2.9384,3.0329,3.1331,3.218,3.3005,3.2627,3.2638,3.2611,3.2714,3.2478,3.2326,3.2298,3.2214,3.2233,3.2127,3.2048,3.2066,3.2175,3.194,3.1396,3.0254,2.9219,2.8244,2.6112,2.5046,2.4624,2.3668,2.3036,2.312,2.3685,2.3236,2.3831,2.4443,2.4734,2.4222,2.4021,2.492,2.5101,2.4271,2.3136,2.4393,2.4834,2.4207,2.3403,2.3189,2.3586,2.351,2.3147,2.2051,2.1597,2.3255,2.5079,2.4329,2.2301,2.1809,2.2452,2.3501,2.4597,2.4211,2.406,2.3433,2.186,2.1206,2.2734,2.458,2.5364,2.7282,2.5594,2.228,2.1831,2.136,2.0452,2.0525,2.0113,1.9943,1.9752,1.9626,1.9494,2.0695,2.2265,2.4168,2.6014,2.5713,2.4943,2.2732,2.0842,1.963,1.9576,1.9686,1.9587,1.9627,2.1962,3.1447,3.1916,3.1708,3.1595,3.1584,3.1661,3.1651,3.1555,3.1395,3.1263,3.1232,3.131,3.1348,3.1348,3.1518,3.1546,3.15,3.1544,3.1962,3.233,3.1162,3.1441,3.3139,3.3637,3.445,3.5155,3.5406,3.4544,3.3558,3.3101,3.2838,3.2876,3.2638,3.243,3.2421,3.2299,3.2169,3.2196,3.2271,3.228,3.2355,3.2327,3.1907,3.1135,3.0393,2.949,2.7661,2.6249,2.5649,2.4799,2.3655,2.4492,2.6435,2.5191,2.5377,2.6322,2.6525,2.609,2.6164,2.6756,2.7163,2.8544,2.8269,2.7423,2.6745,2.5744,2.5165,2.5133,2.5058,2.4874,2.4354,2.3068,2.2475,2.5089,2.7352,2.4719,2.2084,2.2263,2.2807,2.436,2.5845,2.6207,2.6099,2.5159,2.3487,2.4311,2.6772,2.8182,2.7475,2.8294,2.8221,2.5746,2.4858,2.4081,2.2581,2.1541,2.129,2.0358,1.9859,1.9781,1.9723,2.1941,2.4063,2.5918,2.7322,2.6863,2.6158,2.494,2.3097,2.1132,1.9839,1.9961,2.1075,2.142,2.4133,3.1429,3.1691,3.1527,3.1499,3.1565,3.1557,3.1557,3.1538,3.1451,3.1299,3.1121,3.1223,3.1261,3.1232,3.1357,3.1412,3.1395,3.1404,3.2544,3.3304,3.3686,3.4326,3.566,3.7446,3.7628,3.8057,3.6856,3.563,3.4591,3.3363,3.2989,3.3046,3.2771,3.2534,3.2506,3.23,3.216,3.2196,3.2355,3.2402,3.2429,3.2383,3.1842,3.1209,3.1024,3.022,2.8925,2.7544,2.7468,2.6817,2.5959,2.6062,2.7213,2.6782,2.714,2.7915,2.8287,2.8264,2.8499,2.8889,2.9404,3.0603,3.1064,2.9269,2.9214,2.8206,2.6779,2.668,2.6814,2.6664,2.6191,2.5123,2.4763,2.6264,2.7498,2.6618,2.3583,2.1758,2.3445,2.5795,2.7187,2.8274,2.8186,2.8085,2.6735,2.6782,2.9449,2.9636,2.9263,2.8934,2.8886,2.8571,2.7266,2.5684,2.3789,2.3013,2.2758,2.1632,2.0213,1.9871,2.0187,2.334,2.5947,2.7185,2.7866,2.765,2.6875,2.6206,2.4632,2.2529,2.1191,2.0255,2.1498,2.2602,2.4503,3.1538,3.1338,3.1206,3.1244,3.1385,3.1442,3.1433,3.1404,3.1395,3.1299,3.1111,3.1102,3.1215,3.131,3.1366,3.1393,3.1662,3.2331,3.3523,3.4809,3.4859,3.7197,3.9163,4.0347,4.0527,4.0083,3.9047,3.7755,3.6549,3.5092,3.3987,3.3471,3.3045,3.2771,3.2686,3.2553,3.2412,3.2394,3.2449,3.2449,3.244,3.2403,3.172,3.1491,3.1449,3.0834,2.951,2.8717,2.9022,2.86,2.7912,2.8463,2.858,2.8624,2.9096,2.9683,2.9936,3.0258,3.0736,3.1003,3.1065,3.1215,3.1127,3.1022,3.0834,3.0082,2.8656,2.8289,2.8422,2.8283,2.7813,2.7426,2.717,2.7029,2.7879,2.8425,2.5259,2.218,2.4114,2.6767,2.8381,2.965,2.976,2.9774,2.9818,2.9885,2.9901,2.9903,2.9802,2.9502,2.9325,2.9132,2.8426,2.6736,2.5056,2.4839,2.4711,2.2509,2.1147,2.0433,2.0855,2.4244,2.6627,2.76,2.8056,2.7939,2.8104,2.7782,2.5951,2.4015,2.1793,2.0436,2.0609,2.1832,2.3558,3.1355,3.1185,3.1281,3.1366,3.1414,3.1565,3.1548,3.1414,3.1395,3.1281,3.114,3.1102,3.114,3.1159,3.1159,3.1403,3.2129,3.3182,3.5502,3.7297,3.8379,4.1162,4.2971,4.314,4.3296,4.271,4.1746,4.0475,3.8579,3.6949,3.5298,3.3857,3.3357,3.3084,3.2904,3.2762,3.2621,3.2619,3.2572,3.2563,3.2714,3.2603,3.2359,3.2208,3.2218,3.1288,3.0138,2.8873,2.8604,2.8435,2.8706,2.9851,3.0328,3.0387,3.0602,3.1025,3.1309,3.1477,3.1866,3.1851,3.1642,3.1166,3.1101,3.1091,3.0983,3.0942,3.0022,2.9853,2.99,2.9813,2.9429,2.9102,2.8834,2.8674,2.9083,2.8965,2.737,2.495,2.4404,2.6973,2.9254,2.9809,2.9851,2.9858,2.9858,2.9902,2.9902,2.9905,2.9907,2.9809,2.9697,2.9481,2.9227,2.8188,2.672,2.7045,2.6594,2.4145,2.2015,2.118,2.2091,2.5398,2.7387,2.817,2.8282,2.8136,2.8367,2.859,2.7563,2.5495,2.2335,2.0611,2.0564,2.121,2.304]}]]